[[{"header":{"parameterUnit":"m.s-1","parameterCategory":1,"la1":30.6,"la2":28.766,"lo1":-90.7593,"lo2":-88.6598,"dy":0.0162,"dx":0.0183,"nx":116,"ny":114,"refTime":"2023-10-02T06:00:00:Z","depth":0,"parameterNumber":2,"parameterNumberName":"U-component_of_WINDS"},"data":[0.0,0.0,0.0,0.0,0.0,0.0,0.0,0.0,0.0,0.0,0.0,0.0,0.0,0.0,0.0,0.0,0.0,0.0,0.0,0.0,0.0,0.0,0.0,0.0,0.0,0.0,0.0,0.0,0.0,0.0,0.0,0.0,0.0,0.0,0.0,0.0,0.0,0.0,0.0,0.0,0.0,0.0,0.0,0.0,0.0,0.0,0.0,0.0,0.0,0.0,0.0,0.0,0.0,0.0,0.0,0.0,0.0,0.0,0.0,0.0,0.0,0.0,0.0,0.0,0.0,0.0,0.0,0.0,0.0,0.0,0.0,0.0,0.0,0.0,0.0,0.0,0.0,0.0,0.0,0.0,0.0,0.0,0.0,0.0,0.0,0.0,0.0,0.0,0.0,0.0,0.0,0.0,0.0,0.0,0.0,0.0,0.0,0.0,0.0,0.0,0.0,0.0,0.0,0.0,0.0,0.0,0.0,0.0,0.0,0.0,0.0,0.0,0.0,0.0,0.0,0.0,0.0,0.0,0.0,0.0,0.0,0.0,0.0,0.0,0.0,0.0,0.0,0.0,0.0,0.0,0.0,0.0,0.0,0.0,0.0,0.0,0.0,0.0,0.0,0.0,0.0,0.0,0.0,0.0,0.0,0.0,0.0,0.0,0.0,0.0,0.0,0.0,0.0,0.0,0.0,0.0,0.0,0.0,0.0,0.0,0.0,0.0,0.0,0.0,0.0,0.0,0.0,0.0,0.0,0.0,0.0,0.0,0.0,0.0,0.0,0.0,0.0,0.0,0.0,0.0,0.0,0.0,0.0,0.0,0.0,0.0,0.0,0.0,0.0,0.0,0.0,0.0,0.0,0.0,0.0,0.0,0.0,0.0,0.0,0.0,0.0,0.0,0.0,0.0,0.0,0.0,0.0,0.0,0.0,0.0,0.0,0.0,0.0,0.0,0.0,0.0,0.0,0.0,0.0,0.0,0.0,0.0,0.0,0.0,0.0,0.0,0.0,0.0,0.0,0.0,0.0,0.0,0.0,0.0,0.0,0.0,0.0,0.0,0.0,0.0,0.0,0.0,0.0,0.0,0.0,0.0,0.0,0.0,0.0,0.0,0.0,0.0,0.0,0.0,0.0,0.0,0.0,0.0,0.0,0.0,0.0,0.0,0.0,0.0,0.0,0.0,0.0,0.0,0.0,0.0,0.0,0.0,0.0,0.0,0.0,0.0,0.0,0.0,0.0,0.0,0.0,0.0,0.0,0.0,0.0,0.0,0.0,0.0,0.0,0.0,0.0,0.0,0.0,0.0,0.0,0.0,0.0,0.0,0.0,0.0,0.0,0.0,0.0,0.0,0.0,0.0,0.0,0.0,0.0,0.0,0.0,0.0,0.0,0.0,0.0,0.0,0.0,0.0,0.0,0.0,0.0,0.0,0.0,0.0,0.0,0.0,0.0,0.0,0.0,0.0,0.0,0.0,0.0,0.0,0.0,0.0,0.0,0.0,0.0,0.0,0.0,0.0,0.0,0.0,0.0,0.0,0.0,0.0,0.0,0.0,0.0,0.0,0.0,0.0,0.0,0.0,0.0,0.0,0.0,0.0,0.0,0.0,0.0,0.0,0.0,0.0,0.0,0.0,0.0,0.0,0.0,0.0,0.0,0.0,0.0,0.0,0.0,0.0,0.0,0.0,0.0,0.0,0.0,0.0,0.0,0.0,0.0,0.0,0.0,0.0,0.0,0.0,0.0,0.0,0.0,0.0,0.0,0.0,0.0,0.0,0.0,0.0,0.0,0.0,0.0,0.0,0.0,0.0,0.0,0.0,0.0,0.0,0.0,0.0,0.0,0.0,0.0,0.0,0.0,0.0,0.0,0.0,0.0,0.0,0.0,0.0,0.0,0.0,0.0,0.0,0.0,0.0,0.0,0.0,0.0,0.0,0.0,0.0,0.0,0.0,0.0,0.0,0.0,0.0,0.0,0.0,0.0,0.0,0.0,0.0,0.0,0.0,0.0,0.0,0.0,0.0,0.0,0.0,0.0,0.0,0.0,0.0,0.0,0.0,0.0,0.0,0.0,0.0,0.0,0.0,0.0,0.0,0.0,0.0,0.0,0.0,0.0,0.0,0.0,0.0,0.0,0.0,0.0,0.0,0.0,0.0,0.0,0.0,0.0,0.0,0.0,0.0,0.0,0.0,0.0,0.0,0.0,0.0,0.0,0.0,0.0,0.0,0.0,0.0,0.0,0.0,0.0,0.0,0.0,0.0,0.0,0.0,0.0,0.0,0.0,0.0,0.0,0.0,0.0,0.0,0.0,0.0,0.0,0.0,0.0,0.0,0.0,0.0,0.0,0.0,0.0,0.0,0.0,0.0,0.0,0.0,0.0,0.0,0.0,0.0,0.0,0.0,0.0,0.0,0.0,0.0,0.0,0.0,0.0,0.0,0.0,0.0,0.0,0.0,0.0,0.0,0.0,0.0,0.0,0.0,0.0,0.0,0.0,0.0,0.0,0.0,0.0,0.0,0.0,0.0,0.0,0.0,0.0,0.0,0.0,0.0,0.0,0.0,0.0,0.0,0.0,0.0,0.0,0.0,0.0,0.0,0.0,0.0,0.0,0.0,0.0,0.0,0.0,0.0,0.0,0.0,0.0,0.0,0.0,0.0,0.0,0.0,0.0,0.0,0.0,0.0,0.0,0.0,0.0,0.0,0.0,0.0,0.0,0.0,0.0,0.0,0.0,0.0,0.0,0.0,0.0,0.0,0.0,0.0,0.0,0.0,0.0,0.0,0.0,0.0,0.0,0.0,0.0,0.0,0.0,0.0,0.0,0.0,0.0,0.0,0.0,0.0,0.0,0.0,0.0,0.0,0.0,0.0,0.0,0.0,0.0,0.0,0.0,0.0,0.0,0.0,0.0,0.0,0.0,0.0,0.0,0.0,0.0,0.0,0.0,0.0,0.0,0.0,0.0,0.0,0.0,0.0,0.0,0.0,0.0,0.0,0.0,0.0,0.0,0.0,0.0,0.0,0.0,0.0,0.0,0.0,0.0,0.0,0.0,0.0,0.0,0.0,0.0,0.0,0.0,0.0,0.0,0.0,0.0,0.0,0.0,0.0,0.0,0.0,0.0,0.0,0.0,0.0,0.0,0.0,0.0,0.0,0.0,0.0,0.0,0.0,0.0,0.0,0.0,0.0,0.0,0.0,0.0,0.0,0.0,0.0,0.0,0.0,0.0,0.0,0.0,0.0,0.0,0.0,0.0,0.0,0.0,0.0,0.0,0.0,0.0,0.0,0.0,0.0,0.0,0.0,0.0,0.0,0.0,0.0,0.0,0.0,0.0,0.0,0.0,0.0,0.0,0.0,0.0,0.0,0.0,0.0,0.0,0.0,0.0,0.0,0.0,0.0,0.0,0.0,0.0,0.0,0.0,0.0,0.0,0.0,0.0,0.0,0.0,0.0,0.0,0.0,0.0,0.0,0.0,0.0,0.0,0.0,0.0,0.0,0.0,0.0,0.0,0.0,0.0,0.0,0.0,0.0,0.0,0.0,0.0,0.0,0.0,0.0,0.0,0.0,0.0,0.0,0.0,0.0,0.0,0.0,0.0,0.0,0.0,0.0,0.0,0.0,0.0,0.0,0.0,0.0,0.0,0.0,0.0,0.0,0.0,0.0,0.0,0.0,0.0,0.0,0.0,0.0,0.0,0.0,0.0,0.0,0.0,0.0,0.0,0.0,0.0,0.0,0.0,0.0,0.0,0.0,0.0,0.0,0.0,0.0,0.0,0.0,0.0,0.0,0.0,0.0,0.0,0.0,0.0,0.0,0.0,0.0,0.0,0.0,0.0,0.0,0.0,0.0,0.0,0.0,0.0,0.0,0.0,0.0,0.0,0.0,0.0,0.0,0.0,0.0,0.0,0.0,0.0,0.0,0.0,0.0,0.0,0.0,0.0,0.0,0.0,0.0,0.0,0.0,0.0,0.0,0.0,0.0,0.0,0.0,0.0,0.0,0.0,0.0,0.0,0.0,0.0,0.0,0.0,0.0,0.0,0.0,0.0,0.0,0.0,0.0,0.0,0.0,0.0,0.0,0.0,0.0,0.0,0.0,0.0,0.0,0.0,0.0,0.0,0.0,0.0,0.0,0.0,0.0,0.0,0.0,0.0,0.0,0.0,0.0,0.0,0.0,0.0,0.0,0.0,0.0,0.0,0.0,0.0,0.0,0.0,0.0,0.0,0.0,0.0,0.0,0.0,0.0,0.0,0.0,0.0,0.0,0.0,0.0,0.0,0.0,0.0,0.0,0.0,0.0,0.0,0.0,0.0,0.0,0.0,0.0,0.0,0.0,0.0,0.0,0.0,0.0,0.0,0.0,0.0,0.0,0.0,0.0,0.0,0.0,0.0,0.0,0.0,0.0,0.0,0.0,0.0,0.0,0.0,0.0,0.0,0.0,0.0,0.0,0.0,0.0,0.0,0.0,0.0,0.0,0.0,0.0,0.0,0.0,0.0,0.0,0.0,0.0,0.0,0.0,0.0,0.0,0.0,0.0,0.0,0.0,0.0,0.0,0.0,0.0,0.0,0.0,0.0,0.0,0.0,0.0,0.0,0.0,0.0,0.0,0.0,0.0,0.0,0.0,0.0,0.0,0.0,0.0,0.0,0.0,0.0,0.0,0.0,0.0,0.0,0.0,0.0,0.0,0.0,0.0,0.0,0.0,0.0,0.0,0.0,0.0,0.0,0.0,0.0,0.0,0.0,0.0,0.0,0.0,0.0,0.0,0.0,0.0,0.0,0.0,0.0,0.0,0.0,0.0,0.0,0.0,0.0,0.0,0.0,0.0,0.0,0.0,0.0,0.0,0.0,0.0,0.0,0.0,0.0,0.0,0.0,0.0,0.0,0.0,0.0,0.0,0.0,0.0,0.0,0.0,0.0,0.0,0.0,0.0,0.0,0.0,0.0,0.0,0.0,0.0,0.0,0.0,0.0,0.0,0.0,0.0,0.0,0.0,0.0,0.0,0.0,0.0,0.0,0.0,0.0,0.0,0.0,0.0,0.0,0.0,0.0,0.0,0.0,0.0,0.0,0.0,0.0,0.0,0.0,0.0,0.0,0.0,0.0,0.0,0.0,0.0,0.0,0.0,0.0,0.0,0.0,0.0,0.0,0.0,0.0,0.0,0.0,0.0,0.0,0.0,0.0,0.0,0.0,0.0,0.0,0.0,0.0,0.0,0.0,0.0,0.0,0.0,0.0,0.0,0.0,0.0,0.0,0.0,0.0,0.0,0.0,0.0,0.0,0.0,0.0,0.0,0.0,0.0,0.0,0.0,0.0,0.0,0.0,0.0,0.0,0.0,0.0,0.0,0.0,0.0,0.0,0.0,0.0,0.0,0.0,0.0,0.0,0.0,0.0,0.0,0.0,0.0,0.0,0.0,0.0,0.0,0.0,0.0,0.0,0.0,0.0,0.0,0.0,0.0,0.0,0.0,0.0,0.0,0.0,0.0,0.0,0.0,0.0,0.0,0.0,0.0,0.0,0.0,0.0,0.0,0.0,0.0,0.0,0.0,0.0,0.0,0.0,0.0,0.0,0.0,0.0,0.0,0.0,0.0,0.0,0.0,0.0,0.0,0.0,0.0,0.0,0.0,0.0,0.0,0.0,0.0,0.0,0.0,0.0,0.0,0.0,0.0,0.0,0.0,0.0,0.0,0.0,0.0,0.0,0.0,0.0,0.0,0.0,0.0,0.0,0.0,0.0,0.0,0.0,0.0,0.0,0.0,0.0,0.0,0.0,0.0,0.0,0.0,0.0,0.0,0.0,0.0,0.0,0.0,0.0,0.0,0.0,0.0,0.0,0.0,0.0,0.0,0.0,0.0,0.0,0.0,0.0,0.0,0.0,0.0,0.0,0.0,0.0,0.0,0.0,0.0,0.0,0.0,0.0,0.0,0.0,0.0,0.0,0.0,0.0,0.0,0.0,0.0,0.0,0.0,0.0,0.0,0.0,0.0,0.0,0.0,0.0,0.0,0.0,0.0,0.0,0.0,0.0,0.0,0.0,0.0,0.0,0.0,0.0,0.0,0.0,0.0,0.0,0.0,0.0,0.0,0.0,0.0,-4.5513,0.0,0.0,0.0,0.0,0.0,0.0,0.0,0.0,0.0,0.0,0.0,0.0,0.0,0.0,0.0,0.0,0.0,0.0,0.0,0.0,0.0,0.0,0.0,0.0,0.0,0.0,0.0,0.0,0.0,0.0,0.0,0.0,0.0,0.0,0.0,0.0,0.0,0.0,-3.5359,-3.5261,-3.5213,-3.5213,-3.6024,-3.643,-3.6461,0.0,0.0,0.0,0.0,0.0,0.0,0.0,0.0,0.0,0.0,0.0,0.0,0.0,0.0,0.0,0.0,0.0,0.0,0.0,0.0,0.0,0.0,0.0,0.0,0.0,0.0,0.0,0.0,0.0,0.0,0.0,0.0,0.0,0.0,0.0,0.0,0.0,0.0,0.0,0.0,0.0,0.0,0.0,0.0,0.0,0.0,0.0,0.0,0.0,0.0,0.0,0.0,0.0,0.0,0.0,0.0,0.0,0.0,0.0,0.0,0.0,0.0,0.0,0.0,0.0,0.0,0.0,0.0,0.0,0.0,0.0,-4.5029,0.0,0.0,0.0,0.0,0.0,0.0,0.0,0.0,0.0,0.0,0.0,0.0,0.0,0.0,0.0,0.0,0.0,0.0,0.0,0.0,0.0,0.0,0.0,-3.1385,-3.1792,-3.1792,-3.2268,-3.289,0.0,0.0,0.0,0.0,0.0,0.0,-3.4491,-3.4639,-3.4787,-3.4968,-3.4902,-3.4868,-3.4902,-3.4868,-3.5198,-3.5814,-3.5814,0.0,0.0,0.0,0.0,0.0,0.0,0.0,0.0,0.0,0.0,0.0,0.0,0.0,0.0,0.0,0.0,0.0,0.0,0.0,0.0,0.0,0.0,0.0,0.0,0.0,0.0,0.0,0.0,0.0,0.0,0.0,0.0,0.0,0.0,0.0,0.0,0.0,0.0,0.0,0.0,0.0,0.0,0.0,0.0,0.0,0.0,0.0,0.0,0.0,0.0,0.0,0.0,0.0,0.0,0.0,0.0,0.0,0.0,0.0,0.0,0.0,0.0,0.0,-4.5951,-4.6099,-4.6123,-4.642,-4.6538,-4.6425,-4.5329,-4.4325,-4.3454,-4.3018,0.0,0.0,0.0,0.0,0.0,0.0,0.0,0.0,0.0,0.0,0.0,0.0,0.0,0.0,0.0,0.0,0.0,0.0,0.0,-3.0529,-3.1712,-3.2228,-3.2483,-3.2483,-3.2552,-3.2642,-3.2749,0.0,0.0,0.0,0.0,0.0,-3.289,-3.3596,-3.3968,-3.3968,-3.4467,-3.4783,-3.4902,-3.4783,-3.485,-3.5067,-3.5067,-3.5067,-3.5067,0.0,0.0,0.0,0.0,0.0,0.0,0.0,0.0,0.0,0.0,0.0,0.0,0.0,0.0,0.0,0.0,0.0,0.0,0.0,0.0,0.0,0.0,0.0,0.0,0.0,0.0,0.0,0.0,0.0,0.0,0.0,0.0,0.0,0.0,0.0,0.0,0.0,0.0,0.0,0.0,0.0,-3.8914,-3.9088,0.0,0.0,0.0,0.0,0.0,0.0,0.0,0.0,0.0,0.0,0.0,0.0,0.0,-4.5433,-4.5355,-4.5355,-4.5355,-4.5355,-4.4784,-4.4506,-4.4489,-4.3912,-4.3666,-4.3617,-4.298,0.0,-4.5596,-4.3136,0.0,0.0,0.0,0.0,0.0,0.0,0.0,0.0,0.0,0.0,0.0,0.0,0.0,0.0,0.0,0.0,0.0,0.0,0.0,0.0,0.0,-3.0215,-3.0606,-3.0606,-3.0606,-3.0701,-3.0861,-3.1239,0.0,0.0,-3.2099,-3.2313,-3.2313,-3.267,-3.2826,-3.2826,-3.3178,-3.3353,-3.3332,-3.3276,-3.3276,-3.3332,-3.3332,-3.3899,-3.4902,-3.4539,0.0,0.0,0.0,0.0,0.0,0.0,0.0,0.0,0.0,0.0,0.0,0.0,0.0,0.0,0.0,0.0,0.0,0.0,0.0,0.0,0.0,0.0,0.0,0.0,0.0,0.0,0.0,0.0,0.0,0.0,0.0,0.0,0.0,0.0,0.0,0.0,0.0,0.0,0.0,-3.8942,-3.8942,-3.8996,-3.8996,-3.9374,0.0,0.0,0.0,0.0,0.0,0.0,0.0,0.0,0.0,-4.4684,-4.432,-4.4094,-4.4066,-4.368,-4.368,-4.4066,-4.4152,-4.4164,-4.4075,-4.3734,-4.3545,-4.3434,-4.2451,-4.2664,-4.364,-4.2484,-4.2236,-4.2586,0.0,0.0,0.0,0.0,-4.1985,-4.1886,0.0,0.0,0.0,0.0,0.0,0.0,0.0,0.0,0.0,0.0,0.0,0.0,-2.736,-2.8092,-2.8557,-2.8557,-2.8631,-2.8784,-2.8959,-2.9476,-2.9977,-3.0276,-3.0818,-3.1196,-3.1341,-3.1526,-3.1746,-3.1965,-3.2046,-3.2046,-3.1965,-3.1965,-3.1965,-3.2001,-3.1819,-3.2648,-3.4153,-3.363,-3.3734,-3.4206,0.0,0.0,0.0,0.0,0.0,0.0,0.0,0.0,0.0,0.0,0.0,0.0,0.0,0.0,0.0,0.0,0.0,0.0,0.0,0.0,0.0,0.0,0.0,0.0,0.0,0.0,0.0,0.0,0.0,0.0,0.0,0.0,0.0,0.0,0.0,0.0,0.0,-3.8876,-3.886,-3.8942,-3.9095,-3.9545,0.0,0.0,0.0,0.0,0.0,0.0,-4.363,-4.382,-4.382,-4.3688,-4.3366,-4.3144,-4.3096,-4.2605,-4.2605,-4.3096,-4.3481,-4.3568,-4.3477,-4.3304,-4.3182,-4.3041,-4.2205,-4.1833,-4.1771,-4.1577,-4.1464,-4.1485,-4.1685,-4.1818,-4.1921,-4.1766,-4.1705,-4.1627,0.0,0.0,0.0,0.0,0.0,0.0,0.0,0.0,0.0,0.0,0.0,-2.5772,-2.6146,-2.6743,-2.7121,-2.7121,-2.7388,-2.7582,-2.7582,-2.7644,-2.7891,-2.8409,-2.8458,-2.8717,-2.9236,-2.9986,-3.0745,-3.1536,-3.1536,-3.1536,-3.1536,-3.1536,-3.1623,-3.1796,-3.102,-3.1267,-3.2254,-3.2335,-3.2393,-3.2464,-3.2607,0.0,0.0,0.0,0.0,0.0,0.0,0.0,0.0,0.0,0.0,0.0,0.0,0.0,0.0,0.0,0.0,0.0,0.0,0.0,0.0,0.0,0.0,0.0,0.0,0.0,0.0,0.0,0.0,0.0,0.0,0.0,0.0,0.0,0.0,0.0,0.0,0.0,0.0,-3.8777,-3.9331,0.0,0.0,0.0,0.0,-4.2998,-4.2504,-4.219,-4.2219,-4.2219,-4.2219,-4.2219,-4.278,-4.3094,-4.3113,-4.308,-4.308,-4.3096,-4.2422,-4.2124,-4.2078,-4.1435,-4.1169,-4.1156,-4.1734,-4.1907,-4.1705,-4.0508,-4.031,-4.0672,-4.0022,-4.0011,-4.0336,-3.9781,-3.9563,-3.9475,0.0,0.0,0.0,0.0,0.0,0.0,0.0,0.0,-2.176,-2.217,-2.3042,-2.3687,-2.3844,-2.4556,-2.5054,-2.5211,-2.5189,-2.5145,-2.5055,-2.5379,-2.5923,-2.6797,-2.7308,-2.8062,-2.9079,-2.9392,-2.969,-2.9973,-2.9973,-2.9973,-2.9973,-2.9973,-3.0012,-3.0063,-2.9755,-2.9832,-3.0241,-3.1068,-3.1696,-3.2132,-3.1683,-3.1829,0.0,0.0,0.0,0.0,0.0,0.0,0.0,0.0,0.0,0.0,0.0,0.0,0.0,0.0,0.0,0.0,0.0,0.0,0.0,0.0,0.0,0.0,0.0,0.0,0.0,0.0,0.0,0.0,0.0,0.0,0.0,0.0,0.0,0.0,0.0,0.0,0.0,-3.8777,-3.8912,0.0,-4.027,-4.0467,-4.0838,-4.1556,-4.1801,-4.1915,-4.1915,-4.243,-4.2692,-4.2617,-4.2405,-4.2441,-4.2774,-4.2349,-4.2349,-4.2774,-4.2653,-4.2523,-4.2367,-4.1776,-4.148,-4.1374,-4.1146,-4.1019,-4.0926,-4.0466,-4.0939,-4.1887,-4.1625,-4.1612,-4.1741,-4.154,-4.1174,-4.0782,0.0,0.0,0.0,0.0,0.0,0.0,0.0,-2.0068,-2.0335,-2.0557,-2.1364,-2.1987,-2.2125,-2.2756,-2.325,-2.3369,-2.3378,-2.3309,-2.3226,-2.3613,-2.4249,-2.5081,-2.6321,-2.7542,-2.8764,-2.8855,-2.8895,-2.8895,-2.8895,-2.8895,-2.8895,-2.8895,-2.8934,-2.9013,-2.9013,-2.9052,-2.917,-2.9935,-3.0607,-3.1044,-3.0494,-3.0607,-3.1044,0.0,0.0,0.0,0.0,0.0,0.0,0.0,0.0,0.0,0.0,0.0,0.0,0.0,0.0,0.0,0.0,0.0,0.0,0.0,0.0,0.0,0.0,0.0,0.0,0.0,0.0,0.0,0.0,0.0,0.0,0.0,0.0,0.0,0.0,0.0,-3.8347,-3.8683,-3.8642,-3.8897,-3.9756,-4.0131,-4.0531,-4.1048,-4.1474,-4.1717,-4.1717,-4.2278,-4.2539,-4.2463,-4.2205,-4.2241,-4.2602,-4.2164,-4.2164,-4.2602,-4.2744,-4.2728,-4.2586,-4.2241,-4.2014,-4.1905,-4.1419,-4.1209,-4.1209,-4.1209,-4.1776,-4.2554,-4.2068,-4.1874,-4.1874,-4.1874,-4.1614,-4.1207,0.0,0.0,0.0,0.0,0.0,0.0,-1.9566,-1.9597,-1.9816,-2.046,-2.0557,-2.0709,-2.1097,-2.1497,-2.1709,-2.1709,-2.2032,-2.2215,-2.2215,-2.2403,-2.2767,-2.3405,-2.5408,-2.7039,-2.8167,-2.8391,-2.8471,-2.8471,-2.851,-2.851,-2.851,-2.851,-2.8618,-2.8803,-2.8803,-2.8882,-2.9091,-2.9091,-2.9091,-2.9091,-2.9091,-2.9091,-2.9131,0.0,0.0,0.0,0.0,0.0,0.0,0.0,0.0,0.0,0.0,0.0,0.0,0.0,0.0,0.0,0.0,0.0,0.0,0.0,0.0,0.0,0.0,0.0,0.0,0.0,0.0,0.0,0.0,0.0,0.0,0.0,0.0,0.0,-3.7207,-3.7371,-3.7682,-3.8432,-3.851,-3.8806,-3.9592,-4.0797,-4.1547,-4.1563,-4.1596,-4.1596,-4.1596,-4.1628,-4.1628,-4.1628,-4.2278,-4.2602,-4.2602,-4.2602,-4.2602,-4.2602,-4.2602,-4.2602,-4.2602,-4.2602,-4.2602,-4.2602,-4.2602,-4.2602,-4.2602,-4.2602,-4.2602,-4.2457,-4.1096,-4.0561,-4.0561,-4.0561,-4.0545,-4.0432,0.0,0.0,0.0,0.0,0.0,0.0,-1.9262,-1.9381,-1.9466,-1.9617,-1.9675,-1.9712,-1.9823,-1.9921,-2.0053,-2.0191,-2.0176,-2.0255,-2.0537,-2.0469,-2.1409,-2.3677,-2.5514,-2.6984,-2.795,-2.8191,-2.8259,-2.8259,-2.8431,-2.851,-2.851,-2.851,-2.855,-2.8578,-2.8578,-2.8618,-2.8657,-2.8657,-2.8657,-2.8709,-2.8973,-2.9091,-2.9091,0.0,0.0,0.0,0.0,0.0,0.0,0.0,0.0,0.0,0.0,0.0,0.0,0.0,0.0,0.0,0.0,0.0,0.0,0.0,0.0,0.0,0.0,0.0,0.0,0.0,0.0,0.0,0.0,0.0,0.0,0.0,0.0,-3.5901,-3.6213,-3.6768,-3.7086,-3.6813,-3.7766,-3.8531,-3.879,-3.9594,-4.0299,-4.0756,-4.1304,-4.1596,-4.1596,-4.2067,-4.2342,-4.2342,-4.2489,-4.2602,-4.2602,-4.2602,-4.2602,-4.2602,-4.2602,-4.2602,-4.2602,-4.2602,-4.2602,-4.2602,-4.2602,-4.2602,-4.2602,-4.2602,-4.2602,-4.2554,-4.2166,-4.2004,-4.2004,-4.2004,-4.1711,-4.1207,0.0,0.0,0.0,0.0,0.0,0.0,-1.8367,-1.8487,-1.8656,-1.8993,-1.9042,-1.9042,-1.9042,-1.9112,-1.9231,-1.932,-1.9311,-1.9381,-1.9618,-1.9795,-2.1043,-2.3652,-2.4987,-2.6322,-2.7696,-2.795,-2.807,-2.807,-2.8191,-2.8243,-2.8243,-2.8243,-2.8243,-2.8243,-2.8351,-2.8379,-2.8379,-2.8471,-2.851,-2.851,-2.8736,-2.8855,-2.8855,-2.8934,-2.8961,-2.9118,-3.0355,-3.1095,-3.1663,-3.281,0.0,0.0,0.0,0.0,0.0,0.0,0.0,0.0,0.0,0.0,0.0,0.0,0.0,0.0,0.0,0.0,0.0,0.0,0.0,0.0,0.0,0.0,0.0,0.0,-3.4308,-3.4751,-3.4751,-3.5565,-3.6275,-3.6477,-3.7078,-3.7667,-3.8228,-3.9012,-3.9581,-3.9882,-4.0928,-4.1564,-4.1564,-4.2234,-4.2602,-4.2602,-4.2602,-4.2602,-4.2602,-4.2602,-4.2602,-4.2602,-4.2602,-4.2602,-4.2602,-4.2602,-4.2539,-4.2397,-4.2397,-4.2302,-4.2174,-4.2174,-4.2174,0.0,0.0,0.0,0.0,0.0,-4.2327,-4.1905,0.0,0.0,0.0,0.0,0.0,0.0,-1.705,-1.7252,-1.7624,-1.8421,-1.859,-1.8647,-1.8692,-1.8851,-1.8962,-1.8962,-1.9112,-1.9231,-1.9231,-1.9854,-2.1182,-2.3423,-2.4172,-2.5434,-2.7429,-2.7708,-2.7841,-2.7841,-2.7893,-2.7893,-2.7893,-2.7893,-2.7893,-2.7933,-2.8111,-2.8179,-2.8179,-2.8351,-2.8431,-2.8431,-2.8431,-2.8471,-2.851,-2.8685,-2.8764,-2.8988,-3.0683,-3.1368,-3.1649,-3.3178,0.0,0.0,0.0,0.0,0.0,0.0,0.0,0.0,0.0,0.0,0.0,0.0,0.0,0.0,0.0,0.0,0.0,0.0,0.0,0.0,0.0,0.0,0.0,0.0,-3.3431,-3.329,-3.329,-3.4133,-3.5222,-3.6569,-3.6317,-3.6544,-3.7762,-3.8699,-3.9217,-3.9184,-4.0484,-4.1311,-4.1311,0.0,0.0,0.0,0.0,-4.2429,-4.2508,-4.2508,-4.2508,-4.2508,-4.2508,-4.2508,-4.2508,-4.2508,-4.2302,-4.2045,-4.2045,-4.1883,-4.1588,-4.1588,-4.1555,-4.1573,-4.2238,-4.2508,-4.2508,-4.2508,-4.2508,-4.2411,0.0,0.0,0.0,0.0,0.0,0.0,-1.5813,-1.65,-1.7032,-1.7285,-1.7852,-1.8337,-1.8665,-1.874,-1.8772,-1.8772,-1.8772,-1.8812,-1.8812,-1.9678,-2.1046,-2.294,-2.3992,-2.5377,-2.7219,-2.7452,-2.7563,-2.7563,-2.7788,-2.7893,-2.7893,-2.7893,-2.7893,-2.7893,-2.7921,-2.7962,-2.7962,-2.8002,-2.8002,-2.8002,-2.8002,-2.8203,-2.851,-2.855,-2.8538,-2.8697,-2.9704,-3.0456,-3.1156,-3.2123,-3.2881,-3.3431,-3.3431,-3.3431,0.0,0.0,0.0,0.0,0.0,0.0,0.0,0.0,0.0,0.0,0.0,0.0,0.0,0.0,0.0,0.0,0.0,0.0,0.0,-3.3361,-3.3326,-3.329,-3.329,-3.3486,-3.3785,-3.4235,-3.5198,-3.6152,-3.6967,-3.7703,-3.853,-3.9606,-3.9943,-4.0109,-4.0109,-4.0247,-4.0572,-4.1062,-4.1078,-4.1294,-4.1785,-4.1785,-4.1785,-4.1785,0.0,0.0,-4.1785,-4.1785,-4.1753,-4.1687,-4.1687,-4.1654,-4.1588,-4.1588,-4.1325,-4.0943,-4.1557,-4.1785,-4.1785,-4.1785,-4.1785,-4.1754,0.0,0.0,0.0,0.0,0.0,0.0,-1.4186,-1.4719,-1.5247,-1.5717,-1.6425,-1.7032,-1.746,-1.7956,-1.832,-1.8514,-1.8652,-1.87,-1.87,-1.9511,-2.0796,-2.2503,-2.3697,-2.5084,-2.6787,-2.7167,-2.733,-2.733,-2.7464,-2.7557,-2.7557,-2.7557,-2.7557,-2.7557,-2.7667,-2.7708,-2.7708,-2.7841,-2.7893,-2.7893,-2.7893,-2.8002,-2.8203,-2.8311,-2.8339,-2.8459,-2.9367,-3.0228,-3.1007,-3.1819,-3.2618,-3.3241,-3.3051,-3.3016,-3.298,0.0,0.0,0.0,0.0,0.0,0.0,0.0,0.0,0.0,0.0,0.0,0.0,0.0,0.0,-3.329,0.0,0.0,-3.329,-3.329,-3.329,-3.329,-3.329,-3.329,-3.3521,-3.4045,-3.4724,-3.5419,-3.6079,-3.681,-3.7493,-3.8047,-3.8807,-3.9239,-3.9239,-3.9596,-3.9934,-4.0228,-4.0263,-4.0401,-4.0706,-4.0992,-4.0992,-4.0706,-4.0992,-4.0992,-4.0706,-4.0706,-4.0619,-4.0447,-4.0447,-4.0343,-4.0185,-4.0185,-4.003,-3.9768,-4.0065,-4.0413,-4.0706,-4.0706,-4.0706,-4.0706,0.0,0.0,0.0,0.0,0.0,0.0,0.0,-1.2857,-1.3328,-1.4125,-1.5057,-1.5816,-1.6261,-1.7212,-1.7991,-1.8296,-1.8491,-1.8571,-1.8571,-1.9294,-2.0428,-2.1981,-2.3275,-2.4638,-2.6133,-2.6674,-2.6933,-2.6933,-2.7015,-2.7056,-2.7056,-2.7149,-2.719,-2.7231,-2.7371,-2.7441,-2.7441,-2.7667,-2.776,-2.776,-2.776,-2.776,-2.7812,-2.7978,-2.8099,-2.8259,-2.925,-2.9999,-3.0694,-3.1586,-3.2354,-3.286,-3.2632,-3.2596,-3.2525,-3.22,-3.2092,0.0,0.0,0.0,0.0,0.0,0.0,0.0,0.0,0.0,-3.31,-3.3171,-3.3171,-3.3206,-3.329,-3.329,-3.329,-3.329,-3.329,-3.329,-3.329,-3.329,-3.3577,-3.4274,-3.4303,-3.4519,-3.5166,-3.5841,-3.6239,-3.633,-3.7509,-3.8237,-3.8354,-3.8913,-3.9311,-3.9418,-3.9418,-3.9489,-3.9596,-4.0104,-4.0104,-3.9596,-4.0104,-4.0069,-3.9611,-3.9611,-3.9484,-3.9211,-3.9211,-3.9045,-3.8782,-3.8782,-3.8708,-3.8634,-3.8634,-3.8884,-3.926,-3.9525,-3.9611,-3.9581,0.0,0.0,0.0,0.0,0.0,0.0,0.0,0.0,-1.2395,-1.2772,-1.4331,-1.5653,-1.6221,-1.7279,-1.7997,-1.8031,-1.808,-1.808,-1.808,-1.8993,-1.9996,-2.1029,-2.2627,-2.3943,-2.4957,-2.5695,-2.6074,-2.6074,-2.6415,-2.6569,-2.6569,-2.7003,-2.719,-2.719,-2.7231,-2.7231,-2.7231,-2.7272,-2.7272,-2.7272,-2.7272,-2.7272,-2.7313,-2.7482,-2.7736,-2.8042,-2.8858,-2.9238,-2.9498,-3.0844,-3.1365,-3.1526,-3.2005,-3.2164,-3.2164,-3.2092,-3.2092,-3.2092,-3.2092,-3.2092,-3.2092,-3.2092,-3.2128,-3.2164,0.0,0.0,-3.2359,-3.2704,-3.2775,-3.2895,-3.3241,-3.329,-3.329,-3.329,-3.329,-3.329,-3.329,-3.329,-3.3361,-3.3417,-3.3438,-3.3656,-3.4276,-3.4423,-3.4936,-3.6071,-3.6273,-3.6618,-3.7169,-3.7275,-3.7567,-3.8098,-3.8098,-3.836,-3.8914,-3.8987,-3.8987,-3.8914,-3.8987,-3.8987,-3.8914,-3.8914,-3.8877,-3.8855,-3.8855,-3.8819,-3.8782,-3.8782,-3.8486,-3.8,-3.8,-3.7734,-3.7453,-3.8509,-3.8914,-3.884,0.0,0.0,0.0,0.0,0.0,0.0,0.0,0.0,-1.1236,-1.1344,-1.256,-1.3775,-1.4614,-1.6461,-1.7757,-1.8,-1.8,-1.8085,-1.834,-1.8946,-1.9771,-2.0799,-2.2385,-2.3607,-2.4382,-2.5359,-2.5895,-2.5895,-2.6052,-2.6135,-2.6177,-2.6354,-2.6561,-2.6787,-2.6787,-2.6921,-2.719,-2.719,-2.719,-2.719,-2.719,-2.719,-2.7231,-2.7301,-2.7383,-2.7557,-2.8179,-2.8712,0.0,-2.9794,-3.0544,-3.1217,-3.1206,-3.1492,-3.1776,-3.1519,-3.1445,-3.1445,-3.1445,-3.1445,-3.1445,-3.1445,-3.1629,-3.1813,-3.1813,-3.1946,-3.2164,-3.2309,-3.2345,-3.2381,-3.2574,-3.261,-3.261,0.0,-3.261,-3.261,-3.261,-3.2789,-3.2931,-3.2931,-3.3171,-3.3389,-3.3641,-3.3992,-3.4413,-3.4955,-3.5672,-3.6216,-3.6469,-3.6796,-3.7134,-3.7366,-3.7366,-3.7519,-3.7734,-3.8113,-3.8113,-3.7772,-3.8113,-3.8075,-3.7734,-3.7734,-3.7734,-3.7734,-3.7734,-3.7734,-3.7734,-3.7734,-3.7582,-3.7366,-3.7366,-3.7211,-3.7056,-3.7582,-3.7734,-3.7648,0.0,0.0,0.0,0.0,0.0,0.0,0.0,0.0,0.0,0.0,-1.1395,-1.2629,-1.4038,-1.6009,-1.7392,-1.7797,-1.7838,-1.8031,-1.8562,-1.8998,-1.96,-2.0455,-2.2045,-2.3129,-2.3607,-2.485,-2.5517,-2.5517,-2.5644,-2.5728,-2.5728,-2.5853,-2.6063,-2.6332,-2.6332,-2.6509,-2.685,-2.6974,-2.7015,-2.7015,-2.7149,-2.719,-2.719,-2.719,-2.719,-2.7231,-2.7557,-2.8099,-2.8581,-2.8779,-2.9537,-3.0355,-3.0215,-3.0507,-3.091,-3.0772,-3.0874,-3.0986,-3.0986,-3.0986,-3.0986,-3.0986,-3.1235,-3.1421,-3.1421,-3.1629,-3.185,-3.1946,-3.1946,-3.1982,-3.2092,-3.2092,-3.2092,-3.2092,-3.2092,-3.2092,-3.2092,-3.2345,-3.2525,-3.2525,-3.2789,-3.298,-3.298,-3.3577,-3.402,-3.4189,-3.5054,-3.5714,-3.6089,-3.6525,-3.681,-3.6978,-3.6978,-3.6978,-3.6978,-3.7429,-3.7429,-3.7017,-3.7429,-3.7429,-3.6978,-3.6978,-3.6978,-3.6978,-3.6978,-3.6978,-3.6978,-3.6978,-3.6978,-3.6978,-3.6978,-3.6978,-3.6978,-3.6978,-3.6978,-3.6866,0.0,0.0,0.0,0.0,0.0,0.0,0.0,0.0,0.0,0.0,0.0,-1.3147,-1.5386,-1.6288,-1.6902,-1.7392,-1.7432,-1.7745,-1.8562,-1.8998,-1.9341,-1.9727,-2.144,-2.2438,-2.2438,-2.3831,-2.454,-2.454,-2.4999,-2.52,-2.5242,-2.5686,-2.5895,-2.5937,-2.5937,-2.5937,-2.5979,-2.6373,-2.6528,-2.6569,-2.7015,-2.719,-2.719,-2.719,-2.719,-2.719,-2.7231,-2.7231,-2.7342,-2.8018,-2.8259,-2.8407,-2.8964,-2.916,-2.9277,-2.9883,-3.047,-3.0986,-3.0986,-3.0986,-3.0986,-3.0986,-3.1024,-3.1024,-3.1024,-3.1024,-3.1123,-3.1519,-3.1629,-3.1703,-3.2019,-3.2092,-3.2092,-3.2092,-3.2092,-3.2092,-3.2092,-3.2092,-3.2128,-3.2128,-3.2128,-3.2128,0.0,-3.2852,-3.3557,-3.4161,-3.4231,-3.4815,-3.6047,-3.6131,-3.6413,-3.6964,-3.6978,-3.6978,-3.6978,-3.7017,-3.7017,-3.6978,-3.7017,-3.7017,-3.6978,-3.6978,-3.6978,-3.6978,-3.6978,-3.6978,-3.6978,-3.6978,-3.6978,-3.6978,-3.6978,-3.6978,-3.6978,-3.6978,-3.6978,-3.681,0.0,0.0,0.0,0.0,0.0,0.0,0.0,0.0,0.0,0.0,0.0,0.0,0.0,0.0,0.0,0.0,-1.716,-1.7484,-1.8036,-1.8412,-1.9037,-2.0041,-2.0513,-2.1329,-2.2652,-2.3071,-2.3637,-2.4282,-2.4583,-2.4743,-2.4743,-2.4882,-2.5137,-2.5422,-2.5422,-2.5591,-2.5895,-2.6052,-2.6093,-2.6135,-2.6271,-2.6365,-2.6365,-2.6365,-2.6365,-2.6365,0.0,-2.6685,-2.7231,-2.7464,-2.7817,-2.8259,-2.8447,-2.9055,-2.9832,-3.047,-3.0823,-3.0986,-3.0986,-3.0986,-3.0986,-3.0986,-3.0986,-3.0986,-3.0986,-3.0986,-3.1061,-3.1161,-3.1198,-3.1235,-3.1347,-3.1384,-3.1384,-3.1384,-3.1384,-3.1384,-3.1384,-3.1593,-3.1776,-3.1776,-3.1946,0.0,0.0,0.0,0.0,-3.2791,-3.3431,-3.4048,-3.4623,-3.5256,-3.5806,-3.6137,-3.6151,-3.6151,-3.6151,-3.6151,-3.6151,-3.6151,-3.6151,-3.6151,-3.6151,-3.6151,-3.6151,-3.6151,-3.6151,-3.6151,-3.6151,-3.6151,-3.6151,-3.6151,-3.6151,-3.6151,-3.6151,-3.6151,-3.6151,-3.6065,0.0,0.0,0.0,0.0,0.0,0.0,0.0,0.0,0.0,0.0,0.0,0.0,0.0,0.0,0.0,0.0,0.0,-1.7247,-1.793,-1.8168,-1.8725,-1.9729,-2.0175,-2.0979,-2.2246,-2.2799,-2.342,-2.4067,-2.4196,-2.4282,-2.4368,-2.4368,-2.4583,-2.4956,-2.4956,-2.5126,-2.5433,-2.5591,-2.5633,-2.5675,-2.5812,-2.5895,-2.5895,-2.5895,-2.5895,0.0,-2.5895,-2.6271,-2.6727,-2.6727,-2.7003,-2.736,-2.736,-2.8063,-2.8978,-2.9742,-3.0177,-3.0495,-3.0798,-3.0949,-3.0986,-3.0986,-3.0986,-3.0986,-3.0986,-3.0986,-3.0986,-3.0986,-3.0986,-3.0986,-3.0986,-3.0986,-3.0986,-3.0986,-3.0986,-3.0986,-3.0986,-3.1235,-3.1384,-3.1384,-3.1593,-3.1703,0.0,0.0,0.0,-3.2092,-3.27,-3.3311,-3.3851,-3.4503,-3.5104,-3.5696,-3.571,-3.571,-3.571,-3.571,-3.571,-3.571,-3.571,-3.571,-3.571,-3.571,-3.571,-3.571,-3.571,-3.571,-3.571,-3.571,-3.571,-3.571,-3.571,-3.571,-3.571,-3.571,-3.571,-3.5627,0.0,0.0,0.0,0.0,0.0,0.0,0.0,0.0,0.0,0.0,0.0,0.0,0.0,0.0,0.0,0.0,0.0,0.0,-1.8166,-1.8229,-1.8425,-1.8765,-2.0257,-2.115,-2.1338,-2.2853,-2.3657,-2.3797,-2.3797,-2.3927,-2.4163,-2.4206,-2.4282,-2.4497,-2.4497,-2.4497,-2.454,-2.4999,-2.5158,-2.52,-2.5644,-2.5822,-2.5822,-2.5822,-2.5822,-2.5822,-2.5822,-2.5822,-2.5853,-2.5895,-2.5895,-2.5906,-2.5937,-2.6362,-2.6976,-2.7896,-2.873,-2.9575,-3.0457,-3.0798,-3.0986,-3.0986,-3.0986,-3.0986,-3.0986,-3.0986,-3.0986,-3.0986,-3.0986,-3.0986,-3.0986,-3.0986,-3.0986,-3.0986,-3.0986,-3.0986,-3.0986,-3.1013,-3.1026,0.0,0.0,0.0,0.0,0.0,0.0,-3.1954,0.0,-3.261,-3.3801,-3.3908,-3.445,-3.5602,-3.5629,-3.5629,-3.5629,-3.5629,-3.5629,-3.5629,-3.5629,-3.5629,-3.5629,-3.5629,-3.5629,-3.5629,-3.5629,-3.5629,-3.5629,-3.5629,-3.5588,-3.5588,-3.5588,-3.5548,-3.5548,-3.5548,-3.5548,-3.5372,0.0,0.0,0.0,0.0,0.0,0.0,0.0,0.0,0.0,0.0,0.0,0.0,0.0,0.0,0.0,0.0,0.0,0.0,-1.7251,-1.7445,-1.7933,-1.875,-1.8473,-1.933,-2.1561,-2.1498,-2.2129,-2.359,-2.3711,-2.3841,-2.3894,-2.412,-2.4249,-2.4282,-2.4411,-2.4497,-2.4497,-2.4625,-2.4658,-2.4711,-2.4796,-2.4839,-2.4839,-2.4839,-2.4839,-2.4839,-2.4839,-2.4839,-2.4967,-2.5644,-2.5895,-2.5979,-2.6434,-2.6659,-2.7058,-2.8426,-2.8991,-2.9355,-3.0241,-3.052,-3.0558,-3.0558,-3.0685,-3.0773,-3.0773,-3.0874,-3.0986,-3.0986,-3.0986,-3.0986,-3.0986,-3.0986,-3.0986,-3.0986,-3.0986,0.0,-3.0986,-3.1352,0.0,-3.1588,0.0,-3.1518,-3.1518,-3.0999,0.0,0.0,-3.181,-3.2728,-3.3648,-3.3914,-3.4246,-3.4703,-3.4729,-3.4729,-3.4729,-3.4729,-3.4729,-3.4729,-3.4729,-3.4729,-3.4729,-3.4729,-3.4729,-3.4729,-3.4729,-3.4729,-3.4729,-3.4729,-3.4439,-3.3979,-3.3979,-3.3658,-3.3164,-3.3164,-3.3164,-3.3063,0.0,0.0,0.0,0.0,0.0,0.0,0.0,0.0,0.0,0.0,0.0,0.0,0.0,0.0,0.0,0.0,0.0,0.0,0.0,-1.723,-1.7552,-1.8102,-1.8419,-1.933,-2.1006,-2.1463,-2.2227,-2.3319,-2.3038,-2.3125,-2.3667,-2.3387,-2.357,-2.4206,-2.4335,-2.4421,-2.4497,-2.4497,-2.4497,0.0,0.0,-2.4497,-2.4497,-2.4497,-2.4497,-2.4497,-2.4497,-2.4497,-2.4583,-2.5094,-2.5306,-2.5338,-2.5684,-2.5799,-2.6038,-2.729,-2.7695,-2.7988,-2.8873,-2.9186,-2.9264,-2.9264,-2.9639,-2.9896,-2.951,-2.9832,-3.0114,-2.9909,-2.9858,-2.9986,-3.047,-3.0343,-3.0343,0.0,0.0,0.0,-3.0842,-3.0931,-3.1055,0.0,-3.1238,0.0,-3.1223,-3.084,-3.0719,0.0,-3.1372,-3.1932,-3.2648,-3.288,-3.311,-3.3462,-3.3488,-3.3488,-3.3488,-3.3488,-3.3488,-3.3488,-3.3488,-3.3488,-3.3488,-3.3488,-3.3488,-3.3488,0.0,-3.3488,-3.3488,-3.3488,-3.3275,-3.2945,-3.2945,-3.2673,-3.2302,-3.2302,-3.2302,-3.2228,0.0,0.0,0.0,0.0,0.0,0.0,0.0,0.0,0.0,0.0,-1.2546,0.0,0.0,0.0,0.0,0.0,0.0,0.0,0.0,0.0,-1.7279,-1.7279,-1.8918,-1.9869,-2.0005,-2.1686,-2.2599,-2.2731,-2.1917,-2.2059,-2.3047,-2.2217,-2.2482,-2.3744,-2.3927,-2.41,-2.4272,-2.4454,-2.4497,-2.4497,-2.4497,-2.4497,-2.4497,0.0,-2.4497,-2.4497,-2.4497,-2.4497,-2.4497,-2.4497,-2.4497,-2.4497,-2.4497,-2.4497,-2.4658,-2.5537,-2.5902,-2.6276,-2.718,-2.7574,-2.7723,-2.7723,-2.8307,-2.8676,-2.7924,-2.8374,-2.8794,-2.8414,-2.8335,-2.8624,-2.9588,-2.9355,-2.9394,-3.0545,0.0,-2.9475,-3.0509,-3.0313,-3.0184,-3.067,-3.0709,-3.0675,-3.0675,-3.0591,-3.0743,-3.1272,-3.0858,-3.084,-3.1583,-3.1608,-3.1804,-3.2289,-3.2302,-3.2302,-3.2302,-3.2302,-3.2302,-3.2302,-3.2302,-3.2302,-3.2302,-3.2302,-3.2302,-3.2302,-3.2302,0.0,-3.2302,-3.2302,-3.2271,-3.2183,-3.2183,-3.2096,-3.2008,-3.2008,-3.2008,-3.1935,0.0,0.0,0.0,0.0,0.0,0.0,0.0,0.0,0.0,0.0,-1.2546,-1.3549,0.0,0.0,0.0,0.0,0.0,0.0,0.0,0.0,0.0,-1.7279,-1.7598,-1.8195,-1.9018,-1.9376,-1.9923,-2.0683,-2.0548,-2.0557,-2.0773,-2.0818,-2.0998,-2.1266,-2.2429,-2.2965,-2.3096,-2.409,-2.4497,-2.4497,-2.4497,-2.4497,-2.4497,-2.4497,0.0,0.0,-2.4497,-2.4497,-2.4497,-2.4497,-2.4497,-2.4497,-2.4497,-2.4497,-2.4658,-2.5537,-2.5819,-2.6027,-2.6946,-2.718,-2.7221,-2.7221,-2.7504,-2.7747,-2.7585,-2.7815,0.0,-2.7924,-2.7924,-2.8044,-2.8585,-2.8585,-2.8715,-2.9316,0.0,0.0,0.0,0.0,-3.0778,0.0,0.0,0.0,0.0,0.0,0.0,0.0,0.0,-3.0823,-3.208,-3.2167,-3.2216,-3.2302,-3.2302,-3.2302,-3.2302,-3.2302,-3.2302,-3.2302,-3.2302,-3.2302,-3.2302,-3.2302,-3.2302,-3.2302,-3.2302,0.0,-3.2302,-3.2302,-3.1965,-3.1472,-3.1472,-3.1104,-3.0566,-3.0566,-3.0566,-3.0554,0.0,0.0,0.0,0.0,0.0,0.0,0.0,-1.123,-1.1305,-1.1305,-1.2665,-1.3759,-1.4078,-1.5662,-1.68,0.0,0.0,0.0,0.0,0.0,0.0,-1.7279,-1.7785,-1.8565,-1.9513,-1.9513,-2.0014,-2.0962,0.0,-1.9741,-2.0187,-1.9824,-2.0141,-2.1006,-2.1676,-2.2164,-2.257,-2.3159,-2.342,-2.342,-2.342,-2.342,-2.342,-2.342,0.0,0.0,-2.4368,-2.4497,-2.4497,-2.4497,-2.4497,-2.4497,-2.4497,-2.4497,-2.4583,-2.502,-2.5137,-2.5221,-2.5642,-2.5768,-2.5768,-2.5768,-2.6163,-2.6483,-2.6049,0.0,0.0,-2.6472,-2.6442,-2.6678,-2.7424,-2.7313,-2.7406,-2.8267,-2.7879,0.0,0.0,0.0,0.0,0.0,0.0,0.0,0.0,0.0,0.0,0.0,0.0,-3.0476,-3.1169,-3.1214,-3.1214,-3.1214,-3.1214,-3.1214,-3.1214,-3.1214,-3.1214,-3.1214,-3.1214,-3.1214,-3.1214,-3.1214,-3.1214,-3.1214,-3.1214,0.0,-3.1214,-3.1214,-3.1015,-3.0713,-3.0713,-3.0532,-3.0216,-3.0216,-3.0216,-3.0216,0.0,0.0,0.0,0.0,0.0,0.0,0.0,-1.1305,-1.1327,-1.1375,-1.2899,-1.4091,-1.4353,-1.5868,-1.7027,0.0,0.0,0.0,0.0,0.0,0.0,0.0,0.0,0.0,-1.955,0.0,0.0,-2.0737,-1.9247,0.0,0.0,0.0,0.0,0.0,-2.0979,-2.1472,-2.2041,-2.2306,-2.2394,0.0,0.0,-2.2394,0.0,0.0,0.0,0.0,0.0,-2.4057,-2.4057,-2.4057,-2.4057,-2.4057,-2.4057,-2.4272,-2.4497,-2.4497,-2.4497,-2.4497,-2.4497,-2.4497,-2.4497,-2.4497,-2.502,-2.5337,-2.4658,-2.502,0.0,-2.5115,-2.5031,-2.5359,-2.6287,-2.6071,-2.6124,0.0,-2.6558,-2.6435,0.0,0.0,0.0,0.0,0.0,0.0,0.0,0.0,0.0,0.0,0.0,0.0,-3.017,-3.0216,-3.0216,-3.0216,-3.0216,-3.0216,-3.0216,-3.0216,-3.0216,-3.0216,-3.0216,-3.0216,-3.0216,-3.0216,-3.0216,-3.0216,-3.0216,0.0,0.0,-3.0034,-2.9988,-2.9897,-2.9886,-2.9886,-2.9886,-2.9886,-2.9886,-2.9886,0.0,0.0,0.0,0.0,0.0,0.0,0.0,-1.1305,-1.1386,-1.1639,-1.3201,-1.4366,-1.4614,-1.6007,-1.7027,0.0,0.0,0.0,0.0,0.0,0.0,0.0,0.0,0.0,0.0,0.0,0.0,-1.7692,0.0,0.0,0.0,0.0,0.0,0.0,0.0,-2.0718,-2.0853,-2.1908,0.0,0.0,0.0,0.0,0.0,0.0,0.0,0.0,0.0,-2.257,-2.257,-2.257,-2.257,-2.257,-2.257,-2.3464,-2.4497,-2.4497,0.0,0.0,-2.4497,-2.4497,-2.4497,-2.4497,-2.4583,-2.4615,-2.4497,0.0,-2.4625,-2.4583,-2.4583,-2.47,-2.5232,-2.5285,-2.5454,-2.5968,-2.5979,-2.6265,0.0,0.0,0.0,0.0,0.0,0.0,0.0,0.0,0.0,0.0,0.0,0.0,-3.017,-3.0216,-3.0216,-3.0216,-3.0216,-3.0216,-3.0216,-3.0216,-3.0216,-3.0216,-3.0216,-3.0216,-3.0216,-3.0216,-3.0216,-3.0216,-3.0216,0.0,0.0,-2.9577,-2.9301,-2.8932,-2.8874,-2.8817,-2.8817,-2.8817,-2.8817,-2.8817,0.0,0.0,0.0,0.0,0.0,0.0,-1.1262,-1.1429,-1.1596,-1.1688,-1.2979,-1.3918,-1.4027,-1.5485,-1.6721,-1.7271,0.0,0.0,0.0,0.0,0.0,0.0,0.0,0.0,0.0,0.0,-1.821,-1.9088,-1.8496,0.0,0.0,0.0,0.0,0.0,0.0,0.0,-2.0464,-2.0952,0.0,0.0,0.0,0.0,0.0,0.0,0.0,0.0,0.0,0.0,-2.2394,-2.2394,-2.2394,-2.2394,-2.2394,-2.2799,-2.3333,-2.3754,-2.4196,-2.4497,-2.4497,-2.4497,-2.4497,-2.4497,-2.4497,-2.4497,-2.4497,0.0,-2.4497,-2.4497,-2.4497,-2.454,-2.4743,-2.4786,-2.4828,-2.5052,-2.5052,-2.5369,-2.6332,0.0,0.0,0.0,0.0,0.0,0.0,0.0,0.0,0.0,0.0,0.0,-2.929,-2.9279,-2.9279,-2.9279,-2.9279,-2.9279,-2.9279,-2.9279,-2.9279,-2.9279,-2.9279,-2.9279,-2.9279,-2.9279,-2.9279,-2.9279,-2.9279,0.0,0.0,-2.9013,-2.8921,-2.8803,-2.8735,-2.8678,-2.8678,-2.8678,-2.8678,-2.8724,0.0,0.0,0.0,0.0,0.0,-1.1127,-1.1262,-1.1548,-1.1725,-1.179,-1.2842,-1.3608,-1.3685,-1.4984,-1.619,-1.6904,-1.7185,0.0,0.0,0.0,0.0,0.0,0.0,0.0,0.0,0.0,-1.8827,-1.9882,-1.915,-1.8781,0.0,0.0,0.0,0.0,0.0,0.0,0.0,0.0,0.0,0.0,0.0,0.0,0.0,0.0,0.0,0.0,0.0,0.0,0.0,0.0,0.0,-2.1784,-2.1784,-2.1917,-2.2227,-2.295,-2.3667,-2.4196,-2.4196,-2.4368,-2.4497,-2.4497,-2.4497,-2.4497,0.0,0.0,-2.4497,-2.4497,-2.4497,-2.4497,-2.4497,-2.4497,-2.4497,-2.4497,-2.4611,-2.5016,-2.5771,-2.6044,0.0,0.0,0.0,0.0,0.0,0.0,0.0,0.0,0.0,0.0,-2.8269,-2.8269,-2.8398,-2.8678,-2.8678,-2.8678,-2.8678,-2.8678,-2.8678,-2.8678,-2.8678,-2.8724,-2.8735,-2.8724,-2.8585,-2.8387,-2.8387,0.0,0.0,-2.7814,-2.7767,-2.7636,-2.7579,-2.7579,-2.7579,-2.7579,-2.7579,-2.7579,0.0,0.0,0.0,0.0,0.0,0.0,-1.1219,-1.1548,-1.1785,-1.2056,-1.295,-1.3673,-1.3872,-1.4621,-1.5432,-1.6143,-1.6904,0.0,0.0,0.0,0.0,0.0,0.0,0.0,0.0,0.0,-1.8781,-1.8827,-1.8827,-1.8781,-1.8827,-1.9325,-1.9592,0.0,0.0,0.0,0.0,0.0,0.0,0.0,0.0,0.0,-2.0292,0.0,0.0,0.0,0.0,0.0,0.0,0.0,0.0,0.0,0.0,-2.0826,-2.1526,-2.2217,-2.295,-2.3503,-2.3503,-2.398,-2.4497,-2.4497,-2.4497,-2.4497,-2.4497,-2.4497,-2.4497,-2.4497,-2.4497,-2.4497,-2.4497,-2.4497,-2.4497,-2.4497,-2.4879,-2.5378,-2.5813,-2.6324,0.0,0.0,0.0,0.0,0.0,0.0,0.0,0.0,0.0,0.0,-2.7309,-2.7309,-2.7715,-2.8678,-2.8678,-2.8678,-2.8678,-2.8678,-2.8678,-2.8678,-2.8678,-2.8735,-2.8803,-2.8735,-2.8294,0.0,0.0,0.0,0.0,-2.5751,-2.5412,-2.4943,-2.4943,-2.4943,-2.4943,-2.4943,-2.4943,-2.4943,0.0,0.0,0.0,0.0,0.0,0.0,0.0,-1.1682,-1.2005,-1.2096,-1.2658,-1.3064,-1.3136,-1.4004,-1.4908,-1.5852,-1.6332,0.0,0.0,0.0,0.0,0.0,0.0,0.0,0.0,-1.9371,-1.9509,-1.9837,-1.9837,-1.9837,-1.9837,-2.0011,-2.0056,-2.0056,-2.0246,0.0,0.0,0.0,0.0,0.0,0.0,-2.0292,-2.0292,0.0,0.0,0.0,0.0,0.0,0.0,0.0,0.0,0.0,0.0,0.0,0.0,-2.0907,-2.1793,-2.2765,-2.2765,-2.2896,-2.3062,-2.3062,-2.3062,-2.3202,-2.3711,-2.344,-2.3333,-2.4315,-2.3734,-2.3202,-2.3711,-2.3387,-2.3159,-2.3427,-2.4039,-2.4746,0.0,0.0,0.0,0.0,0.0,0.0,0.0,0.0,0.0,0.0,0.0,0.0,-2.6486,-2.5984,-2.6312,-2.7715,-2.7762,-2.7762,-2.7762,-2.7762,-2.7478,-2.6945,-2.6945,-2.6648,-2.6147,-2.6089,-2.5993,0.0,0.0,0.0,0.0,-2.5129,-2.5031,-2.4894,-2.4894,-2.4894,-2.4894,-2.4894,-2.4894,-2.4894,0.0,0.0,0.0,0.0,0.0,0.0,0.0,-1.1802,-1.2145,-1.2208,-1.2629,-1.2905,-1.2905,-1.3582,-1.4388,-1.5289,-1.5527,0.0,0.0,0.0,0.0,0.0,0.0,0.0,-1.9874,-1.9874,-2.0019,-2.0292,-2.0292,-2.0292,-2.0292,-2.0292,-2.0292,-2.0292,-2.0292,-2.0292,0.0,0.0,0.0,0.0,-2.0292,-2.0292,-2.0292,0.0,0.0,0.0,0.0,0.0,0.0,0.0,0.0,0.0,0.0,0.0,0.0,0.0,-2.0907,-2.165,-2.1961,-2.2227,-2.2394,-2.2394,-2.2394,-2.2536,-2.2994,-2.2721,-2.2668,-2.3517,-2.3018,-2.2536,-2.2994,-2.2811,-2.2735,-2.2955,-2.3669,-2.4378,0.0,0.0,0.0,0.0,0.0,0.0,0.0,0.0,0.0,0.0,0.0,0.0,-2.5645,-2.5187,-2.5382,-2.637,-2.637,-2.637,-2.637,-2.637,-2.6129,-2.5645,-2.5645,-2.5392,-2.4894,-2.4894,-2.4747,0.0,0.0,0.0,0.0,-2.4016,-2.4016,-2.4016,-2.4016,-2.4016,-2.4016,-2.4016,-2.4016,-2.4016,0.0,0.0,0.0,0.0,0.0,0.0,0.0,-1.1969,-1.2217,-1.2435,-1.2864,-1.3147,-1.3147,-1.3394,-1.3877,-1.4688,0.0,0.0,0.0,0.0,0.0,0.0,0.0,0.0,-2.0292,-2.0292,-2.0292,-2.0292,-2.0292,-2.0292,-2.0292,-2.0292,-2.0292,-2.0292,-2.0246,-2.0192,0.0,0.0,0.0,0.0,-2.0292,-2.0292,0.0,0.0,0.0,0.0,0.0,0.0,0.0,0.0,0.0,0.0,0.0,0.0,0.0,0.0,0.0,0.0,0.0,-2.1739,-2.2217,-2.2217,-2.2173,-2.2173,-2.2217,-2.2173,0.0,-2.2262,-2.2217,-2.2183,-2.2255,-2.2494,-2.2784,-2.285,-2.3533,-2.403,0.0,0.0,0.0,0.0,0.0,0.0,0.0,0.0,0.0,0.0,0.0,0.0,-2.4796,-2.4747,-2.4747,-2.4747,-2.4747,-2.4796,-2.4894,-2.4894,-2.4894,-2.4796,-2.4796,-2.4796,-2.4747,-2.4747,-2.4313,0.0,0.0,0.0,0.0,-2.2594,-2.2594,-2.2594,-2.2594,-2.2594,-2.2594,-2.2594,-2.2594,-2.2594,0.0,0.0,0.0,0.0,0.0,0.0,0.0,0.0,0.0,0.0,-1.3241,-1.3394,-1.3394,-1.3636,-1.4202,0.0,0.0,0.0,0.0,0.0,0.0,0.0,0.0,0.0,-2.0292,-2.0292,-2.0292,-2.0292,-2.0292,-2.0292,-2.0292,-2.0292,-2.0292,-2.0292,-1.9492,-1.9163,0.0,0.0,0.0,0.0,-2.0292,-2.0292,0.0,0.0,0.0,0.0,-2.0292,-2.0292,0.0,0.0,0.0,0.0,0.0,0.0,0.0,0.0,-2.0292,-2.0246,-2.0048,0.0,-2.0266,-2.0266,-1.9948,-1.9812,0.0,-2.0031,-1.994,-2.1033,-2.0376,-1.9895,-2.0726,-2.0492,-2.0509,-2.1457,-2.1922,-2.2383,0.0,0.0,0.0,0.0,0.0,0.0,0.0,0.0,0.0,0.0,0.0,-2.3976,-2.3976,-2.3429,-2.3129,-2.3129,-2.3129,-2.3719,-2.4894,-2.4894,-2.4599,-2.3976,-2.3976,-2.3678,-2.3129,-2.3129,-2.3038,0.0,0.0,0.0,-2.2594,-2.2594,-2.2594,-2.2594,-2.2594,-2.2594,-2.2594,-2.2594,-2.2594,-2.2594,0.0,0.0,0.0,0.0,0.0,0.0,0.0,0.0,0.0,0.0,0.0,-1.3684,-1.3684,-1.3925,0.0,0.0,0.0,0.0,0.0,0.0,0.0,0.0,0.0,-1.9072,-1.9583,-2.0056,-2.0292,-2.0292,-2.0292,-2.0056,-1.9592,-1.9592,-1.9355,-1.8888,-1.8373,-1.8087,0.0,0.0,0.0,-1.8934,-1.8934,0.0,0.0,0.0,0.0,0.0,-1.8934,-1.9209,0.0,-1.9592,-1.9592,-1.9592,0.0,0.0,0.0,0.0,-1.9018,-1.9217,-1.885,-1.9134,-1.9546,-1.9279,-1.9132,-1.9112,-1.9515,-1.942,-1.9493,-2.0259,-1.9807,-1.9462,-2.0028,-1.9902,-1.9996,-2.0669,-2.1013,0.0,0.0,0.0,0.0,0.0,0.0,0.0,0.0,0.0,0.0,0.0,0.0,-2.3188,-2.3188,-2.2846,-2.2594,-2.2594,-2.2594,-2.2987,-2.3818,-2.3818,-2.3619,-2.3188,-2.3188,-2.2996,-2.2594,-2.2594,-2.2594,0.0,0.0,0.0,-2.2594,-2.2594,-2.2594,-2.2594,-2.2594,-2.2594,-2.2594,-2.2594,-2.2594,-2.2594,0.0,0.0,0.0,0.0,0.0,0.0,0.0,0.0,0.0,0.0,0.0,0.0,0.0,0.0,0.0,0.0,0.0,0.0,0.0,0.0,0.0,0.0,-1.7809,-1.8411,-1.8557,-1.9401,-1.982,-1.982,-1.982,-1.9401,-1.8557,-1.8557,-1.8041,-1.7063,-1.725,-1.7196,-1.7063,0.0,0.0,-1.7296,-1.7296,0.0,0.0,0.0,0.0,0.0,0.0,0.0,0.0,-1.8557,-1.8557,-1.8557,-1.8557,0.0,0.0,0.0,0.0,0.0,-1.7712,-1.8357,-1.9086,-1.8822,-1.8942,-1.9145,-1.9145,-1.938,-1.9591,-1.9591,-1.9591,-1.9607,-1.9662,-1.9897,0.0,0.0,0.0,0.0,0.0,0.0,0.0,0.0,0.0,0.0,0.0,0.0,0.0,0.0,0.0,-2.2443,-2.2443,-2.2544,-2.2594,-2.2594,-2.2594,-2.2594,-2.2594,-2.2594,-2.2594,-2.2594,-2.2594,-2.2594,-2.2594,-2.2594,-2.2594,-2.2594,0.0,0.0,-2.2594,-2.2594,-2.2594,-2.2594,-2.2594,-2.2594,-2.2594,-2.2594,-2.2594,-2.2594,0.0,0.0,0.0,0.0,0.0,0.0,0.0,0.0,0.0,0.0,0.0,0.0,0.0,0.0,0.0,0.0,0.0,0.0,0.0,0.0,0.0,-1.4765,-1.5704,-1.664,-1.7529,-1.7669,-1.7762,-1.7762,-1.7762,-1.7669,-1.7529,-1.7529,-1.7008,-1.6075,-1.6922,-1.6828,-1.6082,-1.6915,0.0,-1.7296,-1.7296,0.0,0.0,0.0,0.0,0.0,0.0,0.0,0.0,-1.7529,-1.7529,-1.7529,-1.7529,0.0,0.0,0.0,0.0,0.0,-1.7378,-1.7232,-1.7225,-1.8336,-1.8524,-1.8471,-1.8471,-1.8516,-1.8553,-1.8553,-1.8553,-1.8634,-1.8916,-1.9005,-1.9276,0.0,0.0,0.0,0.0,0.0,0.0,0.0,0.0,0.0,0.0,0.0,0.0,0.0,0.0,-2.1827,-2.1827,-2.2342,-2.2594,-2.2594,-2.2594,-2.2594,-2.2594,-2.2594,-2.2594,-2.2594,-2.2594,-2.2594,-2.2594,-2.2594,-2.2594,-2.2594,0.0,-2.2594,-2.2594,-2.2594,-2.2594,-2.2594,-2.2594,-2.2594,-2.2594,-2.2594,-2.2594,-2.2594,0.0,0.0,0.0,0.0,0.0,0.0,0.0,0.0,0.0,0.0,0.0,0.0,0.0,0.0,0.0,0.0,0.0,0.0,0.0,0.0,-1.4298,-1.4298,-1.4717,-1.5473,-1.6452,-1.7016,-1.7296,-1.7296,-1.7296,-1.7016,-1.6499,-1.594,-1.5425,-1.5003,-1.5466,-1.5419,-1.4997,-1.5466,-1.5656,-1.5656,0.0,0.0,0.0,0.0,0.0,0.0,0.0,0.0,0.0,0.0,-1.6499,-1.6452,-1.6304,0.0,0.0,0.0,0.0,0.0,-1.5696,-1.6026,-1.6488,-1.7161,-1.723,-1.7289,-1.7743,-1.7615,-1.7688,-1.8673,-1.8462,0.0,0.0,0.0,0.0,0.0,0.0,0.0,0.0,0.0,0.0,0.0,0.0,0.0,0.0,0.0,0.0,0.0,0.0,0.0,-2.1275,-2.153,-2.1683,-2.1683,-2.1683,-2.1683,-2.1683,-2.1683,-2.1987,-2.2594,-2.2594,-2.2594,-2.2594,-2.2594,-2.2594,-2.2594,0.0,-2.2594,-2.2594,-2.2594,-2.2594,-2.2544,-2.192,-2.1666,-2.1607,-2.0818,-2.0562,-2.0511,0.0,0.0,0.0,0.0,0.0,0.0,0.0,0.0,0.0,0.0,0.0,0.0,0.0,0.0,0.0,0.0,0.0,0.0,0.0,-1.4298,-1.4298,-1.4298,-1.4298,-1.4675,-1.5425,-1.6217,-1.6593,-1.6593,-1.6593,-1.6217,-1.5425,-1.4675,-1.4298,-1.4298,-1.4298,-1.4298,-1.4298,-1.4298,-1.4298,-1.4298,0.0,0.0,0.0,0.0,0.0,0.0,0.0,0.0,0.0,0.0,0.0,0.0,0.0,0.0,0.0,-1.3316,-1.3741,-1.4345,-1.4454,-1.5113,-1.5787,-1.5989,-1.6197,-1.6509,-1.7176,-1.699,-1.71,-1.8429,-1.8153,0.0,0.0,-1.9168,0.0,0.0,0.0,0.0,0.0,0.0,0.0,0.0,0.0,0.0,0.0,0.0,0.0,0.0,0.0,0.0,-2.0712,-2.0822,-2.0814,-2.0601,-2.0814,-2.0704,-2.0336,-2.049,-2.1208,-2.2392,-2.2392,-2.2443,-2.2594,-2.2443,-2.2392,-2.2392,-2.2021,-2.192,-2.1869,-2.17,-2.1599,-2.1548,-2.0664,-2.0305,-2.0195,-1.9102,-1.8731,-1.8679,0.0,0.0,0.0,0.0,0.0,0.0,0.0,0.0,0.0,0.0,0.0,0.0,0.0,0.0,0.0,0.0,0.0,0.0,0.0,-1.4298,-1.4298,-1.4298,-1.4298,-1.4346,-1.4394,-1.4484,-1.4532,-1.4532,-1.4532,-1.4484,-1.4394,-1.4346,-1.4298,-1.4298,-1.4298,-1.4298,-1.4298,-1.4298,-1.4298,-1.4298,-1.4298,0.0,0.0,0.0,0.0,0.0,0.0,0.0,0.0,0.0,0.0,0.0,0.0,0.0,-1.3191,-1.3413,-1.3512,-1.3804,-1.4798,-1.4701,-1.4535,-1.5375,-1.6115,-1.6698,-1.6751,-1.6717,-1.673,-1.6836,-1.6836,0.0,0.0,-1.8736,0.0,0.0,0.0,0.0,0.0,0.0,0.0,0.0,0.0,0.0,0.0,0.0,0.0,0.0,0.0,0.0,-2.0138,-2.0609,-2.0542,-1.9738,-2.049,-2.0174,-1.862,-1.931,-2.0416,-2.1776,-2.1776,-2.208,-2.2594,-2.203,-2.1776,-2.1674,-2.0364,-1.9834,-1.9782,-1.8984,-1.8717,-1.8672,-1.8613,-1.8568,-1.8568,-1.8464,-1.8404,-1.8404,0.0,0.0,0.0,0.0,0.0,0.0,0.0,0.0,0.0,0.0,0.0,0.0,0.0,0.0,0.0,0.0,0.0,0.0,0.0,-1.4298,-1.4298,-1.4298,-1.4298,-1.4298,-1.4298,-1.4298,-1.4298,-1.4298,-1.4298,-1.4298,-1.4298,-1.4298,-1.4298,-1.4304,-1.4479,-1.4558,-1.457,-1.4733,-1.4799,-1.4787,-1.4624,-1.4558,0.0,0.0,0.0,0.0,0.0,0.0,0.0,0.0,-1.3877,-1.3636,-1.3443,-1.3249,-1.3099,-1.3237,-1.3382,-1.3632,-1.4173,-1.4269,-1.4299,-1.4617,-1.4934,-1.5303,-1.5832,-1.5512,-1.5464,-1.6471,-1.6305,0.0,0.0,0.0,0.0,0.0,0.0,0.0,0.0,0.0,0.0,0.0,0.0,0.0,0.0,0.0,0.0,0.0,0.0,0.0,-1.7989,-1.867,-1.8715,-1.7818,-1.814,-1.7982,-1.7345,-1.766,-1.823,-1.9102,-1.9465,-1.9767,-1.9973,-1.9767,-1.9672,-1.962,-1.9095,-1.8835,-1.8835,-1.8516,-1.8404,-1.8307,-1.7634,-1.6903,-1.6287,-1.6121,-1.6068,-1.6015,0.0,0.0,0.0,0.0,0.0,0.0,0.0,0.0,0.0,0.0,0.0,0.0,0.0,0.0,0.0,0.0,0.0,0.0,-1.4298,-1.4298,-1.4298,-1.4298,-1.4298,-1.4298,-1.4298,-1.4298,-1.4298,-1.4298,-1.4298,-1.4298,-1.4298,-1.4298,-1.4298,-1.431,-1.4594,-1.4517,-1.4176,-1.4426,-1.4327,-1.3993,-1.3752,-1.3656,0.0,0.0,0.0,0.0,0.0,0.0,0.0,0.0,-1.284,-1.2845,-1.27,-1.2802,-1.3013,-1.318,-1.3346,-1.3545,-1.3857,-1.4062,-1.4196,-1.4196,-1.4196,-1.4353,-1.4928,-1.4617,-1.4509,-1.5678,-1.5672,-1.5666,-1.6199,0.0,0.0,0.0,0.0,0.0,0.0,0.0,0.0,0.0,0.0,0.0,0.0,0.0,0.0,0.0,0.0,0.0,0.0,-1.7252,-1.7199,-1.6358,-1.6571,-1.6465,-1.5939,-1.6199,-1.6352,-1.6446,-1.6903,-1.7528,-1.8404,-1.8203,-1.8105,-1.8098,-1.7686,-1.7476,-1.7476,-1.7213,-1.7061,-1.7009,-1.6234,-1.5452,-1.4719,-1.4557,-1.445,-1.445,0.0,0.0,0.0,0.0,0.0,0.0,0.0,0.0,0.0,0.0,0.0,0.0,0.0,0.0,0.0,0.0,0.0,0.0,-1.4298,-1.4298,-1.4298,-1.4298,-1.4292,-1.4298,-1.425,-1.425,-1.4298,-1.4298,-1.4298,-1.4298,-1.4292,-1.4292,-1.4298,-1.4262,-1.4545,-1.4065,-1.3014,-1.33,-1.2725,-1.1615,-1.1475,-1.1391,-1.1367,0.0,0.0,0.0,0.0,0.0,0.0,0.0,-1.0912,-1.156,-1.156,-1.2111,-1.2856,-1.3335,-1.3475,-1.3583,-1.4062,-1.4191,-1.4196,-1.4196,-1.4196,-1.4196,-1.4196,-1.4196,-1.4196,-1.4196,-1.488,-1.5506,-1.5506,-1.6146,0.0,0.0,0.0,0.0,0.0,0.0,0.0,0.0,0.0,0.0,0.0,0.0,0.0,0.0,0.0,0.0,0.0,-1.6677,-1.6305,-1.5506,-1.6252,-1.5885,-1.4191,-1.5035,-1.5035,-1.4196,-1.4196,-1.5654,-1.8359,-1.7738,-1.7483,-1.7377,-1.608,-1.5506,-1.5405,-1.4563,-1.4196,-1.4196,-1.4196,-1.4196,-1.4196,-1.4196,-1.4196,-1.4196,0.0,0.0,0.0,0.0,0.0,0.0,0.0,0.0,0.0,0.0,0.0,0.0,0.0,0.0,0.0,0.0,0.0,0.0,-1.4298,-1.4298,-1.395,-1.3216,-1.3167,-1.2829,-1.2145,-1.2096,-1.2829,-1.4298,-1.4298,-1.3908,-1.3167,-1.3167,-1.278,-1.2116,-1.2505,-1.247,-1.2189,-1.2557,-1.2501,-1.2156,-1.1901,-1.1784,-1.1578,0.0,0.0,0.0,0.0,0.0,0.0,0.0,0.0,0.0,-1.0194,-1.0881,-1.1604,-1.122,-1.2226,-1.3422,-1.3017,-1.3527,-1.4196,-1.4196,-1.4196,-1.4196,-1.4196,-1.4196,-1.4196,-1.4196,-1.4407,-1.4617,-1.4617,0.0,0.0,0.0,0.0,0.0,0.0,0.0,0.0,0.0,0.0,0.0,0.0,0.0,0.0,0.0,0.0,0.0,0.0,-1.5512,-1.5458,-1.4617,-1.4826,-1.4724,-1.4196,-1.4455,-1.4455,-1.4196,-1.4196,-1.4665,-1.5446,-1.5244,-1.519,-1.5137,-1.4773,-1.4617,-1.4563,-1.4299,-1.4196,-1.4196,-1.4196,-1.4196,-1.4196,-1.4196,-1.4196,-1.4196,0.0,0.0,0.0,0.0,0.0,0.0,0.0,0.0,0.0,0.0,-1.5083,-1.5083,0.0,0.0,0.0,0.0,0.0,0.0,-1.3854,-1.3709,-1.3221,-1.2145,-1.2096,-1.1804,-1.1219,-1.1219,-1.1804,-1.3076,-1.3076,-1.2732,-1.2096,-1.2096,-1.1755,-1.1238,-1.157,-1.1508,-1.1144,-1.1514,-1.1426,-1.0988,-1.0803,-1.0619,-1.0379,0.0,0.0,0.0,0.0,0.0,0.0,0.0,0.0,0.0,-0.8962,-0.9751,-1.0567,-1.0209,-1.1444,-1.285,-1.2489,-1.33,-1.4196,-1.4196,-1.4196,-1.4196,-1.4196,0.0,0.0,0.0,-1.4196,-1.4196,-1.4196,-1.4196,0.0,0.0,0.0,0.0,0.0,0.0,0.0,0.0,0.0,0.0,0.0,0.0,0.0,0.0,0.0,0.0,0.0,-1.4719,-1.4719,-1.4191,-1.4196,-1.4196,-1.4196,-1.4196,-1.4196,-1.4196,-1.4196,-1.4196,-1.4196,-1.4196,-1.4196,-1.4196,-1.4196,-1.4196,-1.4196,-1.4196,-1.4196,-1.4196,-1.4196,-1.4196,-1.4196,-1.4196,-1.4196,-1.4196,0.0,0.0,0.0,0.0,0.0,0.0,0.0,0.0,0.0,0.0,-1.5178,-1.5178,0.0,0.0,0.0,0.0,0.0,0.0,0.0,-1.2732,-1.2096,-1.1121,-1.0974,-1.0925,-1.0925,-1.0925,-1.0925,-1.0925,-1.1121,-1.117,-1.1023,-1.1023,-1.0974,-1.0935,-1.1206,-1.0799,-0.9996,-1.0249,-0.9783,-0.8871,-0.8788,-0.8632,-0.8465,-0.8072,0.0,0.0,0.0,0.0,0.0,0.0,0.0,0.0,-0.7875,-0.8679,-0.9658,-0.9776,-1.0792,-1.1998,-1.2198,-1.3029,-1.3921,-1.4024,-1.4029,0.0,-1.4083,-1.4142,-1.4196,-1.4196,0.0,-1.4196,-1.4196,0.0,0.0,0.0,0.0,0.0,0.0,0.0,0.0,0.0,0.0,0.0,0.0,0.0,0.0,0.0,0.0,0.0,0.0,-1.4196,-1.4196,-1.4196,-1.4196,-1.4196,-1.4196,-1.4196,-1.4196,-1.4196,-1.4196,-1.4196,-1.4196,-1.4196,-1.4196,-1.4196,-1.4196,-1.4196,-1.4196,-1.4196,-1.4196,-1.4196,-1.4196,-1.4196,-1.4196,-1.4196,-1.4196,-1.4196,0.0,0.0,0.0,0.0,0.0,0.0,0.0,0.0,0.0,0.0,0.0,0.0,0.0,0.0,0.0,0.0,0.0,0.0,0.0,-1.1999,-1.1072,-0.9998,-0.9118,-0.8676,-0.8676,-0.8676,-0.8676,-0.8676,-1.0391,-1.0783,-0.9948,-0.9948,-0.9509,-0.8687,-0.9024,-0.9071,-0.8864,-0.915,-0.9127,-0.8878,-0.8848,-0.8726,-0.8479,-0.8187,-0.776,0.0,0.0,0.0,0.0,0.0,0.0,0.0,-0.6734,-0.7576,-0.8432,-0.7703,-0.9001,-1.0716,-1.1004,-1.1273,-1.166,-1.2585,-1.2807,-1.2916,-1.3369,-1.3867,-1.4196,-1.4196,-1.4196,-1.4196,0.0,0.0,0.0,0.0,0.0,0.0,0.0,0.0,0.0,0.0,0.0,0.0,0.0,0.0,0.0,0.0,0.0,0.0,-1.4196,-1.4196,-1.4196,-1.4196,-1.4196,-1.4196,-1.4196,-1.4196,-1.4196,0.0,-1.4196,-1.4196,-1.4196,-1.4196,-1.4196,-1.4196,-1.4196,-1.4196,-1.4196,-1.4196,-1.4196,-1.4196,-1.4196,-1.4196,-1.4196,-1.4196,-1.4196,-1.4196,0.0,0.0,0.0,0.0,0.0,0.0,0.0,0.0,0.0,0.0,0.0,0.0,0.0,0.0,0.0,0.0,0.0,0.0,0.0,0.0,-0.9948,-0.8874,-0.8287,-0.7988,-0.7988,-0.7988,-0.7988,-0.7988,-0.9118,-0.9361,-0.8825,-0.8825,-0.8531,-0.8002,-0.8279,-0.8418,-0.8499,-0.873,-0.8817,-0.8885,-0.8885,-0.8649,-0.8276,-0.8016,-0.7531,-0.6989,-0.6689,0.0,0.0,0.0,0.0,0.0,0.0,0.0,-0.7361,-0.6923,-0.8102,-0.9589,-0.9808,-1.0233,-1.0781,-1.1214,0.0,-1.1873,-1.2155,-1.2817,-1.3315,-1.3315,-1.3591,0.0,0.0,0.0,0.0,0.0,0.0,0.0,0.0,0.0,0.0,0.0,0.0,0.0,0.0,0.0,0.0,0.0,0.0,-1.4196,-1.4196,-1.4196,-1.4196,-1.4196,-1.4196,-1.4196,-1.4196,-1.4196,-1.4196,-1.4196,-1.4196,-1.4196,-1.4196,-1.4196,-1.4196,-1.4196,-1.4196,-1.4196,-1.4196,-1.4196,-1.4196,-1.4196,-1.4196,-1.4196,-1.4196,-1.4196,-1.4196,-1.4196,0.0,0.0,0.0,0.0,0.0,0.0,0.0,0.0,0.0,0.0,0.0,0.0,0.0,0.0,0.0,0.0,0.0,0.0,0.0,0.0,0.0,-0.8038,-0.7988,-0.7988,-0.7988,-0.7988,-0.7988,-0.7988,-0.7988,-0.7988,-0.7988,-0.7988,-0.7988,-0.7995,-0.8228,-0.8374,-0.8492,-0.8672,-0.8821,-0.8881,-0.8854,-0.8571,-0.8065,-0.7781,-0.7307,-0.6742,-0.6487,-0.6387,-0.6387,-0.6387,0.0,0.0,0.0,0.0,-0.6643,-0.6766,-0.7573,-0.846,-0.8828,-0.9578,-1.0233,-0.99,-1.0174,0.0,-1.0891,-1.1605,-1.2219,-1.2273,-1.2713,0.0,0.0,0.0,0.0,0.0,0.0,0.0,0.0,0.0,0.0,0.0,0.0,0.0,0.0,0.0,0.0,0.0,0.0,-1.4196,-1.4196,-1.4196,-1.4196,-1.4196,-1.4196,-1.4196,-1.4196,-1.4196,-1.4196,-1.4196,-1.4196,-1.4083,-1.3916,-1.3916,-1.4024,-1.4196,-1.4196,-1.4196,-1.4191,-1.3975,-1.3916,-1.3862,-1.3694,-1.3586,-1.3586,-1.3586,-1.3586,-1.3586,0.0,0.0,0.0,0.0,0.0,0.0,0.0,0.0,0.0,0.0,-1.5784,-1.5784,0.0,0.0,0.0,0.0,0.0,0.0,-0.9706,0.0,0.0,-0.7988,-0.7988,-0.7988,-0.7988,-0.7988,-0.7988,-0.7988,-0.7988,-0.7988,-0.7988,-0.7988,-0.7988,-0.8002,-0.833,-0.8465,-0.8503,-0.8788,-0.8865,-0.8871,-0.8794,-0.8478,-0.8052,-0.7671,-0.7223,-0.6742,-0.6487,-0.6387,-0.6387,-0.6387,-0.6387,0.0,0.0,0.0,-0.6643,-0.6766,-0.6995,-0.7497,-0.8608,-0.8861,-0.8689,-0.8361,-0.8358,-0.8744,0.0,0.0,-1.1387,0.0,0.0,0.0,0.0,0.0,0.0,0.0,0.0,0.0,0.0,0.0,0.0,0.0,0.0,0.0,0.0,0.0,0.0,0.0,-1.4196,-1.4196,-1.4196,-1.4196,-1.4196,-1.4196,-1.4196,-1.4196,-1.4196,-1.4196,-1.4196,-1.4196,-1.4196,-1.3635,-1.2639,-1.2639,-1.3192,-1.4196,-1.4196,-1.4196,-1.4137,-1.3083,-1.2639,-1.2526,-1.1546,-1.1168,-1.1168,-1.1168,-1.1168,-1.1168,0.0,0.0,0.0,0.0,0.0,0.0,0.0,0.0,0.0,0.0,0.0,-1.5588,0.0,0.0,0.0,-1.2047,-1.0435,-0.9262,-0.8726,-0.8283,-0.7988,-0.7988,-0.7988,-0.7988,-0.7988,-0.7988,-0.7988,-0.7988,-0.7988,-0.7988,-0.7988,-0.7988,-0.8035,-0.8177,-0.8387,-0.853,-0.8625,-0.879,-0.8834,-0.875,-0.8578,-0.7821,-0.6894,-0.7159,-0.6599,-0.5737,-0.6237,-0.6387,-0.6387,-0.6387,-0.6387,-0.6387,-0.6387,0.0,0.0,0.0,-0.6839,-0.6974,-0.7546,-0.7315,-0.6927,0.0,-0.7041,-0.7429,-0.8091,0.0,-0.957,-1.0241,0.0,0.0,0.0,0.0,0.0,0.0,0.0,0.0,0.0,0.0,0.0,0.0,0.0,0.0,0.0,0.0,0.0,0.0,-1.4196,-1.4196,-1.4196,-1.4196,-1.4196,-1.4196,-1.4196,-1.4196,-1.4196,-1.3527,-1.2866,-1.2264,-1.2264,-1.1932,-1.1433,-1.1433,-1.1769,-1.2264,-1.2264,-1.2264,-1.2209,-1.1655,-1.1433,-1.1383,-1.0891,-1.0726,-1.0726,-1.0726,-1.0726,-1.0726,0.0,0.0,0.0,0.0,0.0,0.0,0.0,0.0,0.0,0.0,0.0,0.0,0.0,0.0,0.0,0.0,-0.9558,-0.8581,-0.8038,-0.7988,-0.7988,-0.7988,-0.7988,-0.7988,-0.7988,-0.7988,-0.7988,-0.7988,-0.7988,-0.7988,-0.7988,-0.7988,-0.814,-0.8381,-0.8435,-0.8567,-0.872,-0.8817,-0.8797,-0.8652,-0.8075,-0.7065,-0.5936,-0.6121,-0.5452,-0.4481,-0.5281,0.0,0.0,0.0,0.0,0.0,-0.5984,-0.5984,0.0,0.0,0.0,-0.6716,-0.6503,-0.6156,-0.5766,-0.5712,-0.6047,-0.6437,0.0,0.0,-0.7922,0.0,0.0,0.0,0.0,0.0,0.0,0.0,0.0,0.0,0.0,0.0,0.0,0.0,0.0,0.0,0.0,0.0,0.0,0.0,-1.4196,-1.4196,-1.4196,-1.3916,-1.3748,-1.3748,-1.3472,-1.331,-1.331,-1.2422,-1.1542,-1.0726,-1.0726,-1.0562,-1.0233,-1.0233,-1.0069,-0.9849,-1.0453,-1.0726,-1.0672,-1.0343,-1.0233,-1.0233,-0.9904,-0.9794,-0.9794,-0.9794,-0.9794,-0.9794,0.0,0.0,0.0,0.0,0.0,0.0,0.0,0.0,0.0,0.0,0.0,0.0,-1.4394,-1.3315,-1.219,-1.0921,-0.9558,-0.8581,-0.8038,-0.7988,-0.7988,-0.7988,-0.7988,0.0,-0.7988,-0.7988,-0.7988,-0.7988,-0.7988,-0.7988,-0.7988,-0.7988,-0.8194,-0.8472,-0.8479,-0.8567,-0.872,-0.8817,-0.8797,-0.8588,-0.716,-0.6302,-0.5721,-0.4307,-0.3575,-0.3274,0.0,0.0,0.0,0.0,0.0,0.0,0.0,0.0,0.0,0.0,0.0,0.0,-0.5986,-0.5822,-0.5712,-0.5491,-0.5437,-0.5661,0.0,0.0,0.0,0.0,0.0,0.0,0.0,0.0,0.0,0.0,0.0,0.0,0.0,0.0,0.0,0.0,0.0,0.0,0.0,0.0,0.0,0.0,-1.4196,-1.4196,-1.4196,-1.3137,-1.2472,-1.2472,-1.1437,-1.0891,-1.0891,-1.0836,-1.0781,-1.0726,-1.0726,-1.0123,-0.8975,-0.8975,-0.8423,-0.7485,-0.9739,-1.0726,-1.0617,-0.9467,-0.8975,-0.8865,-0.7817,-0.7374,-0.7374,-0.7374,-0.7374,-0.7374,0.0,0.0,0.0,0.0,0.0,0.0,0.0,0.0,0.0,0.0,0.0,0.0,0.0,-1.2345,-1.1293,-1.0109,-0.9278,-0.8638,-0.8293,-0.8091,-0.7988,-0.7988,-0.7988,-0.7988,-0.7988,-0.7988,-0.7988,-0.7988,-0.7988,-0.7988,-0.7988,-0.7988,-0.8197,-0.8482,-0.8482,-0.8621,-0.8801,-0.8811,-0.8322,-0.7484,-0.6511,-0.5107,-0.3653,-0.343,0.0,0.0,0.0,0.0,0.0,0.0,0.0,0.0,0.0,0.0,0.0,0.0,0.0,-0.6003,-0.5781,0.0,0.0,-0.5437,-0.5382,-0.5493,-0.577,-0.5882,0.0,0.0,0.0,0.0,0.0,0.0,0.0,0.0,0.0,0.0,0.0,0.0,0.0,0.0,0.0,0.0,0.0,0.0,0.0,0.0,0.0,-1.1937,-1.1937,-1.1546,-1.1328,-1.1328,-1.0891,-1.0343,-0.9578,-0.9523,-0.9192,-0.8475,-0.8475,-0.8202,-0.7817,-0.7817,-0.7595,-0.7265,-0.8091,-0.8475,-0.842,-0.798,-0.7817,-0.7762,-0.7376,-0.721,-0.721,-0.721,-0.721,-0.721,0.0,0.0,0.0,0.0,0.0,0.0,0.0,0.0,-1.5784,-1.5784,0.0,0.0,0.0,0.0,-1.1082,-0.9472,-0.8985,-0.8638,-0.8293,-0.8091,-0.7988,-0.7988,-0.7988,-0.7988,-0.7988,-0.7988,-0.7988,-0.7988,-0.7988,-0.7988,-0.7988,-0.7988,-0.8197,-0.8479,-0.8431,-0.8577,-0.8801,-0.8371,-0.7573,-0.6563,-0.5294,-0.3783,-0.2265,0.0,0.0,0.0,0.0,0.0,0.0,0.0,0.0,0.0,0.0,0.0,0.0,0.0,0.0,0.0,-0.4976,0.0,0.0,0.0,-0.5359,-0.5382,-0.5382,0.0,0.0,0.0,0.0,0.0,0.0,0.0,0.0,0.0,0.0,0.0,0.0,0.0,0.0,0.0,0.0,0.0,0.0,0.0,0.0,0.0,0.0,0.0,-1.0726,-1.0347,-0.9904,-0.9519,-0.9519,-0.9137,-0.8315,-0.8315,-0.7928,-0.721,-0.721,-0.721,-0.721,-0.721,-0.721,-0.721,-0.721,-0.721,-0.721,-0.721,-0.721,-0.721,-0.721,-0.721,-0.721,-0.721,-0.721,-0.721,0.0,0.0,0.0,0.0,0.0,0.0,0.0,0.0,-1.5784,-1.5784,0.0,0.0,0.0,0.0,0.0,-0.9023,-0.8825,-0.8581,-0.8038,-0.7988,-0.7988,-0.7988,-0.7988,-0.7988,-0.7988,-0.7988,-0.7988,-0.7988,-0.7988,-0.7988,-0.7988,-0.7988,-0.8143,-0.8416,-0.833,-0.8376,-0.8535,-0.7504,-0.677,-0.6036,0.0,-0.2353,-0.1812,0.0,0.0,0.0,0.0,-0.0683,0.0,0.0,0.0,0.0,0.0,0.0,0.0,0.0,0.0,0.0,0.0,0.0,0.0,0.0,0.0,0.0,-0.538,0.0,0.0,0.0,0.0,0.0,0.0,0.0,0.0,0.0,0.0,0.0,0.0,0.0,0.0,0.0,0.0,0.0,0.0,0.0,0.0,0.0,-1.0398,-1.0617,-1.0617,-0.9467,-0.8371,-0.721,-0.721,-0.721,-0.721,-0.721,-0.721,-0.721,-0.721,-0.721,-0.721,-0.721,-0.721,-0.721,-0.721,-0.721,-0.721,-0.721,-0.721,-0.721,-0.721,-0.721,-0.721,-0.721,-0.721,-0.721,0.0,0.0,0.0,0.0,0.0,-1.5784,-1.5784,-1.5784,-1.5784,0.0,0.0,0.0,-1.2769,-1.1365,-1.0175,-0.9426,-0.9034,-0.8741,-0.8592,-0.824,-0.7988,-0.7988,-0.7988,-0.7988,-0.7988,-0.7988,-0.7988,-0.7988,-0.7988,-0.7988,-0.7988,-0.7988,-0.7733,-0.7173,-0.7141,-0.6592,-0.5763,-0.6498,0.0,-0.4899,-0.3159,-0.1822,0.0,0.0,0.0,0.0,0.0,-0.0212,-0.0373,0.0,-0.0211,-0.0466,0.0,0.0,0.0,0.0,0.0,0.0,-0.3234,0.0,0.0,0.0,0.0,0.0,0.0,0.0,0.0,0.0,0.0,0.0,0.0,0.0,0.0,0.0,0.0,0.0,0.0,0.0,0.0,0.0,0.0,0.0,0.0,0.0,0.0,0.0,-0.7762,-0.7925,-0.8146,-0.7873,-0.754,-0.721,-0.721,-0.721,-0.721,-0.721,-0.721,-0.721,-0.721,-0.721,-0.721,-0.721,-0.721,-0.721,-0.721,-0.721,-0.721,-0.721,-0.721,-0.721,-0.721,-0.721,-0.721,-0.721,-0.721,-0.721,0.0,0.0,0.0,-1.5604,-1.5718,-1.5784,-1.5784,-1.5445,-1.5159,0.0,0.0,0.0,-1.2104,-1.0583,-0.9575,-0.9422,-0.9031,-0.8737,-0.8638,-0.8237,-0.7988,-0.7988,-0.7988,-0.7988,-0.7988,-0.7988,-0.7988,-0.7988,-0.7988,-0.7988,-0.7988,-0.7537,-0.7104,-0.6657,-0.6042,-0.5331,-0.4595,-0.4814,0.0,0.0,-0.2074,0.0,0.0,-0.0052,0.0,0.0,0.0,0.0,0.0,0.0,0.0,0.0,0.0,0.0,0.0,0.0,0.0,0.0,0.0,0.0,0.0,0.0,0.0,0.0,-0.52,-0.5355,0.0,0.0,0.0,0.0,0.0,0.0,0.0,0.0,0.0,0.0,0.0,0.0,0.0,0.0,0.0,0.0,0.0,-0.5712,-0.5933,-0.6323,-0.6437,-0.6659,-0.699,-0.7099,-0.721,-0.721,-0.721,-0.721,-0.721,-0.721,-0.721,-0.721,-0.721,-0.721,-0.721,-0.721,-0.721,-0.721,-0.721,-0.721,-0.721,-0.721,-0.721,-0.721,-0.721,-0.721,-0.721,-0.721,-0.721,-0.7154,0.0,0.0,-1.6028,-1.5826,-1.5784,-1.5784,-1.5784,-1.4968,-1.4298,0.0,-1.327,-1.2145,-1.1126,-1.0158,-0.9525,-0.9266,-0.897,-0.8676,-0.8482,-0.8187,-0.7988,-0.7988,-0.7988,-0.7988,-0.7988,-0.7988,-0.7939,-0.7839,-0.7839,-0.7739,-0.7637,-0.6634,-0.6186,-0.6223,-0.4806,-0.4158,-0.4065,0.0,0.0,-0.1711,-0.0757,-0.0253,0.0,0.0,0.0,0.0,0.0,0.0,0.0,0.0,0.0,0.0,0.0,0.0,0.0,0.0,0.0505,0.0,0.0,0.0,0.0,0.0,0.0,0.0,-0.4582,-0.4919,-0.5031,0.0,0.0,0.0,0.0,0.0,0.0,0.0,0.0,0.0,0.0,0.0,0.0,0.0,0.0,0.0,-0.5382,-0.5603,-0.5766,-0.5822,-0.6105,-0.6383,-0.6659,-0.699,-0.7154,-0.7154,-0.7154,-0.721,-0.721,-0.721,-0.721,-0.721,-0.721,-0.721,-0.721,-0.721,-0.721,-0.721,-0.721,-0.721,-0.721,-0.721,-0.721,-0.721,-0.721,-0.721,-0.721,-0.721,-0.7154,-0.7099,0.0,-1.5818,-1.5853,-1.5818,-1.5784,-1.5784,-1.5784,-1.4968,-1.4298,-1.4298,-1.2684,-1.1077,-1.0015,-0.9723,-0.9579,-0.9525,-0.9072,-0.8775,-0.8726,-0.8283,-0.7988,-0.7988,-0.7988,-0.7988,-0.7988,-0.7988,-0.7587,-0.6736,-0.6736,-0.6282,-0.5425,-0.4972,-0.4331,-0.354,-0.3024,-0.222,-0.1217,0.0,0.0,-0.0404,-0.0404,0.0,0.0,0.0,0.0,0.0,0.0,0.0,0.0,0.0,0.0,0.0052,0.0,0.0,0.0,0.0,0.0,0.0,0.0,0.0,0.0,0.0,0.0,0.0,-0.2386,-0.2462,-0.2752,0.0,0.0,0.0,0.0,0.0,0.0,0.0,0.0,0.0,0.0,0.0,0.0,0.0,0.0,0.0,-0.5382,-0.5437,-0.5547,-0.5766,-0.6105,-0.633,-0.6386,-0.6659,-0.6824,-0.6824,-0.7046,-0.721,-0.721,-0.721,-0.721,-0.721,-0.721,-0.721,-0.721,-0.721,-0.721,-0.721,-0.721,-0.721,-0.721,-0.721,-0.721,-0.721,-0.721,-0.721,-0.721,-0.721,-0.7043,-0.6768,-1.5964,-1.5974,-1.5974,-1.5825,-1.5784,-1.5784,-1.5784,-1.4478,-1.3511,-1.3511,-1.1668,-1.0207,-0.9673,-0.9579,-0.9529,-0.943,-0.9027,-0.8726,-0.8627,-0.8233,-0.7988,-0.7988,-0.7988,-0.7988,-0.7988,-0.7487,-0.6936,-0.6387,-0.5882,-0.5277,-0.4572,-0.392,-0.3219,-0.2567,-0.1764,-0.1009,-0.0404,0.0,-0.0101,0.0,-0.0152,0.0,0.0,0.0,0.0,0.0,0.0,0.0,0.0,0.0,0.0,0.0,0.0,0.0455,0.0808,0.0,0.1263,0.1465,0.0,0.0,0.0,-0.0561,0.0,0.0,0.0,-0.1778,-0.1969,-0.2592,-0.2726,0.0,0.0,0.0,0.0,0.0,0.0,0.0,0.0,0.0,0.0,0.0,0.0,0.0,-0.5382,-0.5382,-0.5437,-0.5601,-0.5882,-0.6049,-0.6049,-0.6437,-0.6715,-0.6715,-0.7043,-0.721,-0.721,-0.721,-0.721,-0.721,-0.721,-0.721,-0.721,-0.721,-0.721,-0.721,-0.721,-0.721,-0.721,-0.721,-0.7099,-0.699,-0.7154,-0.7099,-0.6935,-0.6935,-0.6771,-0.6495,-1.6123,-1.6123,-1.6028,-1.5832,-1.5784,-1.5784,-1.5784,-1.4034,-1.2581,-1.215,-1.065,-0.9579,-0.9579,-0.9579,-0.948,-0.9232,-0.8977,-0.8676,-0.8432,-0.8137,-0.7988,-0.7988,-0.7988,-0.7889,-0.769,-0.6836,-0.6184,-0.5784,-0.4926,-0.4273,-0.377,-0.2819,-0.2266,-0.1964,-0.0807,-0.0303,-0.0303,0.0,0.0,0.0,0.0,0.0,0.0,0.0,0.0,0.0,0.0,0.0,0.0,0.0,0.0,0.0,0.0051,0.0404,0.0,0.0,0.0,0.0,0.0,0.0,0.0,0.0,0.0,0.0,0.0,0.0,0.0,-0.1417,0.0,0.0,0.0,0.0,0.0,0.0,0.0,0.0,0.0,0.0,0.0,0.0,0.0,0.0,-0.5382,-0.5382,-0.5382,-0.5382,-0.5603,-0.5712,-0.5712,-0.6214,-0.6548,-0.6604,-0.6879,-0.7043,-0.7099,-0.7043,-0.7046,-0.7046,-0.7102,-0.7099,-0.7099,-0.6932,-0.6877,-0.6821,-0.6594,-0.6482,-0.6427,-0.6427,-0.6204,-0.5984,-0.6541,-0.6541,-0.6265,-0.604,-0.5761,-0.5485,-1.5825,-1.5832,-1.5832,-1.5832,-1.5784,-1.5784,-1.5784,-1.4034,-1.2052,-1.0212,-0.9723,-0.9579,-0.9579,-0.9579,-0.948,-0.9232,-0.8977,0.0,-0.8432,0.0,-0.7988,-0.7988,-0.7988,-0.754,-0.6587,-0.6487,-0.5482,-0.3575,-0.3423,-0.2772,-0.1564,-0.1212,-0.0909,-0.0606,-0.0202,-0.0051,-0.0051,0.0,0.0,0.0,0.0,0.0,0.0,0.0,0.0,0.0,0.0,0.0,0.0,0.0,0.0,0.0051,0.0,0.0556,0.0859,0.0,0.0,0.0,0.0,0.0,0.0,0.0,0.1417,0.0,0.0,0.0,0.1001,0.0,0.0,0.0,0.0,0.0,0.0,0.0,0.0,0.0,0.0,0.0,0.0,0.0,0.0,0.0,0.0,-0.5382,-0.5382,-0.5382,-0.5437,-0.5437,-0.5437,-0.5712,-0.6047,-0.633,-0.6386,-0.6495,-0.6768,-0.6495,-0.6386,-0.6386,-0.6659,-0.6771,-0.6712,-0.5929,-0.5594,-0.5539,-0.4474,-0.3858,-0.3578,-0.3578,-0.341,-0.3297,-0.4639,-0.4975,-0.4639,-0.3522,-0.2962,-0.2682,-1.5784,-1.5784,-1.5784,-1.5784,-1.5302,-1.4921,-1.4921,-1.3167,-1.1272,-0.9772,-0.9579,-0.9579,-0.9579,0.0,0.0,0.0,0.0,-0.8627,0.0,0.0,-0.7988,-0.7988,-0.7388,-0.6836,-0.6387,-0.5181,-0.4078,-0.3224,-0.2421,-0.1665,-0.096,-0.0707,-0.0404,-0.0152,-0.0051,0.0,0.0,0.0,0.0,0.0,0.0,0.0,0.0,0.0,0.0,0.0,0.0,0.0,0.0,0.0,0.0,0.0,0.0,0.0,0.0,0.0,0.0,0.0,0.0,0.0,0.0,0.0,0.0,0.0,0.1633,0.0,0.1569,0.0,0.0,0.0,0.0,0.0,0.0,0.0,-0.0279,0.0,0.0,0.0,0.0,0.0,0.0,0.0,0.0,0.0,0.0,0.0,-0.5382,-0.5382,-0.5382,-0.5656,-0.5877,-0.5991,-0.5541,-0.5314,-0.5423,-0.4641,-0.4308,-0.4419,-0.4529,-0.4697,-0.4866,-0.4306,-0.4083,-0.4027,-0.3356,-0.298,-0.2836,-0.2836,-0.2624,-0.2359,-0.2302,-0.2672,-0.3129,-0.2571,-0.2194,-0.193,-1.5445,-1.5397,-1.5397,-1.5397,-1.4532,-1.3757,-1.3516,-1.215,-1.0788,-0.9723,-0.9669,0.0,-0.9697,-0.9642,0.0,0.0,-0.8862,-0.8596,0.0,0.0,-0.7932,0.0,0.0,0.0,0.0,-0.3977,-0.3074,-0.2772,-0.1716,-0.1061,-0.0808,-0.0505,-0.0253,0.0,0.0,0.0,0.0,0.0,0.0,0.0,0.0,0.0,0.0,0.0,0.0,0.0,0.0,0.0,0.0,0.0,0.0,0.0,0.0,0.0,0.0,0.0,0.0,0.0,0.1415,0.0,0.0,0.0,0.0,0.0,0.0,0.0,0.0,0.0,0.0,0.0,0.0,0.0,0.0,0.0,0.0,0.0504,0.0,0.0,0.0,0.0,0.0,0.0,0.0,0.0,0.0,0.0,0.0,-0.4426,-0.4426,-0.459,-0.4756,-0.481,-0.4137,-0.3801,-0.3855,-0.2907,-0.2573,-0.2741,-0.2796,-0.2971,-0.321,-0.2704,-0.2484,-0.2438,-0.1928,-0.1599,-0.1501,-0.1501,-0.1279,-0.094,-0.0118,-0.029,-0.1077,-0.1077,-0.0915,-0.0694,-1.4538,-1.4346,-1.4346,-1.4346,-1.3463,-1.2436,-1.1463,-1.1219,-1.0788,-0.9723,0.0,0.0,0.0,0.0,0.0,0.0,0.0,-0.873,-0.8323,0.0,-0.7737,0.0,0.0,-0.5432,0.0,0.0,-0.2671,-0.1667,-0.1364,-0.1061,-0.0808,-0.0505,-0.0253,0.0,0.0,0.0,0.0,0.0,0.0,0.0,0.0,0.0,0.0,0.0,0.0,0.0,0.0,0.0,0.0,0.0,0.0,0.0,0.0,0.0,0.0,0.0,0.0,0.0,0.0,0.0,0.0,0.1617,0.0,0.0,0.0,0.0,0.1635,0.0,0.0,0.0,0.0,0.0,0.0,0.1811,0.0,0.0,0.0,0.0,0.0,0.0,0.0,0.0,0.0,0.0,0.0,0.0,-0.1903,0.0,-0.1903,-0.1903,-0.207,-0.2291,-0.2014,-0.2014,-0.2291,-0.1958,-0.1847,-0.1847,-0.2125,-0.2254,-0.2233,-0.1318,-0.0868,-0.0822,0.0353,0.1059,0.1295,0.1295,0.1472,0.1768,0.1826,0.1825,0.1765,0.1765,0.1766,0.1766,0.0,0.0,0.0,0.0,0.0,-1.137,-1.0306,-1.0158,-1.0057,0.0,0.0,0.0,0.0,-0.9551,-0.9328,0.0,0.0,-0.7561,-0.7255,-0.7255,0.0,0.0,0.0,-0.4788,0.0,0.0,0.0,-0.1314,-0.1061,-0.0808,-0.0505,-0.0253,-0.0101,0.0,0.0,0.0,0.0,0.0,0.0,0.0,0.0,0.0,0.0,0.0,0.0,0.0,0.0,0.0,0.0,0.0,0.0,0.0,0.0,0.0051,0.0152,0.0354,0.0505,0.0,0.0,0.0,0.1364,0.1566,0.0,0.0,0.0,0.0,0.0,0.0,0.0,0.0,0.0,0.0,0.1791,0.1781,0.1789,0.0,0.0,0.0,0.0,0.0,0.0,0.0,0.0,0.0,0.0,0.0,-0.1791,0.0,-0.1791,-0.1791,-0.1847,-0.1958,-0.1064,-0.0672,-0.0728,0.0112,0.0448,0.0224,0.0227,0.0057,-0.0115,0.0407,0.0644,0.0706,0.1296,0.166,0.1736,0.1736,0.1807,0.1946,0.1946,0.1946,0.1941,0.1901,0.1898,0.1919,-1.327,0.0,0.0,0.0,0.0,-1.04,-0.9723,0.0,0.0,0.0,-0.9587,0.0,-0.961,0.0,-0.929,0.0,-0.7883,-0.7003,-0.6802,-0.6371,0.0,-0.4389,-0.4411,0.0,0.0,0.0,0.0,0.0,-0.0909,-0.0657,-0.0404,-0.0101,0.0,0.0,0.0,0.0,0.0,0.0,0.0,0.0,0.0,0.0,0.0,0.0,0.0,0.0,0.0,0.0,0.0,0.0,0.0,0.0,0.0,0.0,0.0051,0.0202,0.0303,0.0455,0.0808,0.1061,0.0,0.1415,0.1523,0.0,0.1633,0.0,0.0,0.0,0.0,0.0,0.0,0.0,0.0,0.1795,0.1795,0.0,0.0,0.1795,0.0,0.0,0.0,0.0,0.0,0.0,0.0,-0.0504,-0.0504,-0.0504,0.0,-0.0504,-0.0504,-0.0504,0.0224,0.0617,0.0617,0.1402,0.1688,0.1472,0.1545,0.1446,0.1287,0.1479,0.1609,0.1618,0.1858,0.1929,0.1947,0.1947,0.1959,0.1977,0.1977,0.1977,0.1972,0.1932,0.193,0.195,0.0,0.0,0.0,0.0,-1.0261,0.0,0.0,0.0,-0.9489,0.0,-0.9474,-0.9509,-0.952,-0.9454,-0.9386,-0.9268,-0.7881,0.0,-0.6769,-0.5673,0.0,0.0,-0.3302,-0.2806,-0.1717,0.0,0.0,0.0,0.0,-0.0657,-0.0354,-0.0101,0.0,0.0,0.0,0.0,0.0,0.0,0.0,0.0,0.0,0.0,0.0,0.0,0.0,0.0,0.0,0.0,0.0,0.0,0.0,0.0,0.0,0.0,0.0,0.0,0.0202,0.0405,0.0405,0.076,0.1165,0.1165,0.0,0.0,0.0,0.0,0.1714,0.0,0.0,0.0,0.0,0.0,0.0,0.1795,0.1795,0.1795,0.0,0.0,0.0,0.0,0.0,0.0,0.0,0.0,0.1795,0.1795,0.1795,0.1795,0.0,0.1795,0.1795,0.1795,0.1795,0.1795,0.1795,0.1795,0.181,0.1783,0.1784,0.1815,0.1871,0.1932,0.1949,0.1977,0.1977,0.1977,0.1977,0.1977,0.1977,0.1977,0.1977,0.1977,0.1977,0.1977,0.1977,0.1977,-1.1268,-1.0547,-1.0057,0.0,-0.9859,-0.9669,0.0,0.0,0.0,0.0,-0.9457,-0.9233,-0.941,-0.9342,-0.8828,-0.7773,-0.6666,0.0,0.0,0.0,0.0,-0.2228,-0.3023,-0.2891,-0.1747,-0.1665,0.0,-0.098,0.0,-0.0556,-0.0101,-0.0051,0.0,0.0,0.0,0.0,0.0,0.0,0.0,0.0,0.0,0.0,0.0,0.0,0.0,0.0,0.0,0.0,0.0,0.0,0.0,0.0,0.0,0.0,0.0,0.0,0.0052,0.0158,0.0368,0.0526,0.0631,0.0842,0.1162,0.1378,0.0,0.0,0.0,0.0,0.0,0.0,0.0,0.0,0.0,0.0,0.0,0.0,0.0,0.0,0.0,0.0,0.0,0.0,0.0,0.0,0.1795,0.1795,0.1795,0.1795,0.1795,0.0,0.1795,0.1795,0.1795,0.1795,0.1795,0.1795,0.181,0.1783,0.1864,0.1894,0.1932,0.1954,0.1969,0.1977,0.1977,0.1977,0.1977,0.1977,0.1977,0.1977,0.1977,0.1977,0.1977,0.1977,0.1977,0.1977,-1.0498,0.0,0.0,-0.9868,0.0,0.0,-0.9784,0.0,0.0,-0.9594,-0.9417,0.0,-0.93,-0.9277,-0.8758,-0.7369,-0.6217,0.0,-0.3681,0.0,0.0,-0.1826,-0.2413,-0.2446,-0.1778,-0.1591,0.0,-0.0893,0.0,-0.0414,0.0,0.0,0.0,0.0,0.0,0.0,0.0,0.0,0.0,0.0,0.0,0.0,0.0,0.0,0.0,0.0,0.0,0.0,0.0,0.0,0.0,0.0,0.0,0.0,0.0,0.0,0.0,0.0054,0.0161,0.0321,0.0427,0.0587,0.0858,0.1132,0.1294,0.1421,0.1604,0.0,0.0,0.0,0.0,0.0,0.0,0.0,0.0,0.0,0.0,0.0,0.0,0.0,0.0,0.0,0.0,0.1795,0.1795,0.1795,0.1795,0.1795,0.0,0.0,0.0,0.1795,0.1795,0.1795,0.1795,0.1808,0.183,0.1861,0.1891,0.1922,0.1952,0.1969,0.1977,0.1977,0.1977,0.1977,0.1977,0.1977,0.1977,0.1977,0.1977,0.1977,0.1977,0.1977,0.1977,0.1977,0.0,0.0,0.0,0.0,0.0,0.0,0.0,-0.9808,0.0,-0.9244,0.0,-0.944,-0.9238,-0.9201,-0.8638,-0.7269,0.0,-0.4796,-0.3457,-0.2359,-0.1828,-0.1802,-0.1828,-0.181,-0.181,-0.1457,0.0,0.0,0.0,-0.0267,0.0,0.0,0.0,0.0,0.0,0.0,0.0,0.0,0.0,0.0,0.0,0.0,0.0,0.0,0.0,0.0,0.0,0.0,0.0,0.0,0.0,0.0,0.0,0.0,0.0,0.0,0.0,0.0,0.0,0.0162,0.0322,0.0322,0.0597,0.0877,0.1152,0.1221,0.1346,0.1683,0.1739,0.1739,0.0,0.0,0.0,0.0,0.0,0.0,0.0,0.0,0.0,0.0,0.0,0.0,0.0,0.0,0.1795,0.1795,0.1795,0.1795,0.0,0.0,0.0,0.1795,0.1795,0.1797,0.1801,0.1827,0.1857,0.1892,0.1919,0.1947,0.1977,0.1977,0.1977,0.1977,0.1977,0.1977,0.1977,0.1977,0.1977,0.1977,0.1977,0.1977,0.1977,0.1977,0.1977,0.1977,0.0,0.0,0.0,0.0,0.0,-0.9513,-0.9439,-0.9367,-0.9338,-0.9485,-0.9345,-0.9315,-0.9384,-0.8469,-0.7377,-0.605,-0.4873,0.0,0.0,0.0,0.0,-0.1776,-0.1804,-0.1787,-0.1787,-0.1483,-0.1143,0.0,0.0,-0.0267,0.0,0.0,0.0,0.0,0.0,0.0,0.0,0.0,0.0,0.0,0.0,0.0,0.0,0.0,0.0,0.0,0.0,0.0,0.0,0.0,0.0,0.0,0.0,0.0,0.0,0.0,0.0,0.0,0.0,0.0056,0.0056,0.0056,0.0279,0.0502,0.0558,0.0783,0.1065,0.1346,0.1402,0.1458,0.1739,0.0,0.0,0.0,0.0,0.0,0.0,0.0,0.0,0.0,0.0,0.0,0.0,0.0,0.0,0.0,0.0,0.0,0.0,0.0,0.0,0.0,0.1795,0.0,0.0,0.0,0.181,0.1923,0.1928,0.1947,0.1977,0.1977,0.1977,0.1977,0.1977,0.1977,0.1977,0.1977,0.1977,0.1977,0.1977,0.1977,0.1977,0.1977,0.1977,0.1977,0.0,0.0,0.0,0.0,0.0,0.0,0.0,-0.9318,0.0,-0.9359,-0.9519,-0.9295,-0.854,-0.8065,-0.6964,-0.4874,-0.4242,-0.3329,-0.1971,-0.1896,-0.1815,-0.1784,-0.1826,0.0,-0.157,-0.1224,-0.0942,-0.0665,0.0,0.0,0.0,0.0,0.0,0.0,0.0,0.0,0.0,0.0,0.0,0.0,0.0,0.0,0.0,0.0,0.0,0.0,0.0,0.0,0.0,0.0,0.0,0.0,0.0,0.0,0.0,0.0,0.0,0.0,0.0,0.0,0.0,0.0,0.0112,0.0224,0.0393,0.0505,0.0729,0.1009,0.1065,0.1177,0.1458,0.1683,0.0,0.0,0.0,0.0,0.0,0.0,0.0,0.0,0.0,0.0,0.0,0.0,0.0,0.0,0.0,0.0,0.0,0.0,0.0,0.0,0.0,0.0,0.0,0.0,0.0,0.1871,0.1947,0.1962,0.1977,0.1977,0.1977,0.1977,0.1977,0.1977,0.1977,0.1977,0.1977,0.1977,0.1977,0.1977,0.1977,0.1977,0.1986,0.1996,0.0,-0.94,0.0,0.0,-0.9395,0.0,-0.9171,-0.8993,-0.8845,-0.8845,-0.9218,-0.8894,-0.7417,-0.7132,-0.6202,-0.4059,-0.3632,-0.3065,-0.2003,-0.1934,-0.185,-0.1803,-0.1795,-0.1664,-0.1354,-0.1071,-0.0732,0.0,0.0,0.0,0.0,0.0,0.0,0.0,0.0,0.0,0.0,0.0,0.0,0.0,0.0,0.0,0.0,0.0,0.0,0.0,0.0,0.0,0.0,0.0,0.0,0.0,0.0,0.0,0.0,0.0,0.0,0.0,0.0,0.0,0.0,0.0,0.0,0.0056,0.028,0.0336,0.0393,0.0729,0.0841,0.1009,0.1234,0.1514,0.0,0.0,0.0,0.0,0.0,0.0,0.0,0.0,0.0,0.0,0.0,0.0,0.0,0.0,0.0,0.0,0.0,0.0,0.0,0.0,0.0,0.1795,0.1801,0.0,0.1934,0.1941,0.1965,0.1977,0.1977,0.1977,0.1977,0.1977,0.1977,0.1977,0.1977,0.1977,0.1977,0.1977,0.1977,0.1977,0.1977,0.1983,0.1999,0.2016,0.0,0.0,0.0,0.0,0.0,0.0,-0.7759,-0.7699,-0.7771,-0.7771,-0.779,-0.7363,-0.618,-0.4974,-0.4182,-0.3937,-0.2836,-0.2098,-0.1973,-0.1947,-0.1868,-0.1863,-0.1896,-0.175,-0.1377,-0.109,-0.074,0.0,0.0,0.0,0.0,0.0,0.0,0.0,0.0,0.0,0.0,0.0,0.0,0.0,0.0,0.0,0.0,0.0,0.0,0.0,0.0,0.0,0.0,0.0,0.0,0.0,0.0,0.0,0.0,0.0,0.0,0.0,0.0,0.0,0.0,0.0,0.0,0.0,0.0056,0.0056,0.0112,0.0393,0.0673,0.1009,0.1234,0.1346,0.1458,0.0,0.0,0.0,0.0,0.0,0.0,0.0,0.0,0.0,0.0,0.1795,0.0,0.0,0.0,0.0,0.0,0.0,0.0,0.1779,0.0,0.1895,0.1862,0.1868,0.1945,0.1973,0.1975,0.1977,0.1977,0.1977,0.1977,0.1977,0.1977,0.1977,0.1977,0.1977,0.1977,0.1977,0.1977,0.1977,0.1979,0.2005,0.2016,0.2022,0.0,0.0,0.0,0.0,0.0,0.0,0.0,-0.6403,-0.6208,-0.5475,-0.6088,-0.61,-0.4853,-0.4243,-0.357,-0.2836,-0.2284,-0.1977,-0.1977,-0.1965,-0.195,-0.1932,-0.168,-0.1424,-0.1109,-0.0758,-0.0463,0.0,0.0,0.0,0.0,0.0,0.0,0.0,0.0,0.0,0.0,0.0,0.0,0.0,0.0,0.0,0.0,0.0,0.0,0.0,0.0,0.0,0.0,0.0,0.0,0.0,0.0,0.0,0.0,0.0,0.0,0.0,0.0,0.0,0.0,0.0,0.0,0.0,0.0,0.0,0.0056,0.0112,0.0393,0.0673,0.1009,0.1177,0.1402,0.0,0.0,0.0,0.0,0.0,0.0,0.0,0.0,0.0,0.0,0.0,0.0,0.0,0.0,0.0,0.0,0.0,0.0,0.1867,0.0,0.1919,0.1871,0.1949,0.1964,0.1977,0.1977,0.1977,0.1977,0.1977,0.1977,0.1977,0.1977,0.1977,0.1977,0.1977,0.1977,0.1978,0.1995,0.2002,0.2005,0.2035,0.2057,0.2075,-0.6585,0.0,-0.543,0.0,-0.5512,-0.5465,-0.5192,-0.5143,-0.4739,-0.3505,-0.4185,-0.4367,-0.3448,-0.3325,-0.2958,-0.2099,-0.1977,-0.1977,-0.1977,-0.1977,-0.1906,-0.1763,-0.158,0.0,-0.0772,-0.0534,-0.0294,0.0,0.0,0.0,0.0,0.0,0.0,0.0,0.0,0.0,0.0,0.0,0.0,0.0,0.0,0.0,0.0,0.0,0.0,0.0,0.0,0.0,0.0,0.0,0.0,0.0,0.0,0.0,0.0,0.0,0.0,0.0,0.0,0.0,0.0,0.0,0.0,0.0,0.0,0.0,0.0,0.0,0.0168,0.0393,0.0841,0.1065,0.1294,0.1705,0.0,0.0,0.0,0.0,0.0,0.0,0.0,0.1821,0.1821,0.0,0.0,0.0,0.0,0.0,0.0,0.0,0.0,0.0,0.0,0.0,0.1945,0.1966,0.1977,0.1977,0.1977,0.1977,0.1977,0.1977,0.1977,0.1977,0.1977,0.1977,0.1977,0.1977,0.1981,0.1991,0.2011,0.2024,0.2035,0.2066,0.2091,0.211,-0.5437,-0.5452,-0.5542,-0.5691,-0.5708,-0.5315,-0.411,-0.3936,-0.3447,-0.2161,-0.2038,-0.2038,-0.2038,-0.2038,-0.2038,-0.1977,-0.1977,-0.1977,-0.1977,-0.1977,-0.1853,0.0,0.0,-0.1165,-0.0543,-0.0482,-0.0359,0.0,0.0,0.0,0.0,0.0,0.0,0.0,0.0,0.0,0.0,0.0,0.0,0.0,0.0,0.0,0.0,0.0,0.0,0.0,0.0,0.0,0.0,0.0,0.0,0.0,0.0,0.0,0.0,0.0,0.0,0.0,0.0,0.0,0.0,0.0,0.0,0.0,0.0,0.0,0.0,0.0,0.0,0.0168,0.0785,0.0897,0.1077,0.1699,0.0,0.0,0.0,0.0,0.0,0.0,0.1885,0.1885,0.1885,0.0,0.0,0.0,0.0,0.0,0.0,0.0,0.0,0.187,0.196,0.0,0.1976,0.1976,0.1977,0.1977,0.1977,0.1977,0.1977,0.1977,0.1977,0.1977,0.1977,0.1977,0.1977,0.1977,0.1993,0.2018,0.2018,0.2037,0.2067,0.2097,0.2109,0.2114,-0.4255,-0.3605,-0.3055,-0.313,-0.316,-0.3066,-0.265,-0.259,-0.2468,-0.2038,-0.1977,-0.1977,-0.1977,-0.1977,-0.1977,0.0,-0.1791,-0.1667,0.0,-0.142,-0.1297,-0.1173,-0.0926,-0.0739,-0.049,-0.0306,-0.0122,0.0,0.0,0.0,0.0,0.0,0.0,0.0,0.0,0.0,0.0,0.0,0.0,0.0,0.0,0.0,0.0,0.0,0.0,0.0,0.0,0.0,0.0,0.0,0.0,0.0,0.0,0.0,0.0,0.0,0.0,0.0,0.0,0.0,0.0,0.0,0.0,0.0,0.0,0.0,0.0,0.0,0.0,0.0169,0.0809,0.0692,0.0867,0.1719,0.1657,0.0,0.0,0.0,0.0,0.0,0.1886,0.2238,0.0,0.3208,0.0,0.0,0.0,0.0,0.0,0.0,0.0,0.0,0.1972,0.0,0.1977,0.1977,0.1977,0.1977,0.1977,0.1977,0.1977,0.1977,0.1977,0.1977,0.1977,0.1988,0.2005,0.2005,0.2022,0.2052,0.2072,0.2086,0.2098,0.2129,0.2807,0.3608,-0.3028,-0.2407,-0.1948,-0.1948,-0.1964,-0.1977,-0.1977,-0.1977,-0.1977,-0.1853,-0.1791,-0.1795,-0.1618,-0.1619,0.0,-0.1792,-0.1482,-0.1297,-0.1297,-0.1111,-0.0926,-0.0803,-0.0617,-0.0432,-0.0309,-0.0123,0.0,0.0,0.0,0.0,0.0,0.0,0.0,0.0,0.0,0.0,0.0,0.0,0.0,0.0,0.0,0.0,0.0,0.0,0.0,0.0,0.0,0.0,0.0,0.0,0.0,0.0,0.0,0.0,0.0,0.0,0.0,0.0,0.0,0.0,0.0,0.0,0.0,0.0,0.0,0.0,0.0,0.0,0.0,0.0117,0.0598,0.0537,0.0656,0.1389,0.1445,0.15,0.174,0.0,0.0,0.0,0.0,0.0,0.0,0.4644,0.4672,0.0,0.0,0.0,0.0,0.0,0.0,0.3449,0.3451,0.0,0.3451,0.2959,0.2714,0.2714,0.2222,0.1977,0.1977,0.1977,0.1977,0.1977,0.1988,0.2003,0.202,0.2031,0.2374,0.2927,0.2953,0.3236,0.3717,0.375,0.4366,0.5101,-0.1934,-0.1957,-0.1977,0.0,-0.1977,0.0,-0.1915,-0.1916,-0.1794,-0.1485,-0.1486,-0.137,-0.101,-0.0949,-0.1069,-0.1427,0.0,0.0,0.0,-0.0927,-0.0803,-0.0494,-0.0494,-0.0309,0.0,0.0,0.0,0.0,0.0,0.0,0.0,0.0,0.0,0.0,0.0,0.0,0.0,0.0,0.0,0.0,0.0,0.0,0.0,0.0,0.0,0.0,0.0,0.0,0.0,0.0,0.0,0.0,0.0,0.0,0.0,0.0,0.0,0.0,0.0,0.0,0.0,0.0,0.0,0.0,0.0,0.0,0.0,0.0,0.0,0.0062,0.037,0.037,0.0556,0.0988,0.1296,0.1605,0.179,0.0,0.0,0.0,0.0,0.0,0.0,0.6018,0.6018,0.0,0.0,0.0,0.0,0.0,0.4734,0.5835,0.5896,0.5896,0.5896,0.4671,0.4059,0.3997,0.2836,0.2285,0.2285,0.2285,0.2285,0.2289,0.2257,0.2273,0.228,0.2376,0.3189,0.4478,0.4478,0.524,0.6433,0.6433,0.6431,0.6566,0.0,0.0,-0.1915,-0.1667,-0.1606,-0.1544,-0.1297,-0.1247,-0.1194,-0.1131,-0.1142,-0.1087,-0.1026,-0.0771,-0.0641,-0.0703,-0.0696,-0.0628,-0.0628,-0.0373,-0.0185,-0.0123,-0.0123,-0.0062,0.0,0.0,0.0,0.0,0.0,0.0,0.0,0.0,0.0,0.0,0.0,0.0,0.0,0.0,0.0,0.0,0.0,0.0,0.0,0.0,0.0,0.0,0.0,0.0,0.0,0.0,0.0,0.0,0.0,0.0,0.0,0.0,0.0,0.0,0.0,0.0,0.0,0.0,0.0,0.0,0.0,0.0,0.0,0.0,0.0,0.0123,0.0432,0.0247,0.0679,0.2527,0.2649,0.3078,0.4611,0.5163,0.0,0.0,0.5712,0.6324,0.7307,0.7429,0.7429,0.0,0.0,0.0,0.0,0.7121,0.6632,0.5896,0.5896,0.5896,0.5896,0.559,0.5406,0.5406,0.5102,0.4981,0.4981,0.4981,0.5012,0.5131,0.5149,0.5224,0.5337,0.5354,0.5602,0.5871,0.5871,0.6082,0.6433,0.6433,0.71,0.8105,-0.1544,-0.1544,-0.1482,-0.1297,-0.1297,-0.1238,-0.0997,-0.1006,-0.095,-0.0765,-0.0771,-0.0711,-0.0586,-0.039,-0.0261,-0.0263,-0.0258,-0.0255,-0.0255,-0.0127,0.0,0.0,0.0,0.0,0.0,0.0,0.0,0.0,0.0,0.0,0.0,0.0,0.0,0.0,0.0,0.0,0.0,0.0,0.0,0.0,0.0,0.0,0.0,0.0,0.0,0.0,0.0,0.0,0.0,0.0,0.0,0.0,0.0,0.0,0.0,0.0,0.0,0.0,0.0,0.0,0.0,0.0,0.0,0.0,0.0,0.0,0.0,0.0,0.0,0.0247,0.1047,0.1047,0.1539,0.3507,0.3815,0.4243,0.5469,0.6326,0.0,0.6815,0.7304,0.798,0.8714,0.8778,0.8778,0.8778,0.8778,0.0,0.8778,0.8778,0.8407,0.7734,0.7673,0.7673,0.7673,0.7121,0.651,0.5896,0.5896,0.5896,0.5898,0.5939,0.6048,0.61,0.6186,0.6281,0.6376,0.6415,0.679,0.7436,0.7436,0.7769,0.8371,0.8371,0.8842,0.9579,-0.105,-0.0988,-0.0989,-0.0929,-0.0928,-0.0931,-0.0883,-0.0824,-0.0765,-0.0452,-0.0454,-0.0326,0.0,0.0,0.0,0.0,0.0,0.0,0.0,0.0,0.0,0.0,0.0,0.0,0.0,0.0,0.0,0.0,0.0,0.0,0.0,0.0,0.0,0.0,0.0,0.0,0.0,0.0,0.0,0.0,0.0,0.0,0.0,0.0,0.0,0.0,0.0,0.0,0.0,0.0,0.0,0.0,0.0,0.0,0.0,0.0,0.0,0.0,0.0,0.0,0.0,0.0,0.0,0.0062,0.0247,0.0309,0.037,0.0556,0.0617,0.0924,0.209,0.2273,0.2825,0.4484,0.5037,0.5408,0.5961,0.0,0.8163,0.8163,0.9147,0.9822,0.9822,0.9822,0.9822,0.9822,0.9822,0.9822,0.9822,0.9822,0.9822,0.9822,0.9822,0.9822,0.9822,0.8714,0.7612,0.6508,0.6508,0.6517,0.6535,0.662,0.6739,0.6778,0.6951,0.7044,0.7078,0.7091,0.7804,0.8965,0.8965,0.9707,1.0789,1.0789,1.0772,1.0755,-0.0988,-0.0988,-0.093,-0.0628,-0.056,-0.0497,-0.019,-0.0129,-0.013,-0.0065,-0.0066,-0.0067,0.0,0.0,0.0,0.0,0.0,0.0,0.0,0.0,0.0,0.0,0.0,0.0,0.0,0.0,0.0,0.0,0.0,0.0,0.0,0.0,0.0,0.0,0.0,0.0,0.0,0.0,0.0,0.0,0.0,0.0,0.0,0.0,0.0,0.0,0.0,0.0,0.0,0.0,0.0,0.0,0.0,0.0,0.0,0.0,0.0,0.0,0.0,0.0,0.0,0.0,0.0,0.0309,0.142,0.1667,0.1977,0.309,0.3322,0.3373,0.3565,0.3625,0.4237,0.62,0.6569,0.7182,0.89,0.0,0.9515,0.9515,0.9697,0.9822,0.9822,0.9822,0.9822,0.9822,0.9822,0.9822,0.9822,0.9822,0.9822,0.9822,0.9822,0.9822,0.9822,0.9576,0.939,0.9204,0.9204,0.9271,0.9386,0.9411,0.9548,0.9838,0.9818,0.9974,1.02,1.0222,1.0435,1.0816,1.0816,1.0953,1.1094,1.1094,1.1016,1.0847,-0.0494,-0.0432,-0.0433,-0.0249,-0.0251,-0.019,0.0,0.0,0.0,0.0,0.0,0.0,0.0,0.0,0.0,0.0,0.0,0.0,0.0,0.0,0.0,0.0,0.0,0.0,0.0,0.0,0.0,0.0,0.0,0.0,0.0,0.0,0.0,0.0,0.0,0.0,0.0,0.0,0.0,0.0,0.0,0.0,0.0,0.0,0.0,0.0,0.0,0.0,0.0,0.0,0.0,0.0,0.0,0.0,0.0,0.0,0.0,0.0,0.0,0.0,0.0185,0.0925,0.1049,0.1419,0.2714,0.3021,0.3203,0.3752,0.3925,0.4163,0.5091,0.5275,0.5888,0.7858,0.8166,0.0,0.0,0.9822,0.9822,0.9822,0.9822,0.9822,0.9822,0.9822,0.9822,0.9822,0.9822,0.9822,0.9822,0.9822,0.9822,0.9822,0.9822,0.9822,0.9822,0.9822,0.9822,0.9822,0.9988,1.0103,1.0181,1.0358,1.0543,1.0741,1.0819,1.0934,1.1063,1.1063,1.1104,1.1231,1.1231,1.1231,1.1231,1.1231,1.107,1.088,-0.0062,0.0,0.0,0.0,0.0,0.0,0.0,0.0,0.0,0.0,0.0,0.0,0.0,0.0,0.0,0.0,0.0,0.0,0.0,0.0,0.0,0.0,0.0,0.0,0.0,0.0,0.0,0.0,0.0,0.0,0.0,0.0,0.0,0.0,0.0,0.0,0.0,0.0,0.0,0.0,0.0,0.0,0.0,0.0,0.0,0.0,0.0,0.0,0.0,0.0,0.0,0.0,0.0,0.0,0.0062,0.0371,0.0679,0.0925,0.0925,0.0925,0.1171,0.2157,0.2465,0.2773,0.4066,0.4372,0.4427,0.478,0.4838,0.5267,0.6618,0.6865,0.7421,0.9028,0.0,0.0,0.0,0.9822,0.9822,0.9822,0.9822,0.9822,0.9822,0.9822,0.9822,0.9822,0.9822,0.9822,0.9822,0.9822,0.9836,0.9873,0.9839,0.9839,0.9873,0.9873,0.991,0.9978,1.0215,1.0368,1.0446,1.0792,1.0897,1.1002,1.1114,1.1251,1.1216,1.1216,1.1236,1.1267,1.1267,1.1267,1.1267,1.1267,1.1155,1.0999,0.0,0.0,0.0,0.0,0.0,0.0,0.0,0.0,0.0,0.0,0.0,0.0,0.0,0.0,0.0,0.0,0.0,0.0,0.0,0.0,0.0,0.0,0.0,0.0,0.0,0.0,0.0,0.0,0.0,0.0,0.0,0.0,0.0,0.0,0.0,0.0,0.0,0.0,0.0,0.0,0.0,0.0,0.0,0.0,0.0,0.0,0.0,0.0,0.0,0.0,0.0,0.0,0.0,0.0,0.0251,0.1486,0.271,0.363,0.363,0.363,0.363,0.3753,0.3752,0.4122,0.5475,0.5728,0.6096,0.7378,0.7622,0.7742,0.8169,0.8238,0.8485,0.9214,0.0,0.0,0.9761,0.9822,0.9822,0.9822,0.9822,0.9822,0.9822,0.9822,0.9822,0.9822,0.9822,0.9822,0.9822,0.9822,0.9886,0.9967,0.9893,0.989,0.997,0.997,1.0171,1.0443,1.0466,1.0626,1.0833,1.0863,1.1023,1.1148,1.1158,1.1243,1.1372,1.1372,1.1457,1.1586,1.1586,1.1586,1.1586,1.1586,1.1399,1.1148,0.0,0.0,0.0,0.0,0.0,0.0,0.0,0.0,0.0,0.0,0.0,0.0,0.0,0.0,0.0,0.0,0.0,0.0,0.0,0.0,0.0,0.0,0.0,0.0,0.0,0.0,0.0,0.0,0.0,0.0,0.0,0.0,0.0,0.0,0.0,0.0,0.0,0.0,0.0,0.0,0.0,0.0,0.0,0.0,0.0,0.0,0.0,0.0,0.0,0.0,0.0,0.0129,0.1025,0.0704,0.0447,0.2573,0.418,0.5412,0.6162,0.5165,0.4122,0.4921,0.5167,0.5475,0.6827,0.7136,0.7322,0.8061,0.8238,0.8358,0.8854,0.8976,0.9095,0.9518,0.0,0.964,0.9758,0.9822,0.9822,0.9822,0.9822,0.9822,0.9822,0.9822,0.9859,0.9896,0.9903,1.0005,1.01,1.0107,1.0131,1.0192,1.0137,1.0134,1.0192,1.028,1.0382,1.0493,1.0775,1.0968,1.1087,1.1277,1.1392,1.1447,1.1447,1.148,1.1535,1.1535,1.1565,1.1619,1.1619,1.1619,1.1606,1.1511,1.1345,1.1151,0.0,0.0,0.0,0.0,0.0,0.0,0.0,0.0,0.0,0.0,0.0,0.0,0.0,0.0,0.0,0.0,0.0,0.0,0.0,0.0,0.0,0.0,0.0,0.0,0.0,0.0,0.0,0.0,0.0,0.0,0.0,0.0,0.0,0.0,0.0,0.0,0.0,0.0,0.0,0.0,0.0,0.0,0.0,0.0,0.0,0.0,0.0,0.0,0.0,0.0,0.0,0.0261,0.1624,0.2069,0.2314,0.413,0.5636,0.6948,0.7757,0.6673,0.5477,0.6289,0.6521,0.6766,0.7686,0.7994,0.8119,0.8369,0.848,0.8744,0.9273,0.9377,0.9542,0.9896,0.9964,0.9964,0.9964,0.9964,0.9964,0.9964,0.9964,0.9964,0.9964,0.9964,1.0008,1.0114,1.0058,1.0168,1.0276,1.0324,1.0348,1.0348,1.0439,1.049,1.049,1.0538,1.0636,1.0778,1.1087,1.126,1.1314,1.1525,1.1619,1.1619,1.1619,1.1619,1.1619,1.1619,1.1619,1.1619,1.1619,1.1619,1.1599,1.1447,1.1294,1.1141,0.0,0.0,0.0,0.0,0.0,0.0,0.0,0.0,0.0,0.0,0.0,0.0,0.0,0.0,0.0,0.0,0.0,0.0,0.0,0.0,0.0,0.0,0.0,0.0,0.0,0.0,0.0,0.0,0.0,0.0,0.0,0.0,0.0,0.0,0.0,0.0,0.0,0.0,0.0,0.0,0.0,0.0,0.0,0.0,0.0,0.0,0.0,0.0,0.0,0.0,0.0,0.0269,0.1653,0.4036,0.6302,0.63,0.7203,0.8172,0.8172,0.8172,0.8176,0.7934,0.7875,0.7875,0.7933,0.8183,0.8433,0.8433,0.8659,0.9038,0.951,0.9582,0.9731,1.0193,1.028,1.028,1.028,1.028,1.028,1.028,1.028,1.028,1.028,1.028,1.028,1.0283,1.0283,1.0283,1.0283,1.0419,1.0493,1.0493,1.0789,1.088,1.0884,1.0802,1.0948,1.1392,1.1392,1.147,1.1619,1.1619,1.1619,1.1619,1.1619,1.1619,1.1619,1.1619,1.1619,1.1619,1.1619,1.1619,1.1599,1.1447,1.1294,1.1141,0.0,0.0,0.0,0.0,0.0,0.0,0.0,0.0,0.0,0.0,0.0,0.0,0.0,0.0,0.0,0.0,0.0,0.0,0.0,0.0,0.0,0.0,0.0,0.0,0.0,0.0,0.0,0.0,0.0,0.0,0.0,0.0,0.0,0.0,0.0,0.0,0.0,0.0,0.0602,0.1404,0.0403,0.0606,0.1345,0.0404,0.0,0.0,0.0,0.0606,0.1479,0.1479,0.215,0.3086,0.354,0.5583,0.7668,0.661,0.7247,0.8345,0.8194,0.8172,0.8153,0.8144,0.8125,0.8174,0.8489,0.8602,0.8806,0.9309,0.9488,0.9618,1.0031,1.0092,1.0166,1.0273,1.028,1.028,1.028,1.028,1.028,1.028,1.028,1.028,1.028,1.028,1.0321,1.0422,1.0527,1.0588,1.0588,1.0629,1.0653,1.0653,1.0779,1.0995,1.1097,1.1158,1.126,1.1392,1.1501,1.1575,1.1619,1.1619,1.1619,1.1619,1.1619,1.1619,1.1619,1.1619,1.1619,1.1619,1.1619,1.1619,1.1589,1.1324,1.1202,1.1128,0.0,0.0,0.0,0.0,0.0,0.0,0.0,0.0,0.0,0.0,0.0,0.0,0.0,0.0,0.0,0.0,0.0,0.0,0.0,0.0,0.0,0.0,0.0,0.0,0.0,0.0,0.0,0.0,0.0,0.0,0.0,0.0,0.0,0.0,0.0,0.0337,0.0807,0.0807,0.1345,0.2017,0.1143,0.1009,0.1211,0.0942,0.0807,0.0874,0.1479,0.2217,0.2955,0.2955,0.3961,0.5099,0.5099,0.6706,0.8437,0.7504,0.782,0.847,0.8394,0.8375,0.8375,0.8505,0.8369,0.8286,0.8675,0.8877,0.917,0.9675,0.9922,1.0113,1.0325,1.0378,1.0385,1.0443,1.0456,1.0456,1.0456,1.0456,1.0456,1.0456,1.0456,1.0456,1.0456,1.0456,1.049,1.0575,1.0666,1.0721,1.0721,1.0778,1.0809,1.0809,1.1016,1.1165,1.1253,1.1406,1.148,1.1484,1.1575,1.1619,1.1619,1.1619,1.1619,1.1619,1.1619,1.1619,1.1619,1.1619,1.1619,1.1619,1.1619,1.1582,1.1501,1.1253,1.1128,1.1043,0.0,0.0,0.0,0.0,0.0,0.0,0.0,0.0,0.0,0.0,0.0,0.0,0.0,0.0,0.0,0.0,0.0,0.0,0.0,0.0,0.0,0.0,0.0,0.0,0.0,0.0,0.0,0.0,0.0,0.0,0.0,0.0135,0.0202,0.0202,0.0336,0.1076,0.2285,0.2151,0.2151,0.2285,0.2151,0.1412,0.0538,0.1815,0.2285,0.2486,0.3825,0.4361,0.4495,0.4629,0.5568,0.6577,0.6577,0.7514,0.8587,0.8587,0.8587,0.8653,0.8653,0.8653,0.8787,0.9053,0.8751,0.8459,0.8843,0.9156,0.9466,0.9796,1.0123,1.037,1.0482,1.0536,1.0558,1.0697,1.0721,1.0721,1.0721,1.0721,1.0721,1.0721,1.0721,1.0721,1.0721,1.0721,1.0721,1.0721,1.0721,1.0724,1.0741,1.0806,1.0887,1.0897,1.1243,1.1392,1.1392,1.1541,1.1619,1.1619,1.1619,1.1619,1.1619,1.1619,1.1619,1.1619,1.1619,1.1619,1.1619,1.1619,1.1619,1.1619,1.1619,1.1528,1.1372,1.1219,1.107,1.086,0.0,0.0,0.0,0.0,0.0,0.0,0.0,0.0,0.0,0.0,0.0,0.0,0.0,0.0,0.0,0.0,0.0,0.0,0.0,0.0,0.0,0.0,0.0,0.0,0.0,0.0,0.0,0.0,0.0,0.0,0.0,0.1143,0.1614,0.1681,0.282,0.3557,0.3758,0.2621,0.2754,0.3691,0.2554,0.262,0.3423,0.3691,0.3825,0.3892,0.4159,0.5033,0.6107,0.7312,0.7848,0.8117,0.8117,0.8318,0.8587,0.8587,0.8784,0.8984,0.8984,0.9256,0.9461,0.9525,0.9483,0.9441,0.9836,0.9981,1.0125,1.0455,1.0587,1.06,1.0644,1.0627,1.068,1.0714,1.0721,1.0721,1.0721,1.0721,1.0721,1.0721,1.0721,1.0721,1.0721,1.0721,1.0721,1.0721,1.0721,1.0772,1.0826,1.0863,1.0999,1.1114,1.1294,1.1392,1.1392,1.1541,1.1619,1.1619,1.1619,1.1619,1.1619,1.1619,1.1619,1.1619,1.1619,1.1619,1.1619,1.1619,1.1619,1.1619,1.1619,1.1528,1.1372,1.1219,1.107,1.0877,0.0,0.0,0.0,0.0,0.0,0.0,0.0,0.0,0.0,0.0,0.0,0.0,0.0,0.0,0.0269,0.0942,0.1009,0.1277,0.2016,0.1412,0.1009,0.1009,0.0336,0.0,0.0,0.0,0.0,0.0,0.0,0.0,0.0,0.074,0.1076,0.1143,0.1881,0.2619,0.3223,0.3156,0.3624,0.4293,0.4162,0.4229,0.4361,0.5031,0.53,0.5367,0.6103,0.684,0.7581,0.8318,0.8587,0.8653,0.8784,0.8851,0.8853,0.9056,0.9256,0.9389,0.9389,0.9525,0.9728,0.9927,0.9927,0.9994,1.0193,1.0193,1.0323,1.0654,1.0721,1.0721,1.0721,1.0721,1.0721,1.0721,1.0721,1.0721,1.0721,1.0721,1.0721,1.0721,1.0721,1.0721,1.0721,1.0721,1.0751,1.0756,1.0829,1.0894,1.1043,1.1121,1.1196,1.127,1.1419,1.1501,1.1501,1.1579,1.1619,1.1619,1.1619,1.1619,1.1619,1.1619,1.1619,1.1619,1.1619,1.1619,1.1619,1.1619,1.1619,1.1619,1.1619,1.1528,1.1382,1.1301,1.1179,1.105,0.0,0.0,0.0,0.0,0.0,0.0,0.0,0.0,0.0,0.0,0.0,0.0,0.0,0.0202,0.0942,0.2352,0.2218,0.262,0.3825,0.2553,0.1815,0.2084,0.074,0.0202,0.074,0.0269,0.0,0.0,0.0,0.0,0.0,0.0471,0.074,0.074,0.1277,0.215,0.3291,0.4227,0.4629,0.4763,0.5904,0.5704,0.483,0.6241,0.6777,0.6911,0.8184,0.8653,0.8653,0.8653,0.872,0.8853,0.912,0.9186,0.9253,0.9594,0.9728,0.9794,0.9794,0.9794,0.9927,1.0193,1.0256,1.0256,1.0256,1.0256,1.0389,1.0654,1.0721,1.0721,1.0721,1.0721,1.0721,1.0721,1.0721,1.0721,1.0721,1.0721,1.0721,1.0721,1.0721,1.0721,1.0721,1.0744,1.0812,1.0873,1.0904,1.105,1.1196,1.1321,1.1402,1.143,1.1552,1.1619,1.1619,1.1619,1.1619,1.1619,1.1619,1.1619,1.1619,1.1619,1.1619,1.1619,1.1619,1.1619,1.1619,1.1619,1.1619,1.1619,1.1619,1.1528,1.1389,1.1362,1.1287,1.1202,0.0,0.0,0.0,0.0,0.0,0.0,0.0,0.0,0.0,0.0,0.0,0.0,0.0,0.1076,0.2418,0.3892,0.2821,0.2218,0.2352,0.1076,0.0807,0.2017,0.074,0.1143,0.369,0.1277,0.0,0.0,0.0,0.0,0.0067,0.2552,0.369,0.3824,0.6303,0.7512,0.7646,0.6575,0.6107,0.6107,0.6307,0.6309,0.6307,0.7715,0.832,0.8318,0.852,0.8784,0.905,0.905,0.9256,0.9528,0.9594,0.9594,0.9661,0.9661,0.9927,1.0123,1.0123,1.0323,1.0588,1.0588,1.0654,1.0654,1.0654,1.0654,1.0654,1.0721,1.0721,1.0721,1.0721,1.0721,1.0721,1.0721,1.0721,1.0721,1.0721,1.0721,1.0721,1.0721,1.0721,1.0721,1.0721,1.0772,1.0857,1.088,1.1063,1.1199,1.1352,1.1382,1.1453,1.1586,1.1609,1.1619,1.1619,1.1619,1.1619,1.1619,1.1619,1.1619,1.1619,1.1619,1.1619,1.1619,1.1619,1.1619,1.1619,1.1619,1.1619,1.1619,1.1619,1.1528,1.1375,1.1243,1.1263,1.1358,0.0,0.0,0.0,0.0,0.0,0.0,0.0,0.0673,0.1143,0.1143,0.1881,0.2418,0.2418,0.2955,0.3894,0.5367,0.49,0.4832,0.5704,0.4363,0.3827,0.4498,0.3156,0.3021,0.4293,0.3221,0.2684,0.2684,0.168,0.1613,0.2418,0.369,0.4293,0.4361,0.5633,0.617,0.6237,0.6374,0.6508,0.6775,0.7379,0.7715,0.7979,0.8451,0.8587,0.8653,0.8787,0.8984,0.9117,0.9389,0.9525,0.9728,0.9927,0.9994,0.9994,1.0193,1.0389,1.0455,1.0455,1.0588,1.0721,1.0721,1.0721,1.0721,1.0721,1.0721,1.0721,1.0721,1.0721,1.0721,1.0721,1.0721,1.0721,1.0721,1.0721,1.0721,1.0721,1.0721,1.0721,1.0721,1.0795,1.0782,1.0782,1.0982,1.1104,1.1189,1.1257,1.1358,1.1511,1.1518,1.1548,1.1616,1.1619,1.1619,1.1619,1.1619,1.1619,1.1619,1.1619,1.1619,1.1619,1.1619,1.1619,1.1619,1.1619,1.1619,1.1619,1.1619,1.1619,1.1619,1.1619,1.1575,1.1511,1.1443,1.146,1.1518]},{"header":{"parameterUnit":"m.s-1","parameterCategory":1,"la1":30.6,"la2":28.766,"lo1":-90.7593,"lo2":-88.6598,"dy":0.0162,"dx":0.0183,"nx":116,"ny":114,"refTime":"2023-10-02T06:00:00:Z","depth":0,"parameterNumber":3,"parameterNumberName":"V-component_of_WINDS"},"data":[0.0,0.0,0.0,0.0,0.0,0.0,0.0,0.0,0.0,0.0,0.0,0.0,0.0,0.0,0.0,0.0,0.0,0.0,0.0,0.0,0.0,0.0,0.0,0.0,0.0,0.0,0.0,0.0,0.0,0.0,0.0,0.0,0.0,0.0,0.0,0.0,0.0,0.0,0.0,0.0,0.0,0.0,0.0,0.0,0.0,0.0,0.0,0.0,0.0,0.0,0.0,0.0,0.0,0.0,0.0,0.0,0.0,0.0,0.0,0.0,0.0,0.0,0.0,0.0,0.0,0.0,0.0,0.0,0.0,0.0,0.0,0.0,0.0,0.0,0.0,0.0,0.0,0.0,0.0,0.0,0.0,0.0,0.0,0.0,0.0,0.0,0.0,0.0,0.0,0.0,0.0,0.0,0.0,0.0,0.0,0.0,0.0,0.0,0.0,0.0,0.0,0.0,0.0,0.0,0.0,0.0,0.0,0.0,0.0,0.0,0.0,0.0,0.0,0.0,0.0,0.0,0.0,0.0,0.0,0.0,0.0,0.0,0.0,0.0,0.0,0.0,0.0,0.0,0.0,0.0,0.0,0.0,0.0,0.0,0.0,0.0,0.0,0.0,0.0,0.0,0.0,0.0,0.0,0.0,0.0,0.0,0.0,0.0,0.0,0.0,0.0,0.0,0.0,0.0,0.0,0.0,0.0,0.0,0.0,0.0,0.0,0.0,0.0,0.0,0.0,0.0,0.0,0.0,0.0,0.0,0.0,0.0,0.0,0.0,0.0,0.0,0.0,0.0,0.0,0.0,0.0,0.0,0.0,0.0,0.0,0.0,0.0,0.0,0.0,0.0,0.0,0.0,0.0,0.0,0.0,0.0,0.0,0.0,0.0,0.0,0.0,0.0,0.0,0.0,0.0,0.0,0.0,0.0,0.0,0.0,0.0,0.0,0.0,0.0,0.0,0.0,0.0,0.0,0.0,0.0,0.0,0.0,0.0,0.0,0.0,0.0,0.0,0.0,0.0,0.0,0.0,0.0,0.0,0.0,0.0,0.0,0.0,0.0,0.0,0.0,0.0,0.0,0.0,0.0,0.0,0.0,0.0,0.0,0.0,0.0,0.0,0.0,0.0,0.0,0.0,0.0,0.0,0.0,0.0,0.0,0.0,0.0,0.0,0.0,0.0,0.0,0.0,0.0,0.0,0.0,0.0,0.0,0.0,0.0,0.0,0.0,0.0,0.0,0.0,0.0,0.0,0.0,0.0,0.0,0.0,0.0,0.0,0.0,0.0,0.0,0.0,0.0,0.0,0.0,0.0,0.0,0.0,0.0,0.0,0.0,0.0,0.0,0.0,0.0,0.0,0.0,0.0,0.0,0.0,0.0,0.0,0.0,0.0,0.0,0.0,0.0,0.0,0.0,0.0,0.0,0.0,0.0,0.0,0.0,0.0,0.0,0.0,0.0,0.0,0.0,0.0,0.0,0.0,0.0,0.0,0.0,0.0,0.0,0.0,0.0,0.0,0.0,0.0,0.0,0.0,0.0,0.0,0.0,0.0,0.0,0.0,0.0,0.0,0.0,0.0,0.0,0.0,0.0,0.0,0.0,0.0,0.0,0.0,0.0,0.0,0.0,0.0,0.0,0.0,0.0,0.0,0.0,0.0,0.0,0.0,0.0,0.0,0.0,0.0,0.0,0.0,0.0,0.0,0.0,0.0,0.0,0.0,0.0,0.0,0.0,0.0,0.0,0.0,0.0,0.0,0.0,0.0,0.0,0.0,0.0,0.0,0.0,0.0,0.0,0.0,0.0,0.0,0.0,0.0,0.0,0.0,0.0,0.0,0.0,0.0,0.0,0.0,0.0,0.0,0.0,0.0,0.0,0.0,0.0,0.0,0.0,0.0,0.0,0.0,0.0,0.0,0.0,0.0,0.0,0.0,0.0,0.0,0.0,0.0,0.0,0.0,0.0,0.0,0.0,0.0,0.0,0.0,0.0,0.0,0.0,0.0,0.0,0.0,0.0,0.0,0.0,0.0,0.0,0.0,0.0,0.0,0.0,0.0,0.0,0.0,0.0,0.0,0.0,0.0,0.0,0.0,0.0,0.0,0.0,0.0,0.0,0.0,0.0,0.0,0.0,0.0,0.0,0.0,0.0,0.0,0.0,0.0,0.0,0.0,0.0,0.0,0.0,0.0,0.0,0.0,0.0,0.0,0.0,0.0,0.0,0.0,0.0,0.0,0.0,0.0,0.0,0.0,0.0,0.0,0.0,0.0,0.0,0.0,0.0,0.0,0.0,0.0,0.0,0.0,0.0,0.0,0.0,0.0,0.0,0.0,0.0,0.0,0.0,0.0,0.0,0.0,0.0,0.0,0.0,0.0,0.0,0.0,0.0,0.0,0.0,0.0,0.0,0.0,0.0,0.0,0.0,0.0,0.0,0.0,0.0,0.0,0.0,0.0,0.0,0.0,0.0,0.0,0.0,0.0,0.0,0.0,0.0,0.0,0.0,0.0,0.0,0.0,0.0,0.0,0.0,0.0,0.0,0.0,0.0,0.0,0.0,0.0,0.0,0.0,0.0,0.0,0.0,0.0,0.0,0.0,0.0,0.0,0.0,0.0,0.0,0.0,0.0,0.0,0.0,0.0,0.0,0.0,0.0,0.0,0.0,0.0,0.0,0.0,0.0,0.0,0.0,0.0,0.0,0.0,0.0,0.0,0.0,0.0,0.0,0.0,0.0,0.0,0.0,0.0,0.0,0.0,0.0,0.0,0.0,0.0,0.0,0.0,0.0,0.0,0.0,0.0,0.0,0.0,0.0,0.0,0.0,0.0,0.0,0.0,0.0,0.0,0.0,0.0,0.0,0.0,0.0,0.0,0.0,0.0,0.0,0.0,0.0,0.0,0.0,0.0,0.0,0.0,0.0,0.0,0.0,0.0,0.0,0.0,0.0,0.0,0.0,0.0,0.0,0.0,0.0,0.0,0.0,0.0,0.0,0.0,0.0,0.0,0.0,0.0,0.0,0.0,0.0,0.0,0.0,0.0,0.0,0.0,0.0,0.0,0.0,0.0,0.0,0.0,0.0,0.0,0.0,0.0,0.0,0.0,0.0,0.0,0.0,0.0,0.0,0.0,0.0,0.0,0.0,0.0,0.0,0.0,0.0,0.0,0.0,0.0,0.0,0.0,0.0,0.0,0.0,0.0,0.0,0.0,0.0,0.0,0.0,0.0,0.0,0.0,0.0,0.0,0.0,0.0,0.0,0.0,0.0,0.0,0.0,0.0,0.0,0.0,0.0,0.0,0.0,0.0,0.0,0.0,0.0,0.0,0.0,0.0,0.0,0.0,0.0,0.0,0.0,0.0,0.0,0.0,0.0,0.0,0.0,0.0,0.0,0.0,0.0,0.0,0.0,0.0,0.0,0.0,0.0,0.0,0.0,0.0,0.0,0.0,0.0,0.0,0.0,0.0,0.0,0.0,0.0,0.0,0.0,0.0,0.0,0.0,0.0,0.0,0.0,0.0,0.0,0.0,0.0,0.0,0.0,0.0,0.0,0.0,0.0,0.0,0.0,0.0,0.0,0.0,0.0,0.0,0.0,0.0,0.0,0.0,0.0,0.0,0.0,0.0,0.0,0.0,0.0,0.0,0.0,0.0,0.0,0.0,0.0,0.0,0.0,0.0,0.0,0.0,0.0,0.0,0.0,0.0,0.0,0.0,0.0,0.0,0.0,0.0,0.0,0.0,0.0,0.0,0.0,0.0,0.0,0.0,0.0,0.0,0.0,0.0,0.0,0.0,0.0,0.0,0.0,0.0,0.0,0.0,0.0,0.0,0.0,0.0,0.0,0.0,0.0,0.0,0.0,0.0,0.0,0.0,0.0,0.0,0.0,0.0,0.0,0.0,0.0,0.0,0.0,0.0,0.0,0.0,0.0,0.0,0.0,0.0,0.0,0.0,0.0,0.0,0.0,0.0,0.0,0.0,0.0,0.0,0.0,0.0,0.0,0.0,0.0,0.0,0.0,0.0,0.0,0.0,0.0,0.0,0.0,0.0,0.0,0.0,0.0,0.0,0.0,0.0,0.0,0.0,0.0,0.0,0.0,0.0,0.0,0.0,0.0,0.0,0.0,0.0,0.0,0.0,0.0,0.0,0.0,0.0,0.0,0.0,0.0,0.0,0.0,0.0,0.0,0.0,0.0,0.0,0.0,0.0,0.0,0.0,0.0,0.0,0.0,0.0,0.0,0.0,0.0,0.0,0.0,0.0,0.0,0.0,0.0,0.0,0.0,0.0,0.0,0.0,0.0,0.0,0.0,0.0,0.0,0.0,0.0,0.0,0.0,0.0,0.0,0.0,0.0,0.0,0.0,0.0,0.0,0.0,0.0,0.0,0.0,0.0,0.0,0.0,0.0,0.0,0.0,0.0,0.0,0.0,0.0,0.0,0.0,0.0,0.0,0.0,0.0,0.0,0.0,0.0,0.0,0.0,0.0,0.0,0.0,0.0,0.0,0.0,0.0,0.0,0.0,0.0,0.0,0.0,0.0,0.0,0.0,0.0,0.0,0.0,0.0,0.0,0.0,0.0,0.0,0.0,0.0,0.0,0.0,0.0,0.0,0.0,0.0,0.0,0.0,0.0,0.0,0.0,0.0,0.0,0.0,0.0,0.0,0.0,0.0,0.0,0.0,0.0,0.0,0.0,0.0,0.0,0.0,0.0,0.0,0.0,0.0,0.0,0.0,0.0,0.0,0.0,0.0,0.0,0.0,0.0,0.0,0.0,0.0,0.0,0.0,0.0,0.0,0.0,0.0,0.0,0.0,0.0,0.0,0.0,0.0,0.0,0.0,0.0,0.0,0.0,0.0,0.0,0.0,0.0,0.0,0.0,0.0,0.0,0.0,0.0,0.0,0.0,0.0,0.0,0.0,0.0,0.0,0.0,0.0,0.0,0.0,0.0,0.0,0.0,0.0,0.0,0.0,0.0,0.0,0.0,0.0,0.0,0.0,0.0,0.0,0.0,0.0,0.0,0.0,0.0,0.0,0.0,0.0,0.0,0.0,0.0,0.0,0.0,0.0,0.0,0.0,0.0,0.0,0.0,0.0,0.0,0.0,0.0,0.0,0.0,0.0,0.0,0.0,0.0,0.0,0.0,0.0,0.0,0.0,0.0,0.0,0.0,0.0,0.0,0.0,0.0,0.0,0.0,0.0,0.0,0.0,0.0,0.0,0.0,0.0,0.0,0.0,0.0,0.0,0.0,0.0,0.0,0.0,0.0,0.0,0.0,0.0,0.0,0.0,0.0,0.0,0.0,0.0,0.0,0.0,0.0,0.0,0.0,0.0,0.0,0.0,0.0,0.0,0.0,0.0,0.0,0.0,0.0,0.0,0.0,0.0,0.0,0.0,0.0,0.0,0.0,0.0,0.0,0.0,0.0,0.0,0.0,0.0,0.0,0.0,0.0,0.0,0.0,0.0,0.0,0.0,0.0,0.0,0.0,0.0,0.0,0.0,0.0,0.0,0.0,0.0,0.0,0.0,0.0,0.0,0.0,0.0,0.0,0.0,0.0,0.0,0.0,0.0,0.0,0.0,0.0,0.0,0.0,0.0,0.0,0.0,0.0,0.0,0.0,0.0,0.0,0.0,0.0,0.0,0.0,0.0,0.0,0.0,0.0,0.0,0.0,0.0,0.0,0.0,0.0,0.0,0.0,0.0,0.0,0.0,0.0,0.0,0.0,0.0,0.0,0.0,0.0,0.0,0.0,0.0,0.0,0.0,0.0,0.0,0.0,0.0,0.0,0.0,0.0,0.0,0.0,0.0,0.0,0.0,0.0,0.0,0.0,0.0,0.0,0.0,0.0,0.0,0.0,0.0,0.0,0.0,0.0,0.0,0.0,0.0,0.0,0.0,0.0,0.0,0.0,0.0,0.0,0.0,0.0,0.0,0.0,0.0,0.0,0.0,0.0,0.0,0.0,0.0,0.0,0.0,0.0,0.0,0.0,0.0,0.0,0.0,0.0,0.0,0.0,0.0,0.0,0.0,0.0,0.0,0.0,0.0,0.0,0.0,0.0,0.0,0.0,0.0,0.0,0.0,0.0,0.0,0.0,0.0,0.0,0.0,1.9143,0.0,0.0,0.0,0.0,0.0,0.0,0.0,0.0,0.0,0.0,0.0,0.0,0.0,0.0,0.0,0.0,0.0,0.0,0.0,0.0,0.0,0.0,0.0,0.0,0.0,0.0,0.0,0.0,0.0,0.0,0.0,0.0,0.0,0.0,0.0,0.0,0.0,0.0,2.9934,3.0049,3.0075,3.0075,2.8912,2.8398,2.8422,0.0,0.0,0.0,0.0,0.0,0.0,0.0,0.0,0.0,0.0,0.0,0.0,0.0,0.0,0.0,0.0,0.0,0.0,0.0,0.0,0.0,0.0,0.0,0.0,0.0,0.0,0.0,0.0,0.0,0.0,0.0,0.0,0.0,0.0,0.0,0.0,0.0,0.0,0.0,0.0,0.0,0.0,0.0,0.0,0.0,0.0,0.0,0.0,0.0,0.0,0.0,0.0,0.0,0.0,0.0,0.0,0.0,0.0,0.0,0.0,0.0,0.0,0.0,0.0,0.0,0.0,0.0,0.0,0.0,0.0,0.0,1.9872,0.0,0.0,0.0,0.0,0.0,0.0,0.0,0.0,0.0,0.0,0.0,0.0,0.0,0.0,0.0,0.0,0.0,0.0,0.0,0.0,0.0,0.0,0.0,3.1729,3.1931,3.1931,3.2338,3.2321,0.0,0.0,0.0,0.0,0.0,0.0,3.0784,3.0646,3.0508,3.033,3.0406,3.0444,3.0406,3.0444,3.0062,2.9326,2.9326,0.0,0.0,0.0,0.0,0.0,0.0,0.0,0.0,0.0,0.0,0.0,0.0,0.0,0.0,0.0,0.0,0.0,0.0,0.0,0.0,0.0,0.0,0.0,0.0,0.0,0.0,0.0,0.0,0.0,0.0,0.0,0.0,0.0,0.0,0.0,0.0,0.0,0.0,0.0,0.0,0.0,0.0,0.0,0.0,0.0,0.0,0.0,0.0,0.0,0.0,0.0,0.0,0.0,0.0,0.0,0.0,0.0,0.0,0.0,0.0,0.0,0.0,0.0,2.2474,2.1988,2.1938,2.0972,2.0659,2.0913,2.1378,2.1261,2.0727,2.0461,0.0,0.0,0.0,0.0,0.0,0.0,0.0,0.0,0.0,0.0,0.0,0.0,0.0,0.0,0.0,0.0,0.0,0.0,0.0,3.2954,3.2911,3.2653,3.2483,3.2483,3.2552,3.2571,3.2464,0.0,0.0,0.0,0.0,0.0,3.2321,3.1673,3.1331,3.1331,3.0898,3.0571,3.0406,3.0571,3.0495,3.0216,3.0216,3.0216,3.0216,0.0,0.0,0.0,0.0,0.0,0.0,0.0,0.0,0.0,0.0,0.0,0.0,0.0,0.0,0.0,0.0,0.0,0.0,0.0,0.0,0.0,0.0,0.0,0.0,0.0,0.0,0.0,0.0,0.0,0.0,0.0,0.0,0.0,0.0,0.0,0.0,0.0,0.0,0.0,0.0,0.0,2.5031,2.4722,0.0,0.0,0.0,0.0,0.0,0.0,0.0,0.0,0.0,0.0,0.0,0.0,0.0,2.384,2.3989,2.3989,2.3989,2.3989,2.3438,2.3169,2.316,2.2616,2.2369,2.2464,2.3458,0.0,2.2177,2.1861,0.0,0.0,0.0,0.0,0.0,0.0,0.0,0.0,0.0,0.0,0.0,0.0,0.0,0.0,0.0,0.0,0.0,0.0,0.0,0.0,0.0,3.4835,3.4518,3.4518,3.4518,3.4172,3.3312,3.3573,0.0,0.0,3.2807,3.2953,3.2953,3.2599,3.247,3.247,3.211,3.1928,3.1978,3.2064,3.2064,3.1978,3.1978,3.1405,3.0406,3.0759,0.0,0.0,0.0,0.0,0.0,0.0,0.0,0.0,0.0,0.0,0.0,0.0,0.0,0.0,0.0,0.0,0.0,0.0,0.0,0.0,0.0,0.0,0.0,0.0,0.0,0.0,0.0,0.0,0.0,0.0,0.0,0.0,0.0,0.0,0.0,0.0,0.0,0.0,0.0,2.4988,2.4988,2.4903,2.4903,2.4964,0.0,0.0,0.0,0.0,0.0,0.0,0.0,0.0,0.0,2.5217,2.4948,2.5266,2.6282,2.6052,2.6052,2.6282,2.5363,2.4987,2.5064,2.3869,2.3398,2.3522,2.4324,2.4384,2.388,2.367,2.3593,2.3485,0.0,0.0,0.0,0.0,2.2382,2.2565,0.0,0.0,0.0,0.0,0.0,0.0,0.0,0.0,0.0,0.0,0.0,0.0,3.7144,3.6445,3.5982,3.5982,3.5674,3.4996,3.3906,3.4209,3.4032,3.3186,3.3485,3.3747,3.3905,3.3734,3.3526,3.3318,3.3185,3.3185,3.3318,3.3318,3.3318,3.3283,3.3457,3.2648,3.1158,3.1636,3.1526,3.1071,0.0,0.0,0.0,0.0,0.0,0.0,0.0,0.0,0.0,0.0,0.0,0.0,0.0,0.0,0.0,0.0,0.0,0.0,0.0,0.0,0.0,0.0,0.0,0.0,0.0,0.0,0.0,0.0,0.0,0.0,0.0,0.0,0.0,0.0,0.0,0.0,0.0,2.5126,2.5115,2.4988,2.5147,2.5314,0.0,0.0,0.0,0.0,0.0,0.0,2.6476,2.62,2.62,2.638,2.6121,2.6634,2.7987,2.7668,2.7668,2.7987,2.6907,2.6503,2.6578,2.5191,2.4618,2.4787,2.536,2.5635,2.566,2.5229,2.5038,2.4927,2.4127,2.3659,2.3477,2.3751,2.3897,2.4033,0.0,0.0,0.0,0.0,0.0,0.0,0.0,0.0,0.0,0.0,0.0,3.7151,3.7866,3.6724,3.5909,3.5909,3.4741,3.3985,3.391,3.391,3.4213,3.4848,3.4909,3.5227,3.5863,3.5187,3.4447,3.3671,3.3671,3.3671,3.3671,3.3671,3.3616,3.3506,3.4225,3.3973,3.3038,3.2904,3.282,3.2749,3.2607,0.0,0.0,0.0,0.0,0.0,0.0,0.0,0.0,0.0,0.0,0.0,0.0,0.0,0.0,0.0,0.0,0.0,0.0,0.0,0.0,0.0,0.0,0.0,0.0,0.0,0.0,0.0,0.0,0.0,0.0,0.0,0.0,0.0,0.0,0.0,0.0,0.0,0.0,2.5242,2.5787,0.0,0.0,0.0,0.0,2.7923,2.7537,2.7268,2.7222,2.7222,2.7222,2.7222,2.7649,2.7919,2.7998,2.7977,2.7977,2.7987,2.7483,2.7225,2.726,2.678,2.6544,2.66,2.7037,2.7345,2.7474,2.6306,2.5311,2.4499,2.3988,2.3276,2.2589,2.3667,2.4067,2.4249,0.0,0.0,0.0,0.0,0.0,0.0,0.0,0.0,3.6575,3.7081,3.7144,3.727,3.7517,3.675,3.6199,3.6089,3.5724,3.5252,3.4643,3.5011,3.5194,3.5002,3.5348,3.5677,3.599,3.5735,3.5462,3.5172,3.5172,3.5172,3.5172,3.5172,3.5139,3.5121,3.5382,3.5317,3.4942,3.4129,3.3547,3.3129,3.3533,3.3394,0.0,0.0,0.0,0.0,0.0,0.0,0.0,0.0,0.0,0.0,0.0,0.0,0.0,0.0,0.0,0.0,0.0,0.0,0.0,0.0,0.0,0.0,0.0,0.0,0.0,0.0,0.0,0.0,0.0,0.0,0.0,0.0,0.0,0.0,0.0,0.0,0.0,2.5242,2.5572,0.0,2.6027,2.6405,2.6838,2.731,2.7471,2.7546,2.7546,2.7686,2.7857,2.8007,2.7868,2.8025,2.8513,2.8164,2.8164,2.8513,2.8165,2.8079,2.8242,2.7651,2.739,2.7515,2.7363,2.7343,2.7411,2.6975,2.6969,2.7267,2.7096,2.683,2.6592,2.6977,2.6931,2.6674,0.0,0.0,0.0,0.0,0.0,0.0,0.0,3.6485,3.6874,3.7086,3.7191,3.7326,3.7562,3.6862,3.6321,3.6244,3.5913,3.5468,3.4843,3.5172,3.5283,3.5081,3.5653,3.6055,3.6242,3.6195,3.6163,3.6163,3.6163,3.6163,3.6163,3.6163,3.6132,3.6068,3.6068,3.6037,3.5941,3.5204,3.4595,3.4177,3.4695,3.4595,3.4177,0.0,0.0,0.0,0.0,0.0,0.0,0.0,0.0,0.0,0.0,0.0,0.0,0.0,0.0,0.0,0.0,0.0,0.0,0.0,0.0,0.0,0.0,0.0,0.0,0.0,0.0,0.0,0.0,0.0,0.0,0.0,0.0,0.0,0.0,0.0,2.5926,2.5422,2.5942,2.6298,2.6065,2.6562,2.7018,2.7298,2.7646,2.7809,2.7809,2.7917,2.8089,2.8239,2.8134,2.8291,2.8803,2.844,2.844,2.8803,2.8628,2.8617,2.8792,2.8291,2.8139,2.8265,2.7938,2.7796,2.7796,2.7796,2.8178,2.8771,2.8442,2.8311,2.8311,2.8311,2.8069,2.7729,0.0,0.0,0.0,0.0,0.0,0.0,3.6225,3.6187,3.6401,3.7006,3.7086,3.7359,3.806,3.7047,3.631,3.631,3.5173,3.4455,3.4455,3.4333,3.4561,3.5194,3.5951,3.6458,3.6708,3.6585,3.6523,3.6523,3.6492,3.6492,3.6492,3.6492,3.6383,3.6211,3.6211,3.6148,3.6005,3.6005,3.6005,3.6005,3.6005,3.6005,3.5973,0.0,0.0,0.0,0.0,0.0,0.0,0.0,0.0,0.0,0.0,0.0,0.0,0.0,0.0,0.0,0.0,0.0,0.0,0.0,0.0,0.0,0.0,0.0,0.0,0.0,0.0,0.0,0.0,0.0,0.0,0.0,0.0,0.0,2.7406,2.7214,2.6816,2.5801,2.6965,2.7426,2.6455,2.7324,2.7958,2.7969,2.7991,2.7991,2.7991,2.8012,2.8012,2.8012,2.8517,2.8803,2.8803,2.8803,2.8803,2.8803,2.8803,2.8803,2.8803,2.8803,2.8803,2.8803,2.8803,2.8803,2.8803,2.8803,2.8803,2.8705,2.7719,2.7359,2.7359,2.7359,2.7348,2.7272,0.0,0.0,0.0,0.0,0.0,0.0,3.6322,3.6259,3.6324,3.6509,3.6522,3.659,3.6797,3.65,3.6271,3.6239,3.5934,3.571,3.5571,3.5633,3.5807,3.6114,3.695,3.7225,3.6923,3.6739,3.6662,3.6662,3.6554,3.6492,3.6492,3.6492,3.646,3.6414,3.6414,3.6383,3.6352,3.6352,3.6352,3.6336,3.61,3.6005,3.6005,0.0,0.0,0.0,0.0,0.0,0.0,0.0,0.0,0.0,0.0,0.0,0.0,0.0,0.0,0.0,0.0,0.0,0.0,0.0,0.0,0.0,0.0,0.0,0.0,0.0,0.0,0.0,0.0,0.0,0.0,0.0,0.0,2.8878,2.8548,2.7896,2.7504,2.7804,2.7001,2.673,2.7414,2.7149,2.7118,2.749,2.7794,2.7991,2.7991,2.8375,2.856,2.856,2.8727,2.8803,2.8803,2.8803,2.8803,2.8803,2.8803,2.8803,2.8803,2.8803,2.8803,2.8803,2.8803,2.8803,2.8803,2.8803,2.8803,2.8771,2.8508,2.8399,2.8399,2.8399,2.8134,2.7729,0.0,0.0,0.0,0.0,0.0,0.0,3.6739,3.6678,3.6615,3.6485,3.6482,3.6482,3.6482,3.6423,3.636,3.6335,3.6318,3.6259,3.6131,3.6457,3.6632,3.6596,3.7308,3.7505,3.7089,3.6923,3.6831,3.6831,3.6739,3.6724,3.6724,3.6724,3.6724,3.6724,3.6616,3.6569,3.6569,3.6523,3.6492,3.6492,3.6289,3.6195,3.6195,3.6132,3.6085,3.5958,3.4843,3.4158,3.3659,3.2596,0.0,0.0,0.0,0.0,0.0,0.0,0.0,0.0,0.0,0.0,0.0,0.0,0.0,0.0,0.0,0.0,0.0,0.0,0.0,0.0,0.0,0.0,0.0,0.0,3.0959,3.0342,3.0342,2.9383,2.8533,2.8243,2.8068,2.7999,2.8094,2.8279,2.856,2.8909,2.8925,2.8901,2.8901,2.8824,2.8803,2.8803,2.8803,2.8803,2.8803,2.8803,2.8803,2.8803,2.8803,2.8803,2.8803,2.8803,2.8896,2.9071,2.9071,2.9209,2.9393,2.9393,2.9393,0.0,0.0,0.0,0.0,0.0,2.8617,2.8265,0.0,0.0,0.0,0.0,0.0,0.0,3.7197,3.7103,3.6949,3.6646,3.6583,3.6597,3.6684,3.6602,3.6523,3.6523,3.6423,3.636,3.636,3.7047,3.725,3.6767,3.74,3.7619,3.7238,3.7105,3.703,3.703,3.7015,3.7015,3.7015,3.7015,3.7015,3.6984,3.68,3.6723,3.6723,3.6616,3.6554,3.6554,3.6554,3.6523,3.6492,3.6305,3.6242,3.6038,3.4528,3.3934,3.3644,3.225,0.0,0.0,0.0,0.0,0.0,0.0,0.0,0.0,0.0,0.0,0.0,0.0,0.0,0.0,0.0,0.0,0.0,0.0,0.0,0.0,0.0,0.0,0.0,0.0,3.2073,3.2218,3.2218,3.1209,2.9884,2.8187,2.9606,3.0191,2.8911,3.0031,3.0985,3.1308,3.0785,3.0429,3.0429,0.0,0.0,0.0,0.0,2.9024,2.8943,2.8943,2.8943,2.8943,2.8943,2.8943,2.8943,2.8943,2.9209,2.9577,2.9577,2.9806,3.0216,3.0216,3.0261,3.0204,2.9301,2.8943,2.8943,2.8943,2.8943,2.8877,0.0,0.0,0.0,0.0,0.0,0.0,3.6805,3.6417,3.6214,3.6137,3.5904,3.5988,3.6632,3.6681,3.6643,3.6643,3.6643,3.6623,3.6623,3.7802,3.8065,3.707,3.8209,3.8432,3.7464,3.727,3.7164,3.7164,3.7044,3.7015,3.7015,3.7015,3.7015,3.7015,3.6969,3.6938,3.6938,3.6908,3.6908,3.6908,3.6908,3.6754,3.6492,3.646,3.6445,3.632,3.54,3.4728,3.4075,3.3192,3.2525,3.2073,3.2073,3.2073,0.0,0.0,0.0,0.0,0.0,0.0,0.0,0.0,0.0,0.0,0.0,0.0,0.0,0.0,0.0,0.0,0.0,0.0,0.0,3.2146,3.2182,3.2218,3.2218,3.1986,3.1643,3.1097,3.0062,2.9868,3.1087,3.0873,3.1062,3.2,3.1986,3.1904,3.1904,3.1728,3.1344,3.0732,3.0744,3.0486,2.9943,2.9943,2.9943,2.9943,0.0,0.0,2.9943,2.9943,2.9988,3.008,3.008,3.0125,3.0216,3.0216,3.0509,3.0923,3.0193,2.9943,2.9943,2.9943,2.9943,2.992,0.0,0.0,0.0,0.0,0.0,0.0,3.6479,3.6204,3.6028,3.5825,3.5527,3.5609,3.64,3.6311,3.6347,3.6731,3.6705,3.6702,3.6702,3.8086,3.8402,3.7359,3.8576,3.881,3.7727,3.7478,3.7359,3.7359,3.7285,3.7241,3.7241,3.7241,3.7241,3.7241,3.7135,3.7105,3.7105,3.703,3.7015,3.7015,3.7015,3.6908,3.6754,3.6647,3.66,3.6507,3.5705,3.4927,3.4211,3.3457,3.2761,3.2241,3.2408,3.2444,3.248,0.0,0.0,0.0,0.0,0.0,0.0,0.0,0.0,0.0,0.0,0.0,0.0,0.0,0.0,3.2218,0.0,0.0,3.2218,3.2218,3.2218,3.2218,3.2218,3.2218,3.195,3.1334,3.0992,3.1061,3.1641,3.214,3.2664,3.3366,3.3145,3.2998,3.2998,3.2568,3.2122,3.1784,3.1741,3.1565,3.1235,3.089,3.089,3.1235,3.089,3.089,3.1235,3.1235,3.138,3.1601,3.1601,3.1733,3.1965,3.1965,3.2127,3.242,3.2084,3.1645,3.1235,3.1235,3.1235,3.1235,0.0,0.0,0.0,0.0,0.0,0.0,0.0,3.6057,3.5886,3.5517,3.5259,3.5418,3.6203,3.6086,3.6184,3.6796,3.6786,3.6745,3.6745,3.8175,3.8622,3.7691,3.8832,3.9049,3.8112,3.7831,3.7671,3.7671,3.7612,3.7583,3.7583,3.7539,3.751,3.748,3.7329,3.7254,3.7254,3.7135,3.709,3.709,3.709,3.709,3.7076,3.6877,3.6785,3.6662,3.58,3.5124,3.4466,3.365,3.2995,3.2574,3.2775,3.281,3.2881,3.3199,3.3304,0.0,0.0,0.0,0.0,0.0,0.0,0.0,0.0,0.0,3.2386,3.2314,3.2314,3.2277,3.2218,3.2218,3.2218,3.2218,3.2218,3.2218,3.2218,3.2218,3.1863,3.0996,3.1918,3.2401,3.1873,3.3131,3.4165,3.4551,3.4145,3.3978,3.4082,3.3382,3.2912,3.2784,3.2784,3.2698,3.2568,3.1972,3.1972,3.2568,3.1972,3.2016,3.2581,3.2581,3.2766,3.3122,3.3122,3.3348,3.3713,3.3713,3.3797,3.3882,3.3882,3.3505,3.2943,3.2654,3.2581,3.2556,0.0,0.0,0.0,0.0,0.0,0.0,0.0,0.0,3.5247,3.5092,3.5139,3.5469,3.6221,3.6637,3.69,3.697,3.6968,3.6968,3.6968,3.8303,3.8825,3.8231,3.9191,3.9456,3.8799,3.8455,3.8294,3.8294,3.7988,3.7857,3.7857,3.7596,3.751,3.751,3.748,3.748,3.748,3.745,3.745,3.745,3.745,3.745,3.7421,3.7224,3.7059,3.6877,3.6117,3.5785,3.5546,3.4331,3.3856,3.3734,3.336,3.3234,3.3234,3.3304,3.3304,3.3304,3.3304,3.3304,3.3304,3.3304,3.3269,3.3234,0.0,0.0,3.3072,3.2704,3.2632,3.2538,3.2241,3.2218,3.2218,3.2218,3.2218,3.2218,3.2218,3.2218,3.2146,3.2059,3.215,3.243,3.2884,3.3098,3.3664,3.4681,3.4724,3.4901,3.5426,3.5372,3.5032,3.4454,3.4454,3.4163,3.353,3.3445,3.3445,3.353,3.3445,3.3445,3.353,3.353,3.3573,3.3628,3.3628,3.367,3.3713,3.3713,3.405,3.4592,3.4592,3.4881,3.5155,3.3995,3.353,3.3467,0.0,0.0,0.0,0.0,0.0,0.0,0.0,0.0,3.4711,3.4655,3.4982,3.5423,3.6057,3.6756,3.7124,3.7007,3.7007,3.7183,3.7602,3.8631,3.9225,3.9221,3.9666,3.968,3.9209,3.8678,3.8391,3.8391,3.8262,3.8205,3.8177,3.8078,3.7934,3.7727,3.7727,3.7655,3.751,3.751,3.751,3.751,3.751,3.751,3.748,3.7405,3.7345,3.7241,3.6723,3.6258,0.0,3.5272,3.4599,3.3993,3.4056,3.3845,3.3632,3.3874,3.3942,3.3942,3.3942,3.3942,3.3942,3.3942,3.377,3.3597,3.3597,3.3444,3.3234,3.3094,3.3058,3.3023,3.286,3.2824,3.2824,0.0,3.2824,3.2824,3.2824,3.2646,3.2503,3.2503,3.2314,3.2314,3.2558,3.2898,3.3305,3.3756,3.4448,3.4897,3.5141,3.5533,3.5548,3.5304,3.5304,3.5141,3.4881,3.4468,3.4468,3.484,3.4468,3.4509,3.4881,3.4881,3.4881,3.4881,3.4881,3.4881,3.4881,3.4881,3.5046,3.5304,3.5304,3.5467,3.5629,3.5046,3.4881,3.4802,0.0,0.0,0.0,0.0,0.0,0.0,0.0,0.0,0.0,0.0,3.507,3.5786,3.6453,3.704,3.7297,3.7105,3.7085,3.7382,3.8058,3.8845,3.9528,4.0038,4.0079,3.9961,3.968,3.9007,3.8644,3.8644,3.856,3.8504,3.8504,3.842,3.8278,3.8046,3.8046,3.7947,3.773,3.7642,3.7612,3.7612,3.7539,3.751,3.751,3.751,3.751,3.748,3.7241,3.6785,3.6337,3.618,3.5514,3.4765,3.4912,3.471,3.4404,3.4553,3.4515,3.4414,3.4414,3.4414,3.4414,3.4414,3.4162,3.3991,3.3991,3.377,3.3563,3.3444,3.3444,3.3409,3.3304,3.3304,3.3304,3.3304,3.3304,3.3304,3.3304,3.3058,3.2881,3.2881,3.2646,3.248,3.248,3.2709,3.2925,3.3088,3.3851,3.4489,3.4775,3.5195,3.5547,3.571,3.571,3.571,3.571,3.5209,3.5209,3.5669,3.5209,3.5209,3.571,3.571,3.571,3.571,3.571,3.571,3.571,3.571,3.571,3.571,3.571,3.571,3.571,3.571,3.571,3.5601,0.0,0.0,0.0,0.0,0.0,0.0,0.0,0.0,0.0,0.0,0.0,3.6742,3.7725,3.7685,3.7521,3.7297,3.7278,3.7519,3.8058,3.8845,3.9656,4.0446,4.0429,4.0375,4.0375,3.9661,3.9272,3.9272,3.8958,3.8805,3.8777,3.8532,3.8391,3.8363,3.8363,3.8363,3.8335,3.8017,3.7886,3.7857,3.7612,3.751,3.751,3.751,3.751,3.751,3.748,3.748,3.7375,3.6846,3.6662,3.6523,3.6008,3.5849,3.5753,3.5299,3.482,3.4414,3.4414,3.4414,3.4414,3.4414,3.438,3.438,3.438,3.438,3.4264,3.3874,3.377,3.3701,3.3374,3.3304,3.3304,3.3304,3.3304,3.3304,3.3304,3.3304,3.3269,3.3269,3.3269,3.3269,0.0,3.2638,3.2477,3.3061,3.3129,3.362,3.4734,3.4816,3.5087,3.5696,3.571,3.571,3.571,3.5669,3.5669,3.571,3.5669,3.5669,3.571,3.571,3.571,3.571,3.571,3.571,3.571,3.571,3.571,3.571,3.571,3.571,3.571,3.571,3.571,3.5547,0.0,0.0,0.0,0.0,0.0,0.0,0.0,0.0,0.0,0.0,0.0,0.0,0.0,0.0,0.0,0.0,3.7983,3.8587,3.9236,4.0053,4.071,4.1205,4.1256,4.0972,4.0345,4.0062,3.9731,3.9432,3.9245,3.9121,3.9121,3.9056,3.8892,3.8683,3.8683,3.8572,3.8391,3.8262,3.8234,3.8205,3.8135,3.8094,3.8094,3.8094,3.8094,3.8094,0.0,3.7847,3.748,3.7285,3.6998,3.6662,3.6492,3.5959,3.5317,3.482,3.4534,3.4414,3.4414,3.4414,3.4414,3.4414,3.4414,3.4414,3.4414,3.4414,3.4346,3.423,3.4196,3.4162,3.4059,3.4025,3.4025,3.4025,3.4025,3.4025,3.4025,3.3805,3.3632,3.3632,3.3444,0.0,0.0,0.0,0.0,3.3223,3.3358,3.39,3.4927,3.5179,3.565,3.6533,3.6547,3.6547,3.6547,3.6547,3.6547,3.6547,3.6547,3.6547,3.6547,3.6547,3.6547,3.6547,3.6547,3.6547,3.6547,3.6547,3.6547,3.6547,3.6547,3.6547,3.6547,3.6547,3.6547,3.6302,0.0,0.0,0.0,0.0,0.0,0.0,0.0,0.0,0.0,0.0,0.0,0.0,0.0,0.0,0.0,0.0,0.0,3.9313,4.0271,4.0806,4.1327,4.1831,4.1596,4.1174,4.0549,4.0195,3.9859,3.9563,3.9484,3.9432,3.9379,3.9379,3.9245,3.8985,3.8985,3.8876,3.8699,3.8572,3.8544,3.8516,3.8448,3.8391,3.8391,3.8391,3.8391,0.0,3.8391,3.8135,3.7817,3.7817,3.7596,3.7314,3.7314,3.6738,3.5946,3.5367,3.5023,3.4773,3.4582,3.4448,3.4414,3.4414,3.4414,3.4414,3.4414,3.4414,3.4414,3.4414,3.4414,3.4414,3.4414,3.4414,3.4414,3.4414,3.4414,3.4414,3.4414,3.4162,3.4025,3.4025,3.3805,3.3701,0.0,0.0,0.0,3.3304,3.3421,3.3971,3.5054,3.5264,3.5878,3.6964,3.6978,3.6978,3.6978,3.6978,3.6978,3.6978,3.6978,3.6978,3.6978,3.6978,3.6978,3.6978,3.6978,3.6978,3.6978,3.6978,3.6978,3.6978,3.6978,3.6978,3.6978,3.6978,3.6978,3.6732,0.0,0.0,0.0,0.0,0.0,0.0,0.0,0.0,0.0,0.0,0.0,0.0,0.0,0.0,0.0,0.0,0.0,0.0,4.1042,4.1185,4.1504,4.2272,4.1534,4.1065,4.099,4.0187,3.9764,3.9703,3.9703,3.9625,3.9528,3.9501,3.9432,3.9299,3.9299,3.9299,3.9272,3.8958,3.8832,3.8805,3.856,3.8464,3.8464,3.8464,3.8464,3.8464,3.8464,3.8464,3.842,3.8391,3.8391,3.8408,3.8363,3.8001,3.7472,3.6768,3.6119,3.5482,3.4883,3.4582,3.4414,3.4414,3.4414,3.4414,3.4414,3.4414,3.4414,3.4414,3.4414,3.4414,3.4414,3.4414,3.4414,3.4414,3.4414,3.4414,3.4414,3.4443,3.4457,0.0,0.0,0.0,0.0,0.0,0.0,3.3599,0.0,3.3917,3.5156,3.5189,3.5752,3.7028,3.7056,3.7056,3.7056,3.7056,3.7056,3.7056,3.7056,3.7056,3.7056,3.7056,3.7056,3.7056,3.7056,3.7056,3.7056,3.7056,3.7095,3.7095,3.7095,3.7134,3.7134,3.7134,3.7134,3.6951,0.0,0.0,0.0,0.0,0.0,0.0,0.0,0.0,0.0,0.0,0.0,0.0,0.0,0.0,0.0,0.0,0.0,0.0,4.152,4.2116,4.2377,4.2236,4.2358,4.1931,4.0873,4.0861,4.0546,3.9849,3.9755,3.9677,3.9668,3.9554,3.9475,3.9432,3.9352,3.9299,3.9299,3.9218,3.9175,3.9164,3.911,3.9083,3.9083,3.9083,3.9083,3.9083,3.9083,3.9083,3.9002,3.856,3.8391,3.8335,3.7927,3.7722,3.7413,3.6384,3.5961,3.5689,3.5019,3.4802,3.4769,3.4769,3.4683,3.4631,3.4631,3.4515,3.4414,3.4414,3.4414,3.4414,3.4414,3.4414,3.4414,3.4414,3.4414,0.0,3.4414,3.482,0.0,3.516,0.0,3.6497,3.6497,3.6862,0.0,0.0,3.5328,3.5096,3.664,3.6447,3.6805,3.7872,3.7901,3.7901,3.7901,3.7901,3.7901,3.7901,3.7901,3.7901,3.7901,3.7901,3.7901,3.7901,3.7901,3.7901,3.7901,3.7901,3.8165,3.8575,3.8575,3.8804,3.9175,3.9175,3.9175,3.9056,0.0,0.0,0.0,0.0,0.0,0.0,0.0,0.0,0.0,0.0,0.0,0.0,0.0,0.0,0.0,0.0,0.0,0.0,0.0,4.2647,4.2769,4.2518,4.236,4.1931,4.1116,4.0902,4.0514,3.9986,4.0104,4.0054,3.9781,3.9901,3.9816,3.9501,3.9422,3.9369,3.9299,3.9299,3.9299,0.0,0.0,3.9299,3.9299,3.9299,3.9299,3.9299,3.9299,3.9299,3.9245,3.892,3.8782,3.8738,3.8439,3.8339,3.8153,3.7219,3.6919,3.6722,3.6055,3.5802,3.5738,3.5738,3.5479,3.5314,3.5561,3.5317,3.5103,3.5252,3.527,3.5187,3.482,3.4905,3.4905,0.0,0.0,0.0,3.5169,3.5739,3.62,0.0,3.7146,0.0,3.7541,3.7831,3.8105,0.0,3.7058,3.6733,3.7973,3.7824,3.8089,3.8921,3.895,3.895,3.895,3.895,3.895,3.895,3.895,3.895,3.895,3.895,3.895,3.895,0.0,3.895,3.895,3.895,3.9133,3.9436,3.9436,3.9636,3.9889,3.9889,3.9889,3.9798,0.0,0.0,0.0,0.0,0.0,0.0,0.0,0.0,0.0,0.0,3.9193,0.0,0.0,0.0,0.0,0.0,0.0,0.0,0.0,0.0,4.2901,4.2901,4.2118,4.1656,4.1591,4.0784,4.0353,4.0279,4.0683,4.0628,4.0121,4.0497,4.0351,3.9713,3.9625,3.952,3.9415,3.9325,3.9299,3.9299,3.9299,3.9299,3.9299,0.0,3.9299,3.9299,3.9299,3.9299,3.9299,3.9299,3.9299,3.9299,3.9299,3.9299,3.9175,3.849,3.8222,3.7966,3.7324,3.701,3.6873,3.6873,3.6477,3.6212,3.6722,3.6399,3.6118,3.6368,3.643,3.6228,3.5497,3.5689,3.5657,3.4754,0.0,3.5995,3.6279,3.6773,3.7357,3.8044,3.8263,3.8391,3.8391,3.8458,3.8736,3.9314,3.8794,3.8684,3.9089,3.9119,3.9362,3.9874,3.9889,3.9889,3.9889,3.9889,3.9889,3.9889,3.9889,3.9889,3.9889,3.9889,3.9889,3.9889,3.9889,0.0,3.9889,3.9889,3.994,4.001,4.001,4.008,4.015,4.015,4.015,4.0058,0.0,0.0,0.0,0.0,0.0,0.0,0.0,0.0,0.0,0.0,3.9193,3.9209,0.0,0.0,0.0,0.0,0.0,0.0,0.0,0.0,0.0,4.2901,4.275,4.2478,4.2095,4.1909,4.1652,4.1258,4.1326,4.1343,4.1213,4.119,4.1099,4.0961,4.0358,4.0078,4.0003,3.9504,3.9299,3.9299,3.9299,3.9299,3.9299,3.9299,0.0,0.0,3.9299,3.9299,3.9299,3.9299,3.9299,3.9299,3.9299,3.9299,3.9175,3.849,3.8278,3.8137,3.7517,3.7324,3.7294,3.7294,3.7086,3.6905,3.7025,3.6828,0.0,3.6722,3.6722,3.663,3.6259,3.6259,3.6181,3.5721,0.0,0.0,0.0,0.0,3.8007,0.0,0.0,0.0,0.0,0.0,0.0,0.0,0.0,4.0627,3.9792,3.9722,3.9783,3.9889,3.9889,3.9889,3.9889,3.9889,3.9889,3.9889,3.9889,3.9889,3.9889,3.9889,3.9889,3.9889,3.9889,0.0,3.9889,3.9889,4.0185,4.0646,4.0646,4.0904,4.1307,4.1307,4.1307,4.1292,0.0,0.0,0.0,0.0,0.0,0.0,0.0,3.9326,3.9589,3.9589,3.9565,3.9819,4.0597,4.0934,4.1451,0.0,0.0,0.0,0.0,0.0,0.0,4.2901,4.2673,4.2318,4.1846,4.1846,4.1609,4.1139,0.0,4.1739,4.1503,4.1678,4.1525,4.1116,4.0767,4.0504,4.0302,4.0011,3.9859,3.9859,3.9859,3.9859,3.9859,3.9859,0.0,0.0,3.9379,3.9299,3.9299,3.9299,3.9299,3.9299,3.9299,3.9299,3.9245,3.8898,3.8799,3.8745,3.8467,3.8383,3.8383,3.8383,3.8067,3.7822,3.8169,0.0,0.0,3.7806,3.7851,3.7661,3.7145,3.7251,3.7207,3.6508,3.6829,0.0,0.0,0.0,0.0,0.0,0.0,0.0,0.0,0.0,0.0,0.0,0.0,4.1374,4.0805,4.0771,4.0771,4.0771,4.0771,4.0771,4.0771,4.0771,4.0771,4.0771,4.0771,4.0771,4.0771,4.0771,4.0771,4.0771,4.0771,0.0,4.0771,4.0771,4.0972,4.1223,4.1223,4.1357,4.1588,4.1588,4.1588,4.1588,0.0,0.0,0.0,0.0,0.0,0.0,0.0,3.9589,3.9664,3.9833,4.0146,4.0634,4.1391,4.1608,4.2012,0.0,0.0,0.0,0.0,0.0,0.0,0.0,0.0,0.0,4.1807,0.0,0.0,4.1253,4.199,0.0,0.0,0.0,0.0,0.0,4.1174,4.0919,4.0594,4.0449,4.04,0.0,0.0,4.04,0.0,0.0,0.0,0.0,0.0,3.9547,3.9547,3.9547,3.9547,3.9547,3.9547,3.9415,3.9299,3.9299,3.9299,3.9299,3.9299,3.9299,3.9299,3.9299,3.8898,3.8645,3.9175,3.8898,0.0,3.886,3.8914,3.8678,3.7982,3.8201,3.8189,0.0,3.7841,3.8734,0.0,0.0,0.0,0.0,0.0,0.0,0.0,0.0,0.0,0.0,0.0,0.0,4.1621,4.1588,4.1588,4.1588,4.1588,4.1588,4.1588,4.1588,4.1588,4.1588,4.1588,4.1588,4.1588,4.1588,4.1588,4.1588,4.1588,0.0,0.0,4.172,4.1753,4.1818,4.1802,4.1802,4.1802,4.1802,4.1802,4.1802,0.0,0.0,0.0,0.0,0.0,0.0,0.0,3.9589,3.9871,4.0591,4.0932,4.1427,4.2292,4.1973,4.2012,0.0,0.0,0.0,0.0,0.0,0.0,0.0,0.0,0.0,0.0,0.0,0.0,4.2711,0.0,0.0,0.0,0.0,0.0,0.0,0.0,4.1328,4.126,4.0666,0.0,0.0,0.0,0.0,0.0,0.0,0.0,0.0,0.0,4.0302,4.0302,4.0302,4.0302,4.0302,4.0302,3.9833,3.9299,3.9299,0.0,0.0,3.9299,3.9299,3.9299,3.9299,3.9245,3.9202,3.9299,0.0,3.9218,3.9245,3.9245,3.9148,3.8761,3.875,3.8639,3.8319,3.8335,3.8849,0.0,0.0,0.0,0.0,0.0,0.0,0.0,0.0,0.0,0.0,0.0,0.0,4.1621,4.1588,4.1588,4.1588,4.1588,4.1588,4.1588,4.1588,4.1588,4.1588,4.1588,4.1588,4.1588,4.1588,4.1588,4.1588,4.1588,0.0,0.0,4.2045,4.2238,4.2492,4.2507,4.2522,4.2522,4.2522,4.2522,4.2522,0.0,0.0,0.0,0.0,0.0,0.0,3.9602,4.0021,4.044,4.076,4.1637,4.2362,4.2696,4.2688,4.2723,4.2883,0.0,0.0,0.0,0.0,0.0,0.0,0.0,0.0,0.0,0.0,4.2514,4.2127,4.2412,0.0,0.0,0.0,0.0,0.0,0.0,0.0,4.1498,4.1232,0.0,0.0,0.0,0.0,0.0,0.0,0.0,0.0,0.0,0.0,4.04,4.04,4.04,4.04,4.04,4.0195,3.991,3.9729,3.9484,3.9299,3.9299,3.9299,3.9299,3.9299,3.9299,3.9299,3.9299,0.0,3.9299,3.9299,3.9299,3.9272,3.9121,3.9094,3.9067,3.8947,3.8947,3.944,4.084,0.0,0.0,0.0,0.0,0.0,0.0,0.0,0.0,0.0,0.0,0.0,4.2222,4.2206,4.2206,4.2206,4.2206,4.2206,4.2206,4.2206,4.2206,4.2206,4.2206,4.2206,4.2206,4.2206,4.2206,4.2206,4.2206,0.0,0.0,4.2412,4.2476,4.2602,4.2601,4.2617,4.2617,4.2617,4.2617,4.2585,0.0,0.0,0.0,0.0,0.0,3.9619,3.9602,4.0272,4.0891,4.1116,4.217,4.2995,4.3238,4.3363,4.3303,4.305,4.2939,0.0,0.0,0.0,0.0,0.0,0.0,0.0,0.0,0.0,4.2287,4.1801,4.2142,4.2308,0.0,0.0,0.0,0.0,0.0,0.0,0.0,0.0,0.0,0.0,0.0,0.0,0.0,0.0,0.0,0.0,0.0,0.0,0.0,0.0,0.0,4.0754,4.0754,4.0683,4.0514,4.0154,3.9781,3.9484,3.9484,3.9379,3.9299,3.9299,3.9299,3.9299,0.0,0.0,3.9299,3.9299,3.9299,3.9299,3.9299,3.9299,3.9299,3.9299,3.9481,4.0034,4.1243,4.1579,0.0,0.0,0.0,0.0,0.0,0.0,0.0,0.0,0.0,0.0,4.2912,4.2912,4.2803,4.2617,4.2617,4.2617,4.2617,4.2617,4.2617,4.2617,4.2617,4.2585,4.2601,4.2585,4.2679,4.2787,4.2787,0.0,0.0,4.3139,4.3169,4.3276,4.329,4.329,4.329,4.329,4.329,4.329,0.0,0.0,0.0,0.0,0.0,0.0,3.9614,4.0272,4.1098,4.1873,4.2525,4.32,4.3998,4.3857,4.3579,4.332,4.305,0.0,0.0,0.0,0.0,0.0,0.0,0.0,0.0,0.0,4.2308,4.2287,4.2287,4.2308,4.2287,4.204,4.1895,0.0,0.0,0.0,0.0,0.0,0.0,0.0,0.0,0.0,4.1604,0.0,0.0,0.0,0.0,0.0,0.0,0.0,0.0,0.0,0.0,4.1318,4.0913,4.0497,4.0154,3.9901,3.9901,3.9616,3.9299,3.9299,3.9299,3.9299,3.9299,3.9299,3.9299,3.9299,3.9299,3.9299,3.9299,3.9299,3.9299,3.9299,3.9912,4.0613,4.1309,4.2026,0.0,0.0,0.0,0.0,0.0,0.0,0.0,0.0,0.0,0.0,4.3598,4.3598,4.3295,4.2617,4.2617,4.2617,4.2617,4.2617,4.2617,4.2617,4.2617,4.2601,4.2602,4.2601,4.2849,0.0,0.0,0.0,0.0,4.4378,4.4574,4.4882,4.4882,4.4882,4.4882,4.4882,4.4882,4.4882,0.0,0.0,0.0,0.0,0.0,0.0,0.0,4.0741,4.1867,4.2532,4.3427,4.4102,4.4345,4.4079,4.3761,4.3407,4.3249,0.0,0.0,0.0,0.0,0.0,0.0,0.0,0.0,4.2019,4.1956,4.1823,4.1823,4.1823,4.1823,4.1719,4.1697,4.1697,4.1626,0.0,0.0,0.0,0.0,0.0,0.0,4.1604,4.1604,0.0,0.0,0.0,0.0,0.0,0.0,0.0,0.0,0.0,0.0,0.0,0.0,4.1255,4.0772,4.0237,4.0237,4.0162,4.0045,4.0045,4.0045,3.9986,3.9755,3.9893,3.991,3.9388,3.9696,3.9986,3.9755,3.9901,4.0214,4.0781,4.0809,4.1184,0.0,0.0,0.0,0.0,0.0,0.0,0.0,0.0,0.0,0.0,0.0,0.0,4.408,4.4333,4.4117,4.3295,4.3265,4.3265,4.3265,4.3265,4.3446,4.3756,4.3756,4.3914,4.4169,4.418,4.4237,0.0,0.0,0.0,0.0,4.4756,4.4811,4.491,4.491,4.491,4.491,4.491,4.491,4.491,0.0,0.0,0.0,0.0,0.0,0.0,0.0,4.0991,4.201,4.2927,4.3862,4.4454,4.4454,4.4252,4.3955,4.3629,4.3545,0.0,0.0,0.0,0.0,0.0,0.0,0.0,4.1784,4.1784,4.1736,4.1604,4.1604,4.1604,4.1604,4.1604,4.1604,4.1604,4.1604,4.1604,0.0,0.0,0.0,0.0,4.1604,4.1604,4.1604,0.0,0.0,0.0,0.0,0.0,0.0,0.0,0.0,0.0,0.0,0.0,0.0,0.0,4.1255,4.0825,4.0659,4.0514,4.04,4.04,4.04,4.0343,4.0129,4.0262,4.0269,3.9825,4.007,4.0343,4.0129,4.0525,4.1015,4.1518,4.1835,4.233,0.0,0.0,0.0,0.0,0.0,0.0,0.0,0.0,0.0,0.0,0.0,0.0,4.453,4.4746,4.4635,4.4105,4.4105,4.4105,4.4105,4.4105,4.4248,4.453,4.453,4.4652,4.491,4.491,4.4991,0.0,0.0,0.0,0.0,4.5407,4.5407,4.5407,4.5407,4.5407,4.5407,4.5407,4.5407,4.5407,0.0,0.0,0.0,0.0,0.0,0.0,0.0,4.1065,4.1745,4.3187,4.3957,4.4383,4.4383,4.4329,4.418,4.3897,0.0,0.0,0.0,0.0,0.0,0.0,0.0,0.0,4.1604,4.1604,4.1604,4.1604,4.1604,4.1604,4.1604,4.1604,4.1604,4.1604,4.1626,4.1631,0.0,0.0,0.0,0.0,4.1604,4.1604,0.0,0.0,0.0,0.0,0.0,0.0,0.0,0.0,0.0,0.0,0.0,0.0,0.0,0.0,0.0,0.0,0.0,4.0778,4.0497,4.0497,4.0521,4.0521,4.0497,4.0521,0.0,4.0473,4.0497,4.0538,4.0566,4.1214,4.1746,4.1866,4.3006,4.3914,0.0,0.0,0.0,0.0,0.0,0.0,0.0,0.0,0.0,0.0,0.0,0.0,4.4964,4.4991,4.4991,4.4991,4.4991,4.4964,4.491,4.491,4.491,4.4964,4.4964,4.4964,4.4991,4.4991,4.5249,0.0,0.0,0.0,0.0,4.6196,4.6196,4.6196,4.6196,4.6196,4.6196,4.6196,4.6196,4.6196,0.0,0.0,0.0,0.0,0.0,0.0,0.0,0.0,0.0,0.0,4.4171,4.4329,4.4329,4.4255,4.4036,0.0,0.0,0.0,0.0,0.0,0.0,0.0,0.0,0.0,4.1604,4.1604,4.1604,4.1604,4.1604,4.1604,4.1604,4.1604,4.1604,4.1604,4.192,4.205,0.0,0.0,0.0,0.0,4.1604,4.1604,0.0,0.0,0.0,0.0,4.1604,4.1604,0.0,0.0,0.0,0.0,0.0,0.0,0.0,0.0,4.1604,4.1626,4.1679,0.0,4.1552,4.1552,4.1705,4.177,0.0,4.1644,4.1687,4.1059,4.1432,4.1947,4.2261,4.2722,4.3363,4.4361,4.4699,4.5016,0.0,0.0,0.0,0.0,0.0,0.0,0.0,0.0,0.0,0.0,0.0,4.545,4.545,4.5735,4.5887,4.5887,4.5887,4.5563,4.491,4.491,4.5072,4.545,4.545,4.5606,4.5887,4.5887,4.5955,0.0,0.0,0.0,4.6196,4.6196,4.6196,4.6196,4.6196,4.6196,4.6196,4.6196,4.6196,4.6196,0.0,0.0,0.0,0.0,0.0,0.0,0.0,0.0,0.0,0.0,0.0,4.424,4.424,4.4165,0.0,0.0,0.0,0.0,0.0,0.0,0.0,0.0,0.0,4.2092,4.1878,4.1697,4.1604,4.1604,4.1604,4.1697,4.1895,4.1895,4.1984,4.2175,4.238,4.2482,0.0,0.0,0.0,4.2154,4.2154,0.0,0.0,0.0,0.0,0.0,4.2154,4.2029,0.0,4.1895,4.1895,4.1895,0.0,0.0,0.0,0.0,4.2095,4.2047,4.2213,4.2107,4.1917,4.2061,4.2472,4.2802,4.2576,4.2985,4.3273,4.2833,4.3087,4.3458,4.3695,4.4181,4.4781,4.5485,4.5843,0.0,0.0,0.0,0.0,0.0,0.0,0.0,0.0,0.0,0.0,0.0,0.0,4.5879,4.5879,4.6073,4.6196,4.6196,4.6196,4.598,4.5511,4.5511,4.5615,4.5879,4.5879,4.5998,4.6196,4.6196,4.6196,0.0,0.0,0.0,4.6196,4.6196,4.6196,4.6196,4.6196,4.6196,4.6196,4.6196,4.6196,4.6196,0.0,0.0,0.0,0.0,0.0,0.0,0.0,0.0,0.0,0.0,0.0,0.0,0.0,0.0,0.0,0.0,0.0,0.0,0.0,0.0,0.0,0.0,4.2599,4.2342,4.23,4.1963,4.1788,4.1788,4.1788,4.1963,4.23,4.23,4.2501,4.2903,4.2829,4.2829,4.2903,0.0,0.0,4.281,4.281,0.0,0.0,0.0,0.0,0.0,0.0,0.0,0.0,4.23,4.23,4.23,4.23,0.0,0.0,0.0,0.0,0.0,4.2893,4.2727,4.2492,4.2524,4.3176,4.3769,4.3769,4.4306,4.4789,4.4789,4.4789,4.4825,4.495,4.5487,0.0,0.0,0.0,0.0,0.0,0.0,0.0,0.0,0.0,0.0,0.0,0.0,0.0,0.0,0.0,4.627,4.627,4.6221,4.6196,4.6196,4.6196,4.6196,4.6196,4.6196,4.6196,4.6196,4.6196,4.6196,4.6196,4.6196,4.6196,4.6196,0.0,0.0,4.6196,4.6196,4.6196,4.6196,4.6196,4.6196,4.6196,4.6196,4.6196,4.6196,0.0,0.0,0.0,0.0,0.0,0.0,0.0,0.0,0.0,0.0,0.0,0.0,0.0,0.0,0.0,0.0,0.0,0.0,0.0,0.0,0.0,4.3809,4.344,4.3069,4.2715,4.2657,4.2619,4.2619,4.2619,4.2657,4.2715,4.2715,4.2904,4.3283,4.2959,4.2996,4.3301,4.2941,0.0,4.281,4.281,0.0,0.0,0.0,0.0,0.0,0.0,0.0,0.0,4.2715,4.2715,4.2715,4.2715,0.0,0.0,0.0,0.0,0.0,4.3976,4.4599,4.502,4.386,4.4311,4.5009,4.5009,4.5118,4.5208,4.5208,4.5208,4.5407,4.6094,4.631,4.6537,0.0,0.0,0.0,0.0,0.0,0.0,0.0,0.0,0.0,0.0,0.0,0.0,0.0,0.0,4.6542,4.6542,4.6319,4.6196,4.6196,4.6196,4.6196,4.6196,4.6196,4.6196,4.6196,4.6196,4.6196,4.6196,4.6196,4.6196,4.6196,0.0,4.6196,4.6196,4.6196,4.6196,4.6196,4.6196,4.6196,4.6196,4.6196,4.6196,4.6196,0.0,0.0,0.0,0.0,0.0,0.0,0.0,0.0,0.0,0.0,0.0,0.0,0.0,0.0,0.0,0.0,0.0,0.0,0.0,0.0,4.4005,4.4005,4.3825,4.3543,4.3141,4.2922,4.281,4.281,4.281,4.2922,4.3123,4.3354,4.356,4.3728,4.3525,4.3542,4.371,4.3525,4.3457,4.3457,0.0,0.0,0.0,0.0,0.0,0.0,0.0,0.0,0.0,0.0,4.3123,4.3141,4.3176,0.0,0.0,0.0,0.0,0.0,4.479,4.573,4.6561,4.59,4.6083,4.6395,4.6223,4.6648,4.6996,4.6656,4.6719,0.0,0.0,0.0,0.0,0.0,0.0,0.0,0.0,0.0,0.0,0.0,0.0,0.0,0.0,0.0,0.0,0.0,0.0,0.0,4.6819,4.6702,4.6631,4.6631,4.6631,4.6631,4.6631,4.6631,4.6488,4.6196,4.6196,4.6196,4.6196,4.6196,4.6196,4.6196,0.0,4.6196,4.6196,4.6196,4.6196,4.6221,4.6477,4.6596,4.6602,4.6895,4.7008,4.7031,0.0,0.0,0.0,0.0,0.0,0.0,0.0,0.0,0.0,0.0,0.0,0.0,0.0,0.0,0.0,0.0,0.0,0.0,0.0,4.4005,4.4005,4.4005,4.4005,4.386,4.356,4.323,4.3087,4.3087,4.3087,4.323,4.356,4.386,4.4005,4.4005,4.4005,4.4005,4.4005,4.4005,4.4005,4.4005,0.0,0.0,0.0,0.0,0.0,0.0,0.0,0.0,0.0,0.0,0.0,0.0,0.0,0.0,0.0,4.4597,4.5122,4.5671,4.5842,4.6861,4.7874,4.7787,4.7716,4.7609,4.7352,4.7979,4.8458,4.801,4.8073,0.0,0.0,4.7741,0.0,0.0,0.0,0.0,0.0,0.0,0.0,0.0,0.0,0.0,0.0,0.0,0.0,0.0,0.0,0.0,4.707,4.7043,4.7025,4.7098,4.7025,4.7053,4.7191,4.7125,4.6806,4.6295,4.6295,4.627,4.6196,4.627,4.6295,4.6295,4.6429,4.6477,4.6501,4.6537,4.6584,4.6607,4.6963,4.712,4.7146,4.7578,4.7704,4.7725,0.0,0.0,0.0,0.0,0.0,0.0,0.0,0.0,0.0,0.0,0.0,0.0,0.0,0.0,0.0,0.0,0.0,0.0,0.0,4.4005,4.4005,4.4005,4.4005,4.3989,4.3974,4.3923,4.3908,4.3908,4.3908,4.3923,4.3974,4.3989,4.4005,4.4005,4.4005,4.4005,4.4005,4.4005,4.4005,4.4005,4.4005,0.0,0.0,0.0,0.0,0.0,0.0,0.0,0.0,0.0,0.0,0.0,0.0,0.0,4.4533,4.5282,4.6169,4.6979,4.7474,4.8464,4.9268,4.8951,4.8692,4.8495,4.8476,4.855,4.8587,4.855,4.855,0.0,0.0,4.787,0.0,0.0,0.0,0.0,0.0,0.0,0.0,0.0,0.0,0.0,0.0,0.0,0.0,0.0,0.0,0.0,4.7298,4.7116,4.7102,4.736,4.7125,4.724,4.7727,4.7494,4.7093,4.6566,4.6566,4.6423,4.6196,4.6447,4.6566,4.6613,4.7115,4.7299,4.732,4.7583,4.7668,4.7706,4.7709,4.7747,4.7747,4.7787,4.7789,4.7789,0.0,0.0,0.0,0.0,0.0,0.0,0.0,0.0,0.0,0.0,0.0,0.0,0.0,0.0,0.0,0.0,0.0,0.0,0.0,4.4005,4.4005,4.4005,4.4005,4.4005,4.4005,4.4005,4.4005,4.4005,4.4005,4.4005,4.4005,4.4005,4.4005,4.4023,4.4562,4.4804,4.4841,4.5342,4.5547,4.5509,4.5008,4.4804,0.0,0.0,0.0,0.0,0.0,0.0,0.0,0.0,4.418,4.4255,4.4314,4.4373,4.458,4.5415,4.6288,4.7151,4.7847,4.8756,4.9459,4.9345,4.923,4.9096,4.8907,4.901,4.9046,4.8696,4.8731,0.0,0.0,0.0,0.0,0.0,0.0,0.0,0.0,0.0,0.0,0.0,0.0,0.0,0.0,0.0,0.0,0.0,0.0,0.0,4.8114,4.7854,4.7816,4.8136,4.8037,4.8096,4.8309,4.8194,4.7961,4.7578,4.7431,4.7284,4.7198,4.7284,4.7345,4.7367,4.756,4.7663,4.7663,4.7767,4.7789,4.7848,4.8121,4.8403,4.8676,4.871,4.8728,4.8745,0.0,0.0,0.0,0.0,0.0,0.0,0.0,0.0,0.0,0.0,0.0,0.0,0.0,0.0,0.0,0.0,0.0,0.0,4.4005,4.4005,4.4005,4.4005,4.4005,4.4005,4.4005,4.4005,4.4005,4.4005,4.4005,4.4005,4.4005,4.4005,4.4005,4.4042,4.4915,4.535,4.5478,4.628,4.6679,4.6678,4.5874,4.5556,0.0,0.0,0.0,0.0,0.0,0.0,0.0,0.0,4.4412,4.443,4.4472,4.4463,4.4646,4.5777,4.6542,4.7237,4.8326,4.9039,4.9509,4.9509,4.9509,4.9443,4.9211,4.9345,4.9377,4.8978,4.8959,4.894,4.8767,0.0,0.0,0.0,0.0,0.0,0.0,0.0,0.0,0.0,0.0,0.0,0.0,0.0,0.0,0.0,0.0,0.0,0.0,4.8383,4.8402,4.8713,4.8641,4.8678,4.8873,4.8767,4.8695,4.8622,4.8403,4.8159,4.7789,4.7887,4.7945,4.7927,4.8102,4.8178,4.8178,4.8273,4.8347,4.8366,4.8693,4.9008,4.9295,4.9343,4.9374,4.9374,0.0,0.0,0.0,0.0,0.0,0.0,0.0,0.0,0.0,0.0,0.0,0.0,0.0,0.0,0.0,0.0,0.0,0.0,4.4005,4.4005,4.4005,4.4005,4.3986,4.4005,4.402,4.402,4.4005,4.4005,4.4005,4.4005,4.3986,4.3986,4.4005,4.4058,4.4931,4.5472,4.5763,4.6576,4.708,4.7245,4.6455,4.6114,4.6019,0.0,0.0,0.0,0.0,0.0,0.0,0.0,4.4804,4.4701,4.4701,4.4616,4.4834,4.6505,4.6993,4.7368,4.9039,4.949,4.9509,4.9509,4.9509,4.9509,4.9509,4.9509,4.9509,4.9509,4.9246,4.8991,4.8991,4.8784,0.0,0.0,0.0,0.0,0.0,0.0,0.0,0.0,0.0,0.0,0.0,0.0,0.0,0.0,0.0,0.0,0.0,4.8605,4.8731,4.8991,4.8749,4.889,4.949,4.9179,4.9179,4.9509,4.9509,4.8903,4.7828,4.8082,4.8197,4.8235,4.8765,4.8991,4.9044,4.9361,4.9509,4.9509,4.9509,4.9509,4.9509,4.9509,4.9509,4.9509,0.0,0.0,0.0,0.0,0.0,0.0,0.0,0.0,0.0,0.0,0.0,0.0,0.0,0.0,0.0,0.0,0.0,0.0,4.4005,4.4005,4.4075,4.426,4.4275,4.4374,4.4546,4.4559,4.4374,4.4005,4.4005,4.4109,4.4275,4.4275,4.4388,4.4635,4.6067,4.6744,4.6919,4.8337,4.8997,4.8983,4.8181,4.7485,4.6872,0.0,0.0,0.0,0.0,0.0,0.0,0.0,0.0,0.0,4.5052,4.4891,4.5073,4.6959,4.7273,4.7394,4.9226,4.9615,4.9509,4.9509,4.9509,4.9509,4.9509,4.9509,4.9509,4.9509,4.9427,4.9345,4.9345,0.0,0.0,0.0,0.0,0.0,0.0,0.0,0.0,0.0,0.0,0.0,0.0,0.0,0.0,0.0,0.0,0.0,0.0,4.901,4.9027,4.9345,4.9262,4.9313,4.9509,4.9393,4.9393,4.9509,4.9509,4.9311,4.899,4.9094,4.911,4.9127,4.9279,4.9345,4.9361,4.9459,4.9509,4.9509,4.9509,4.9509,4.9509,4.9509,4.9509,4.9509,0.0,0.0,0.0,0.0,0.0,0.0,0.0,0.0,0.0,0.0,4.3804,4.3804,0.0,0.0,0.0,0.0,0.0,0.0,4.4106,4.4151,4.4279,4.4546,4.4559,4.4637,4.4788,4.4788,4.4637,4.4322,4.4322,4.4402,4.4559,4.4559,4.465,4.4864,4.619,4.703,4.7559,4.8897,4.974,5.0078,4.9239,4.8399,4.7552,0.0,0.0,0.0,0.0,0.0,0.0,0.0,0.0,0.0,4.5314,4.539,4.5769,4.7269,4.7669,4.7957,4.9403,4.9636,4.9509,4.9509,4.9509,4.9509,4.9509,0.0,0.0,0.0,4.9509,4.9509,4.9509,4.9509,0.0,0.0,0.0,0.0,0.0,0.0,0.0,0.0,0.0,0.0,0.0,0.0,0.0,0.0,0.0,0.0,0.0,4.9295,4.9295,4.949,4.9509,4.9509,4.9509,4.9509,4.9509,4.9509,4.9509,4.9509,4.9509,4.9509,4.9509,4.9509,4.9509,4.9509,4.9509,4.9509,4.9509,4.9509,4.9509,4.9509,4.9509,4.9509,4.9509,4.9509,0.0,0.0,0.0,0.0,0.0,0.0,0.0,0.0,0.0,0.0,4.3771,4.3771,0.0,0.0,0.0,0.0,0.0,0.0,0.0,4.4402,4.4559,4.4812,4.4849,4.4861,4.4861,4.4861,4.4861,4.4861,4.4812,4.48,4.4837,4.4837,4.4849,4.4898,4.5797,4.6777,4.7794,4.8739,4.975,5.0635,4.9837,4.8952,4.8009,4.7285,0.0,0.0,0.0,0.0,0.0,0.0,0.0,0.0,4.5535,4.5985,4.6687,4.752,4.8181,4.8801,4.9616,4.9707,4.9567,4.9517,4.9536,0.0,4.9521,4.9524,4.9509,4.9509,0.0,4.9509,4.9509,0.0,0.0,0.0,0.0,0.0,0.0,0.0,0.0,0.0,0.0,0.0,0.0,0.0,0.0,0.0,0.0,0.0,0.0,4.9509,4.9509,4.9509,4.9509,4.9509,4.9509,4.9509,4.9509,4.9509,4.9509,4.9509,4.9509,4.9509,4.9509,4.9509,4.9509,4.9509,4.9509,4.9509,4.9509,4.9509,4.9509,4.9509,4.9509,4.9509,4.9509,4.9509,0.0,0.0,0.0,0.0,0.0,0.0,0.0,0.0,0.0,0.0,0.0,0.0,0.0,0.0,0.0,0.0,0.0,0.0,0.0,4.4585,4.4825,4.5096,4.5322,4.5429,4.5429,4.5429,4.5429,4.5429,4.5007,4.4915,4.5107,4.5107,4.5222,4.5486,4.6973,4.7779,4.8116,4.9672,5.047,5.0673,5.05,4.949,4.8086,4.7958,4.7,0.0,0.0,0.0,0.0,0.0,0.0,0.0,4.5737,4.6199,4.6924,4.7959,4.8567,4.9098,4.9895,5.0075,5.0006,4.9781,4.9745,4.9717,4.9678,4.9582,4.9509,4.9509,4.9509,4.9509,0.0,0.0,0.0,0.0,0.0,0.0,0.0,0.0,0.0,0.0,0.0,0.0,0.0,0.0,0.0,0.0,0.0,0.0,4.9509,4.9509,4.9509,4.9509,4.9509,4.9509,4.9509,4.9509,4.9509,0.0,4.9509,4.9509,4.9509,4.9509,4.9509,4.9509,4.9509,4.9509,4.9509,4.9509,4.9509,4.9509,4.9509,4.9509,4.9509,4.9509,4.9509,4.9509,0.0,0.0,0.0,0.0,0.0,0.0,0.0,0.0,0.0,0.0,0.0,0.0,0.0,0.0,0.0,0.0,0.0,0.0,0.0,0.0,4.5107,4.539,4.5541,4.5594,4.5594,4.5594,4.5594,4.5594,4.5322,4.5253,4.54,4.54,4.5476,4.5671,4.6951,4.774,4.8202,4.951,5.0327,5.0712,5.0712,4.9682,4.8161,4.8225,4.7216,4.5739,4.5783,0.0,0.0,0.0,0.0,0.0,0.0,0.0,4.7143,4.8118,4.8745,4.933,5.0163,5.0298,5.0183,5.0068,0.0,4.9936,4.9908,4.9783,4.9692,4.9692,4.9638,0.0,0.0,0.0,0.0,0.0,0.0,0.0,0.0,0.0,0.0,0.0,0.0,0.0,0.0,0.0,0.0,0.0,0.0,4.9509,4.9509,4.9509,4.9509,4.9509,4.9509,4.9509,4.9509,4.9509,4.9509,4.9509,4.9509,4.9509,4.9509,4.9509,4.9509,4.9509,4.9509,4.9509,4.9509,4.9509,4.9509,4.9509,4.9509,4.9509,4.9509,4.9509,4.9509,4.9509,0.0,0.0,0.0,0.0,0.0,0.0,0.0,0.0,0.0,0.0,0.0,0.0,0.0,0.0,0.0,0.0,0.0,0.0,0.0,0.0,0.0,4.5586,4.5594,4.5594,4.5594,4.5594,4.5594,4.5594,4.5594,4.5594,4.5594,4.5594,4.5594,4.5633,4.6663,4.749,4.8163,4.9183,5.0029,5.0693,5.0539,4.9557,4.8197,4.8105,4.7132,4.5795,4.5793,4.5807,4.5807,4.5807,0.0,0.0,0.0,0.0,4.727,4.814,4.885,4.9556,5.0385,5.0446,5.0298,5.0344,5.029,0.0,5.0159,5.0019,4.9933,4.992,4.983,0.0,0.0,0.0,0.0,0.0,0.0,0.0,0.0,0.0,0.0,0.0,0.0,0.0,0.0,0.0,0.0,0.0,0.0,4.9509,4.9509,4.9509,4.9509,4.9509,4.9509,4.9509,4.9509,4.9509,4.9509,4.9509,4.9509,4.9521,4.9548,4.9548,4.9517,4.9509,4.9509,4.9509,4.949,4.9551,4.9548,4.9563,4.9589,4.9619,4.9619,4.9619,4.9619,4.9619,0.0,0.0,0.0,0.0,0.0,0.0,0.0,0.0,0.0,0.0,4.3515,4.3515,0.0,0.0,0.0,0.0,0.0,0.0,4.518,0.0,0.0,4.5594,4.5594,4.5594,4.5594,4.5594,4.5594,4.5594,4.5594,4.5594,4.5594,4.5594,4.5594,4.5671,4.724,4.8009,4.8221,4.9837,5.0596,5.0635,4.9875,4.9018,4.812,4.743,4.6592,4.5795,4.5793,4.5807,4.5807,4.5807,4.5807,0.0,0.0,0.0,4.727,4.814,4.8995,4.979,5.0423,5.0577,5.0567,5.0642,5.0623,5.0558,0.0,0.0,5.0069,0.0,0.0,0.0,0.0,0.0,0.0,0.0,0.0,0.0,0.0,0.0,0.0,0.0,0.0,0.0,0.0,0.0,0.0,0.0,4.9509,4.9509,4.9509,4.9509,4.9509,4.9509,4.9509,4.9509,4.9509,4.9509,4.9509,4.9509,4.9509,4.9585,4.9768,4.9768,4.9665,4.9509,4.9509,4.9509,4.9505,4.9693,4.9768,4.9776,5.0012,5.0118,5.0118,5.0118,5.0118,5.0118,0.0,0.0,0.0,0.0,0.0,0.0,0.0,0.0,0.0,0.0,0.0,4.3565,0.0,0.0,0.0,4.4572,4.4977,4.5273,4.5419,4.5522,4.5594,4.5594,4.5594,4.5594,4.5594,4.5594,4.5594,4.5594,4.5594,4.5594,4.5594,4.5594,4.5864,4.6374,4.7567,4.8375,4.8913,5.0173,5.0423,4.9942,4.9596,4.8692,4.755,4.7194,4.6586,4.5893,4.5827,4.5807,4.5807,4.5807,4.5807,4.5807,4.5807,0.0,0.0,0.0,4.8662,4.9235,5.0494,5.0844,5.0898,0.0,5.0902,5.0847,5.0726,0.0,5.0408,5.0336,0.0,0.0,0.0,0.0,0.0,0.0,0.0,0.0,0.0,0.0,0.0,0.0,0.0,0.0,0.0,0.0,0.0,0.0,4.9509,4.9509,4.9509,4.9509,4.9509,4.9509,4.9509,4.9509,4.9509,4.9615,4.975,4.9882,4.9882,4.9942,5.0019,5.0019,4.9981,4.9882,4.9882,4.9882,4.9895,4.9987,5.0019,5.005,5.0159,5.0195,5.0195,5.0195,5.0195,5.0195,0.0,0.0,0.0,0.0,0.0,0.0,0.0,0.0,0.0,0.0,0.0,0.0,0.0,0.0,0.0,0.0,4.5211,4.5467,4.5586,4.5594,4.5594,4.5594,4.5594,4.5594,4.5594,4.5594,4.5594,4.5594,4.5594,4.5594,4.5594,4.5594,4.6163,4.7231,4.7836,4.8586,4.9452,5.0327,5.0212,4.9384,4.9245,4.8354,4.7069,4.6887,4.6498,4.6013,4.5908,0.0,0.0,0.0,0.0,0.0,4.5841,4.5841,0.0,0.0,0.0,4.935,5.0678,5.1056,5.1101,5.1127,5.1089,5.1041,0.0,0.0,5.0733,0.0,0.0,0.0,0.0,0.0,0.0,0.0,0.0,0.0,0.0,0.0,0.0,0.0,0.0,0.0,0.0,0.0,0.0,0.0,4.9509,4.9509,4.9509,4.9548,4.9574,4.9574,4.963,4.9673,4.9673,4.9822,4.9993,5.0195,5.0195,5.023,5.0298,5.0298,5.0331,5.0374,5.0252,5.0195,5.0206,5.0275,5.0298,5.0298,5.0363,5.0385,5.0385,5.0385,5.0385,5.0385,0.0,0.0,0.0,0.0,0.0,0.0,0.0,0.0,0.0,0.0,0.0,0.0,4.3974,4.4067,4.4331,4.4842,4.5211,4.5467,4.5586,4.5594,4.5594,4.5594,4.5594,0.0,4.5594,4.5594,4.5594,4.5594,4.5594,4.5594,4.5594,4.5594,4.6471,4.8048,4.8086,4.8586,4.9452,5.0327,5.0212,4.9336,4.8636,4.7868,4.7016,4.6323,4.6072,4.6095,0.0,0.0,0.0,0.0,0.0,0.0,0.0,0.0,0.0,0.0,0.0,0.0,5.1056,5.1095,5.1127,5.1171,5.1196,5.1172,0.0,0.0,0.0,0.0,0.0,0.0,0.0,0.0,0.0,0.0,0.0,0.0,0.0,0.0,0.0,0.0,0.0,0.0,0.0,0.0,0.0,0.0,4.9509,4.9509,4.9509,4.9679,4.979,4.979,5.0038,5.0159,5.0159,5.0171,5.0183,5.0195,5.0195,5.032,5.0577,5.0577,5.0672,5.0839,5.0396,5.0195,5.0218,5.0467,5.0577,5.0596,5.0789,5.0855,5.0855,5.0855,5.0855,5.0855,0.0,0.0,0.0,0.0,0.0,0.0,0.0,0.0,0.0,0.0,0.0,0.0,0.0,4.4329,4.4669,4.5132,4.535,4.5496,4.558,4.5596,4.5594,4.5594,4.5594,4.5594,4.5594,4.5594,4.5594,4.5594,4.5594,4.5594,4.5594,4.5594,4.649,4.8105,4.8105,4.8894,5.0231,4.9971,4.9401,4.8627,4.784,4.7107,4.6419,4.6162,0.0,0.0,0.0,0.0,0.0,0.0,0.0,0.0,0.0,0.0,0.0,0.0,0.0,5.0248,5.0254,0.0,0.0,5.1196,5.1202,5.119,5.114,5.1128,0.0,0.0,0.0,0.0,0.0,0.0,0.0,0.0,0.0,0.0,0.0,0.0,0.0,0.0,0.0,0.0,0.0,0.0,0.0,0.0,0.0,4.9961,4.9961,5.0012,5.0062,5.0062,5.0159,5.0275,5.0446,5.0457,5.0518,5.0643,5.0643,5.0708,5.0789,5.0789,5.0822,5.089,5.0726,5.0643,5.0653,5.0743,5.0789,5.0797,5.0874,5.0898,5.0898,5.0898,5.0898,5.0898,0.0,0.0,0.0,0.0,0.0,0.0,0.0,0.0,4.3515,4.3515,0.0,0.0,0.0,0.0,4.4862,4.529,4.5429,4.5496,4.558,4.5596,4.5594,4.5594,4.5594,4.5594,4.5594,4.5594,4.5594,4.5594,4.5594,4.5594,4.5594,4.5594,4.649,4.8086,4.7817,4.8644,5.0231,4.969,4.885,4.7833,4.7381,4.6761,4.6097,0.0,0.0,0.0,0.0,0.0,0.0,0.0,0.0,0.0,0.0,0.0,0.0,0.0,0.0,0.0,4.9418,0.0,0.0,0.0,5.0989,5.1202,5.1202,0.0,0.0,0.0,0.0,0.0,0.0,0.0,0.0,0.0,0.0,0.0,0.0,0.0,0.0,0.0,0.0,0.0,0.0,0.0,0.0,0.0,0.0,0.0,5.0195,5.0294,5.0363,5.0438,5.0438,5.0528,5.0709,5.0709,5.0771,5.0898,5.0898,5.0898,5.0898,5.0898,5.0898,5.0898,5.0898,5.0898,5.0898,5.0898,5.0898,5.0898,5.0898,5.0898,5.0898,5.0898,5.0898,5.0898,0.0,0.0,0.0,0.0,0.0,0.0,0.0,0.0,4.3515,4.3515,0.0,0.0,0.0,0.0,0.0,4.5361,4.54,4.5467,4.5586,4.5594,4.5594,4.5594,4.5594,4.5594,4.5594,4.5594,4.5594,4.5594,4.5594,4.5594,4.5594,4.5594,4.6479,4.8038,4.724,4.7807,4.9345,4.9473,4.8554,4.7036,0.0,4.6855,4.6117,0.0,0.0,0.0,4.7637,4.814,0.0,0.0,0.0,0.0,0.0,0.0,0.0,0.0,0.0,0.0,0.0,0.0,0.0,0.0,0.0,0.0,5.1183,0.0,0.0,0.0,0.0,0.0,0.0,0.0,0.0,0.0,0.0,0.0,0.0,0.0,0.0,0.0,0.0,0.0,0.0,0.0,0.0,0.0,5.0264,5.0218,5.0218,5.0467,5.07,5.0898,5.0898,5.0898,5.0898,5.0898,5.0898,5.0898,5.0898,5.0898,5.0898,5.0898,5.0898,5.0898,5.0898,5.0898,5.0898,5.0898,5.0898,5.0898,5.0898,5.0898,5.0898,5.0898,5.0898,5.0898,0.0,0.0,0.0,0.0,0.0,4.3515,4.3515,4.3515,4.3515,0.0,0.0,0.0,4.4168,4.4751,4.5197,4.5319,4.5419,4.5496,4.5524,4.5569,4.5594,4.5594,4.5594,4.5594,4.5594,4.5594,4.5594,4.5594,4.5594,4.5594,4.5594,4.5594,4.6213,4.7291,4.7079,4.7277,4.7798,4.7743,0.0,4.7109,4.6631,4.637,0.0,0.0,0.0,0.0,0.0,4.8671,4.8885,0.0,4.83,4.7459,0.0,0.0,0.0,0.0,0.0,0.0,4.7742,0.0,0.0,0.0,0.0,0.0,0.0,0.0,0.0,0.0,0.0,0.0,0.0,0.0,0.0,0.0,0.0,0.0,0.0,0.0,0.0,0.0,0.0,0.0,0.0,0.0,0.0,0.0,5.0797,5.0752,5.0717,5.078,5.083,5.0898,5.0898,5.0898,5.0898,5.0898,5.0898,5.0898,5.0898,5.0898,5.0898,5.0898,5.0898,5.0898,5.0898,5.0898,5.0898,5.0898,5.0898,5.0898,5.0898,5.0898,5.0898,5.0898,5.0898,5.0898,0.0,0.0,0.0,4.2728,4.3185,4.3515,4.3515,4.3615,4.3716,0.0,0.0,0.0,4.4395,4.4943,4.5288,4.53,4.54,4.5477,4.5496,4.555,4.5594,4.5594,4.5594,4.5594,4.5594,4.5594,4.5594,4.5594,4.5594,4.5594,4.5594,4.5651,4.6156,4.6992,4.6681,4.6787,4.7179,4.6784,0.0,0.0,4.634,0.0,0.0,4.7265,4.7832,0.0,0.0,0.0,4.9941,4.9941,4.9141,0.0,0.0,0.0,0.0,0.0,0.0,0.0,0.0,0.0,0.0,0.0,0.0,0.0,5.0534,5.095,0.0,0.0,0.0,0.0,0.0,0.0,0.0,0.0,0.0,0.0,0.0,0.0,0.0,0.0,0.0,0.0,0.0,5.1127,5.1082,5.1035,5.1041,5.1012,5.0948,5.0914,5.0898,5.0898,5.0898,5.0898,5.0898,5.0898,5.0898,5.0898,5.0898,5.0898,5.0898,5.0898,5.0898,5.0898,5.0898,5.0898,5.0898,5.0898,5.0898,5.0898,5.0898,5.0898,5.0898,5.0898,5.0898,5.0906,0.0,0.0,4.2446,4.3333,4.3515,4.3515,4.3515,4.3781,4.4005,0.0,4.4265,4.4546,4.4831,4.5121,4.5298,4.5292,4.5352,4.5429,4.5485,4.5559,4.5594,4.5594,4.5594,4.5594,4.5594,4.5594,4.5603,4.562,4.562,4.5637,4.5635,4.5752,4.6209,4.6874,4.6215,4.6357,4.7051,0.0,0.0,4.612,4.6244,4.6308,0.0,0.0,4.8223,0.0,4.998,5.0781,5.1367,5.1191,5.0078,0.0,0.0,0.0,0.0,0.0,4.6267,0.0,0.0,0.0,0.0,0.0,0.0,0.0,4.9868,5.0503,5.1081,0.0,0.0,0.0,0.0,0.0,0.0,0.0,0.0,0.0,0.0,0.0,0.0,0.0,0.0,0.0,5.1202,5.1159,5.1101,5.1095,5.1101,5.1067,5.1012,5.0948,5.0906,5.0906,5.0906,5.0898,5.0898,5.0898,5.0898,5.0898,5.0898,5.0898,5.0898,5.0898,5.0898,5.0898,5.0898,5.0898,5.0898,5.0898,5.0898,5.0898,5.0898,5.0898,5.0898,5.0898,5.0906,5.0914,0.0,4.2733,4.3261,4.3461,4.3515,4.3515,4.3515,4.3781,4.4005,4.4005,4.4416,4.4843,4.5173,4.5256,4.5307,4.5298,4.5351,4.541,4.5419,4.5522,4.5594,4.5594,4.5594,4.5594,4.5594,4.5594,4.5643,4.5757,4.5757,4.5782,4.5832,4.5864,4.6027,4.6271,4.6131,4.6216,4.6468,0.0,0.0,4.6268,4.6287,0.0,4.6465,4.8047,4.875,4.9101,5.0625,5.1269,5.1191,0.0,4.8691,4.7676,0.0,0.0,0.0,0.0,0.0,0.0,0.0,0.0,0.0,0.0,0.0,0.0,4.9669,5.0115,5.0413,0.0,0.0,0.0,0.0,0.0,0.0,0.0,0.0,0.0,0.0,0.0,0.0,0.0,0.0,0.0,5.1202,5.1196,5.1165,5.1101,5.1101,5.1094,5.1087,5.1012,5.0971,5.0971,5.0941,5.0898,5.0898,5.0898,5.0898,5.0898,5.0898,5.0898,5.0898,5.0898,5.0898,5.0898,5.0898,5.0898,5.0898,5.0898,5.0898,5.0898,5.0898,5.0898,5.0898,5.0898,5.0921,5.0978,4.2699,4.3154,4.3445,4.3479,4.3515,4.3515,4.3515,4.3905,4.4192,4.4192,4.4714,4.5109,4.5267,4.5307,4.5317,4.5338,4.538,4.5419,4.5438,4.5531,4.5594,4.5594,4.5594,4.5594,4.5594,4.566,4.5727,4.5807,4.5835,4.5869,4.5906,4.5966,4.604,4.61,4.6177,4.6239,4.6307,0.0,4.6308,4.6308,4.6308,0.0,4.6445,4.7754,4.8516,4.9004,4.9844,5.0156,4.9961,4.8672,4.7969,0.0,0.0,4.6306,4.6301,0.0,4.6291,4.6285,0.0,0.0,0.0,4.6715,0.0,0.0,0.0,4.9382,5.0117,5.0519,5.0943,0.0,0.0,0.0,0.0,0.0,0.0,0.0,0.0,0.0,0.0,0.0,0.0,0.0,5.1202,5.1202,5.1196,5.1139,5.1128,5.1108,5.1108,5.1041,5.1005,5.1005,5.0921,5.0898,5.0898,5.0898,5.0898,5.0898,5.0898,5.0898,5.0898,5.0898,5.0898,5.0898,5.0898,5.0898,5.0898,5.0898,5.0914,5.0948,5.0906,5.0914,5.0956,5.0956,5.0998,5.1053,4.3265,4.3411,4.3446,4.3497,4.3515,4.3515,4.3515,4.4008,4.4425,4.4565,4.5007,4.5307,4.5307,4.5307,4.5328,4.5379,4.539,4.5429,4.5495,4.5568,4.5594,4.5594,4.5594,4.5612,4.5646,4.5742,4.5815,4.5867,4.5908,4.5954,4.5978,4.6086,4.6136,4.615,4.6243,4.6307,4.6307,0.0,0.0,4.6308,0.0,4.6308,4.6406,4.7266,4.8047,4.8672,4.8848,4.8789,4.8535,4.7832,0.0,4.7226,4.6523,4.6307,0.0,0.0,0.0,0.0,0.0,0.0,0.0,0.0,0.0,4.7305,0.0,0.0,0.0,4.9941,0.0,0.0,0.0,0.0,0.0,0.0,0.0,0.0,0.0,0.0,0.0,0.0,0.0,0.0,5.1202,5.1202,5.1202,5.1202,5.1159,5.1127,5.1127,5.1069,5.1027,5.102,5.0963,5.0921,5.0914,5.0921,5.0941,5.0941,5.0933,5.0914,5.0914,5.0937,5.0944,5.0952,5.0942,5.0956,5.0963,5.0963,5.0991,5.1037,5.0969,5.0969,5.1023,5.103,5.1063,5.1113,4.3479,4.3497,4.3497,4.3497,4.3515,4.3515,4.3515,4.4008,4.4591,4.5129,4.5256,4.5307,4.5307,4.5307,4.5328,4.5379,4.539,0.0,4.5495,0.0,4.5594,4.5594,4.5594,4.5671,4.5778,4.5793,4.5885,4.6072,4.6064,4.6147,4.6243,4.6273,4.628,4.6285,4.6289,4.6308,4.6308,0.0,4.6308,0.0,4.6308,4.6308,0.0,4.7266,4.7656,4.7851,4.8613,4.8398,4.7734,0.0,4.709,4.6426,0.0,4.6305,4.6301,0.0,0.0,0.0,0.0,0.0,0.0,0.0,4.6365,0.0,0.0,0.0,4.829,4.9785,0.0,0.0,0.0,0.0,0.0,0.0,0.0,0.0,0.0,0.0,0.0,0.0,0.0,0.0,0.0,5.1202,5.1202,5.1202,5.1196,5.1196,5.1196,5.1127,5.1089,5.1094,5.1087,5.1053,5.0978,5.1053,5.1087,5.1087,5.1012,5.0998,5.0986,5.1043,5.1081,5.1087,5.1133,5.1163,5.1164,5.1164,5.1175,5.1163,5.1098,5.1086,5.1098,5.1168,5.1184,5.118,4.3515,4.3515,4.3515,4.3515,4.3666,4.3798,4.3798,4.4275,4.4795,4.5246,4.5307,4.5307,4.5307,0.0,0.0,0.0,0.0,4.5438,0.0,0.0,4.5594,4.5594,4.5676,4.5742,4.5807,4.5919,4.6031,4.6098,4.6187,4.6239,4.6299,4.6303,4.6307,4.6308,4.6308,0.0,4.6308,0.0,4.6308,0.0,0.0,0.0,0.0,4.6719,4.6855,4.6953,4.7832,4.7598,4.6855,0.0,4.6601,0.0,0.0,0.0,0.0,0.0,0.0,0.0,0.0,0.0,0.0,0.0,0.0,0.0,4.6768,0.0,4.7923,0.0,0.0,0.0,0.0,0.0,0.0,0.0,5.1112,0.0,0.0,0.0,0.0,0.0,0.0,0.0,0.0,0.0,0.0,0.0,5.1202,5.1202,5.1202,5.1133,5.1089,5.1095,5.1107,5.1092,5.106,5.1118,5.1167,5.1157,5.1128,5.1113,5.1116,5.1147,5.1165,5.117,5.1199,5.1496,5.1954,5.1954,5.2258,5.2701,5.2723,5.208,5.1154,5.1185,5.1535,5.2015,4.3615,4.3632,4.3632,4.3632,4.3908,4.4136,4.421,4.4565,4.4934,4.5256,4.5488,0.0,4.5621,4.5853,0.0,0.0,4.6129,4.61,0.0,0.0,4.5862,0.0,0.0,0.0,0.0,4.6039,4.6128,4.6147,4.6257,4.6296,4.6301,4.6306,4.6308,4.6308,4.6308,4.6308,4.6308,0.0,4.6308,4.6308,4.6308,4.6308,4.6308,4.6308,4.6308,4.6387,4.7012,4.6836,4.6308,4.6308,4.6308,0.0,4.6308,0.0,0.0,0.0,0.0,0.0,4.6306,0.0,0.0,0.0,0.0,0.0,0.0,0.0,0.0,0.0,0.0,0.0,0.0,0.0,0.0,0.0,0.0,5.1326,0.0,0.0,0.0,0.0,0.0,0.0,0.0,0.0,0.0,0.0,0.0,5.1235,5.1235,5.1181,5.1146,5.1122,5.1141,5.1148,5.1124,5.1187,5.1224,5.1235,5.1213,5.134,5.156,5.1589,5.1718,5.1935,5.1956,5.2339,5.2908,5.2908,5.3285,5.3859,5.3906,5.3124,5.1961,5.1961,5.2394,5.2984,4.3926,4.3989,4.3989,4.3989,4.4206,4.4465,4.4726,4.4788,4.4934,4.5256,0.0,0.0,0.0,0.0,0.0,0.0,0.0,4.7684,4.6904,0.0,4.6549,0.0,0.0,4.5891,0.0,0.0,4.6153,4.6298,4.6308,4.6296,4.6301,4.6306,4.6308,4.6308,4.6308,4.6308,4.6308,4.6308,4.6308,4.6308,4.6308,4.6308,4.6308,0.0,4.6308,4.6308,4.6328,0.0,0.0,4.6308,4.6308,0.0,0.0,0.0,0.0,0.0,0.0,0.0,0.0,0.0,0.0,4.63,0.0,0.0,0.0,0.0,4.6807,0.0,0.0,0.0,0.0,0.0,0.0,5.028,0.0,0.0,0.0,0.0,0.0,0.0,0.0,0.0,0.0,0.0,0.0,0.0,5.1293,0.0,5.1293,5.1293,5.1267,5.1199,5.1269,5.1269,5.1199,5.1252,5.1295,5.1295,5.1225,5.163,5.2452,5.2522,5.302,5.3822,5.3885,5.3935,5.3949,5.3949,5.3964,5.3994,5.3992,5.3953,5.3916,5.3916,5.3936,5.3955,0.0,0.0,0.0,0.0,0.0,4.477,4.5087,4.5121,4.5363,0.0,0.0,0.0,0.0,4.7745,4.7988,0.0,0.0,4.8081,4.7832,4.7832,0.0,0.0,0.0,4.6532,0.0,0.0,0.0,4.6309,4.6296,4.6301,4.6306,4.6308,4.6308,4.6308,4.6308,4.6621,0.0,0.0,0.0,0.0,0.0,4.7676,4.7109,0.0,0.0,4.6308,4.6308,4.6308,0.0,4.6308,4.6308,4.6308,4.6308,4.6308,4.6308,4.6307,4.6306,0.0,0.0,0.0,4.6308,4.6302,0.0,0.0,0.0,0.0,0.0,0.0,0.0,0.0,0.0,0.0,5.1297,5.1004,5.1219,0.0,0.0,0.0,0.0,0.0,0.0,0.0,0.0,0.0,0.0,0.0,5.1297,0.0,5.1297,5.1297,5.1295,5.1271,5.1337,5.1363,5.1323,5.1347,5.1365,5.1367,5.1933,5.2344,5.2656,5.3241,5.3687,5.396,5.3988,5.433,5.4855,5.4855,5.5205,5.5728,5.5728,5.5728,5.5571,5.4439,5.4361,5.4947,4.4265,0.0,0.0,0.0,0.0,4.5045,4.5256,0.0,0.0,0.0,4.712,0.0,4.8311,0.0,4.8931,0.0,4.9078,4.9053,4.8786,4.8805,0.0,4.7767,4.7432,0.0,0.0,0.0,0.0,0.0,4.63,4.6304,4.6307,4.6308,4.6308,4.6308,4.6621,4.707,4.7617,0.0,4.8398,0.0,0.0,4.8555,0.0,0.0,4.6836,4.6308,0.0,4.6308,4.6308,4.6308,4.6308,4.6308,4.6308,4.6308,4.6308,4.6308,4.6307,4.6306,4.6301,4.6296,0.0,4.6306,4.6537,0.0,4.6768,0.0,0.0,0.0,0.0,0.0,0.0,0.0,0.0,5.1394,5.1394,0.0,0.0,5.1394,0.0,0.0,0.0,0.0,0.0,0.0,0.0,5.1345,5.1345,5.1345,0.0,5.1345,5.1345,5.1345,5.1386,5.1402,5.1402,5.1407,5.1554,5.1874,5.2438,5.3027,5.3637,5.4218,5.4625,5.4917,5.491,5.524,5.5767,5.5767,5.6098,5.6606,5.6606,5.6606,5.6469,5.5337,5.5279,5.5845,0.0,0.0,0.0,0.0,4.5117,0.0,0.0,0.0,4.6642,0.0,4.8179,4.9207,4.9264,5.0092,5.0641,5.0623,5.0838,0.0,4.9737,4.9795,0.0,0.0,4.7972,4.7573,4.7664,0.0,0.0,0.0,0.0,4.6304,4.6307,4.6308,4.6328,4.6406,4.7226,0.0,4.7773,4.8613,4.8984,4.9023,4.9023,4.9004,4.8965,4.8965,4.791,4.6426,4.6387,4.6387,4.6387,4.6328,4.6308,4.6308,4.6308,4.6308,4.6308,4.6308,4.6367,4.6424,4.6424,4.6439,4.6431,4.6431,0.0,0.0,0.0,0.0,4.9091,0.0,0.0,0.0,0.0,0.0,0.0,5.1394,5.1394,5.1394,0.0,0.0,0.0,0.0,0.0,0.0,0.0,0.0,5.1394,5.1394,5.1394,5.1394,0.0,5.1394,5.1394,5.1394,5.1394,5.1394,5.1394,5.1394,5.1843,5.2704,5.2743,5.3641,5.53,5.5337,5.5825,5.6606,5.6606,5.6606,5.6606,5.6606,5.6606,5.6606,5.6606,5.6606,5.6606,5.6606,5.6606,5.6606,4.4776,4.5011,4.5363,0.0,4.5647,4.5488,0.0,0.0,0.0,0.0,4.8938,4.9517,5.016,5.1027,5.1376,5.0874,5.1504,0.0,0.0,0.0,0.0,4.9774,4.9419,4.9016,4.8504,4.7686,0.0,4.7275,0.0,4.6305,4.6308,4.6308,4.6641,4.7285,4.75,4.832,4.9551,4.9766,5.0215,5.0762,5.0762,5.0391,0.0,0.0,4.9199,4.8164,4.7715,4.7558,4.7422,4.6582,4.6308,4.6308,4.6308,4.6308,4.6308,4.6308,4.7226,4.8222,4.8221,4.8239,4.8238,4.8235,4.8404,4.8574,0.0,0.0,0.0,0.0,0.0,0.0,0.0,0.0,0.0,0.0,0.0,0.0,0.0,0.0,0.0,0.0,0.0,0.0,0.0,0.0,5.1394,5.1394,5.1394,5.1394,5.1394,0.0,5.1394,5.1394,5.1394,5.1394,5.1394,5.1394,5.1843,5.2704,5.3366,5.4244,5.5318,5.5962,5.6391,5.6606,5.6606,5.6606,5.6606,5.6606,5.6606,5.6606,5.6606,5.6606,5.6606,5.6606,5.6606,5.6606,4.5023,0.0,0.0,4.6424,0.0,0.0,4.704,0.0,0.0,4.9071,4.99,0.0,5.1114,5.1951,5.2339,5.202,5.2524,0.0,5.1822,0.0,0.0,5.0709,5.0235,4.9784,4.9382,4.8587,0.0,4.8175,0.0,4.7439,4.7441,4.7441,4.7695,4.8183,4.8574,4.9277,5.0215,5.0586,5.0996,5.1406,5.1406,0.0,0.0,5.0723,5.043,4.9941,4.9609,4.8848,4.7832,4.668,4.6308,4.6562,4.8066,4.8535,4.8535,4.8535,4.8867,4.9258,4.9257,4.9081,4.8904,4.8903,4.9153,4.9421,4.9417,5.0077,5.0678,0.0,0.0,0.0,0.0,0.0,0.0,0.0,0.0,0.0,0.0,0.0,0.0,0.0,0.0,0.0,0.0,5.1394,5.1394,5.1394,5.1394,5.1394,0.0,0.0,0.0,5.1394,5.1394,5.1394,5.1394,5.1785,5.2409,5.3288,5.4147,5.5025,5.5884,5.6372,5.6606,5.6606,5.6606,5.6606,5.6606,5.6606,5.6606,5.6606,5.6606,5.6606,5.6606,5.6606,5.6606,5.6606,0.0,0.0,0.0,0.0,0.0,0.0,0.0,4.875,0.0,4.9575,0.0,5.1882,5.2058,5.2857,5.3407,5.3414,0.0,5.3477,5.2738,5.2701,5.2351,5.1609,5.0748,5.026,5.026,4.9471,0.0,0.0,0.0,4.8905,4.8906,4.8906,4.8965,4.9101,4.9863,0.0,0.0,5.1094,5.1406,5.1406,5.1406,5.1406,5.1406,5.1406,5.1406,5.1406,5.1406,5.0137,4.8281,4.7305,4.6973,4.748,5.0469,5.1406,5.1406,5.1406,5.0703,4.9922,4.9922,4.9589,4.9237,4.9237,4.9742,5.0266,5.026,5.0864,5.1408,5.1398,5.1396,5.1396,0.0,0.0,0.0,0.0,0.0,0.0,0.0,0.0,0.0,0.0,0.0,0.0,0.0,0.0,5.1394,5.1394,5.1394,5.1394,0.0,0.0,0.0,5.1394,5.1394,5.1453,5.157,5.2312,5.319,5.4186,5.4947,5.5767,5.6606,5.6606,5.6606,5.6606,5.6606,5.6606,5.6606,5.6606,5.6606,5.6606,5.6606,5.6606,5.6606,5.6606,5.6606,5.6606,0.0,0.0,0.0,0.0,0.0,4.9226,5.0015,4.9632,4.9776,5.1179,5.1681,5.2163,5.2885,5.385,5.4207,5.3624,5.4333,0.0,0.0,0.0,0.0,5.2489,5.1648,5.118,5.118,5.033,4.9889,0.0,0.0,4.8905,4.8906,4.8906,4.9277,4.998,5.0137,0.0,5.1191,5.1348,0.0,5.1406,5.1406,5.1406,5.1406,5.1406,5.1406,5.1406,5.1406,5.1133,5.0762,5.0566,5.0508,5.0605,5.1211,5.1406,5.1406,5.1406,5.1269,5.1094,5.1094,5.1035,5.0957,5.0957,5.1073,5.1169,5.1169,5.1283,5.1395,5.1408,5.1407,5.1405,5.1396,0.0,0.0,0.0,0.0,0.0,0.0,0.0,0.0,0.0,0.0,0.0,0.0,0.0,0.0,0.0,0.0,0.0,0.0,0.0,0.0,0.0,5.1394,0.0,0.0,0.0,5.3504,5.5064,5.522,5.5767,5.6606,5.6606,5.6606,5.6606,5.6606,5.6606,5.6606,5.6606,5.6606,5.6606,5.6606,5.6606,5.6606,5.6606,5.6606,5.6606,0.0,0.0,0.0,0.0,0.0,0.0,0.0,5.0892,0.0,5.1758,5.2642,5.3396,5.3918,5.478,5.5227,5.5019,5.5443,5.5427,5.473,5.4283,5.3641,5.2743,5.2292,0.0,5.1402,5.0981,5.0772,5.0777,0.0,0.0,5.0195,5.0195,5.043,5.082,5.082,5.1035,0.0,0.0,0.0,5.1406,5.1406,5.1406,5.1406,5.1406,5.1406,5.1406,5.1406,5.1406,5.1406,5.1406,5.1406,5.1406,5.1406,5.1406,5.1406,5.1406,5.1406,5.1406,5.1406,5.1406,5.1406,5.1406,5.1406,5.1406,5.1405,5.1404,5.1401,5.1396,5.1395,5.1393,5.1405,5.1398,0.0,0.0,0.0,0.0,0.0,0.0,0.0,0.0,0.0,0.0,0.0,0.0,0.0,0.0,0.0,0.0,0.0,0.0,0.0,0.0,0.0,0.0,0.0,0.0,0.0,5.532,5.5767,5.6196,5.6606,5.6606,5.6606,5.6606,5.6606,5.6606,5.6606,5.6606,5.6606,5.6606,5.6606,5.6606,5.6606,5.6606,5.686,5.7153,0.0,4.8929,0.0,0.0,5.0381,0.0,5.201,5.2338,5.2502,5.2502,5.3647,5.4612,5.4951,5.5579,5.6064,5.6279,5.6348,5.6147,5.5608,5.5396,5.4695,5.3309,5.3075,5.2571,5.1701,5.1688,5.1596,0.0,0.0,0.0,5.1406,5.1406,5.1406,5.1406,0.0,0.0,0.0,0.0,5.1406,5.1406,5.1406,5.1406,5.1406,5.1406,5.1406,5.1406,5.1406,5.1406,5.1406,5.1406,5.1406,5.1406,5.1406,5.1406,5.1406,5.1406,5.1406,5.1406,5.1406,5.1406,5.1406,5.1406,5.1406,5.1406,5.1405,5.1405,5.1405,5.1401,5.1399,5.1396,5.1391,5.1403,0.0,0.0,0.0,0.0,0.0,0.0,0.0,0.0,0.0,0.0,0.0,0.0,0.0,0.0,0.0,0.0,0.0,0.0,0.0,0.0,0.0,5.3075,5.3251,0.0,5.5396,5.5571,5.6274,5.6606,5.6606,5.6606,5.6606,5.6606,5.6606,5.6606,5.6606,5.6606,5.6606,5.6606,5.6606,5.6606,5.6626,5.6782,5.725,5.7738,0.0,0.0,0.0,0.0,0.0,0.0,5.3108,5.3926,5.4428,5.4428,5.4564,5.4998,5.587,5.6147,5.627,5.6308,5.6472,5.6543,5.6489,5.5747,5.5222,5.5066,5.4303,5.3467,5.2599,5.2586,5.2182,0.0,0.0,0.0,0.0,5.1406,5.1406,0.0,0.0,0.0,0.0,5.1406,5.1406,5.1406,5.1406,5.1406,5.1406,5.1406,5.1406,5.1406,5.1406,5.1406,5.1406,5.1406,5.1406,5.1406,5.1406,5.1406,5.1406,5.1406,5.1406,5.1406,5.1406,5.1406,5.1406,5.1406,5.1406,5.1406,5.1406,5.1406,5.1406,5.1405,5.1402,5.1396,5.1391,5.1408,5.1405,0.0,0.0,0.0,0.0,0.0,0.0,0.0,0.0,0.0,0.0,5.1394,0.0,0.0,0.0,0.0,0.0,0.0,0.0,5.2587,0.0,5.4264,5.5047,5.5222,5.5708,5.6489,5.6567,5.6606,5.6606,5.6606,5.6606,5.6606,5.6606,5.6606,5.6606,5.6606,5.6606,5.6606,5.6606,5.6606,5.6684,5.7426,5.7738,5.7894,0.0,0.0,0.0,0.0,0.0,0.0,0.0,5.4606,5.5022,5.559,5.5585,5.5702,5.6177,5.6266,5.6352,5.6472,5.6555,5.6606,5.6606,5.6274,5.5845,5.5318,5.4974,5.4376,5.3504,5.3471,5.3045,0.0,0.0,0.0,0.0,0.0,0.0,0.0,0.0,5.1406,5.1406,5.1406,5.1406,5.1445,5.1973,5.2187,5.2246,5.2754,5.2305,5.1484,5.2226,5.2012,5.1406,5.1406,5.1406,5.1406,5.1406,5.1406,5.1406,5.1406,5.1406,5.1406,5.1406,5.1406,5.1406,5.1406,5.1406,5.1406,5.1406,5.1406,5.1406,5.1406,5.1405,5.1402,5.1396,5.1393,5.1407,0.0,0.0,0.0,0.0,0.0,0.0,0.0,0.0,0.0,0.0,0.0,0.0,0.0,0.0,0.0,0.0,0.0,0.0,5.3463,0.0,5.4947,5.53,5.5825,5.6255,5.6606,5.6606,5.6606,5.6606,5.6606,5.6606,5.6606,5.6606,5.6606,5.6606,5.6606,5.6606,5.6645,5.7133,5.7328,5.7426,5.8265,5.8909,5.9417,5.1317,0.0,5.2768,0.0,5.3565,5.4276,5.5186,5.5308,5.556,5.6297,5.6309,5.6276,5.6379,5.6386,5.6446,5.6582,5.6606,5.6606,5.6606,5.6606,5.6335,5.5714,5.5681,0.0,5.4408,5.4372,5.3964,5.3086,5.3086,0.0,0.0,0.0,0.0,0.0,5.2168,5.2168,5.2168,5.2168,5.2168,5.2226,5.2832,5.3086,5.3144,5.3769,5.3359,5.2519,5.3183,5.3223,5.2851,5.2344,5.2519,5.293,5.293,5.2578,5.2207,5.2383,5.2305,5.2168,5.2168,5.2168,5.2109,5.1855,5.1777,5.1719,5.1465,5.1406,5.1406,5.1406,5.1406,5.1405,5.1399,5.1395,5.1566,5.2081,0.0,0.0,0.0,0.0,0.0,0.0,0.0,5.2156,5.2156,0.0,0.0,0.0,0.0,0.0,0.0,0.0,0.0,0.0,0.0,0.0,5.5689,5.6294,5.6606,5.6606,5.6606,5.6606,5.6606,5.6606,5.6606,5.6606,5.6606,5.6606,5.6606,5.6606,5.6743,5.7016,5.7582,5.7953,5.8285,5.9163,5.9866,6.0432,5.2277,5.2982,5.3856,5.4724,5.488,5.5194,5.6139,5.6288,5.6359,5.658,5.6584,5.6584,5.6604,5.6604,5.6604,5.6606,5.6606,5.6606,5.6606,5.6606,5.6591,0.0,0.0,5.6179,5.529,5.5271,5.4862,5.3984,0.0,0.0,5.3965,0.0,5.3965,5.3965,5.3965,5.3965,5.3965,5.3965,5.3965,5.3965,5.3984,5.3984,5.3984,5.4004,5.4355,5.4785,5.4199,5.5098,5.6269,5.4551,5.5117,5.6543,5.6543,5.5351,5.4082,5.4687,5.4433,5.3965,5.3965,5.3965,5.3769,5.2891,5.2676,5.2461,5.1601,5.1406,5.1406,5.1406,5.1406,5.1406,5.14,5.1398,5.1961,5.3684,0.0,0.0,0.0,0.0,0.0,0.0,5.3971,5.3971,5.3971,0.0,0.0,0.0,0.0,0.0,0.0,0.0,0.0,5.5281,5.6138,0.0,5.6586,5.6586,5.6606,5.6606,5.6606,5.6606,5.6606,5.6606,5.6606,5.6606,5.6606,5.6606,5.6606,5.6606,5.7074,5.7797,5.7797,5.8324,5.9183,6.0061,6.0393,6.0529,5.3326,5.4099,5.4856,5.5126,5.5652,5.6166,5.6461,5.6503,5.6528,5.6584,5.6606,5.6606,5.6606,5.6606,5.6606,0.0,5.6593,5.6596,0.0,5.6603,5.6606,5.6609,5.6594,5.646,5.6189,5.619,5.5761,5.4883,0.0,0.0,0.0,5.4004,5.4004,5.4004,5.4004,5.4004,5.4004,5.4004,5.4004,5.4043,5.4648,5.4883,5.4941,5.5547,5.5898,5.6035,5.584,5.6133,5.6523,5.5957,5.6133,5.6601,5.6601,5.6211,5.5664,5.5078,5.4473,5.4004,5.4004,5.4004,5.3926,5.3652,5.3594,5.3516,5.3242,5.2891,5.2637,5.2637,5.1973,5.1757,5.2943,5.2847,5.2981,5.4328,5.4232,0.0,0.0,0.0,0.0,0.0,5.401,5.3957,0.0,5.4398,0.0,0.0,0.0,0.0,0.0,0.0,0.0,0.0,5.6469,0.0,5.6606,5.6606,5.6606,5.6606,5.6606,5.6606,5.6606,5.6606,5.6606,5.6606,5.6606,5.6918,5.7426,5.7426,5.7914,5.8753,5.9339,5.9749,6.008,6.0959,6.1225,6.1183,5.4369,5.5123,5.5786,5.5786,5.6235,5.6606,5.6606,5.6606,5.6606,5.6591,5.6593,5.671,5.7047,5.7086,0.0,5.6632,5.6602,5.6606,5.6606,5.6591,5.6594,5.6596,5.6598,5.66,5.6601,5.6601,0.0,5.5781,5.5781,5.5508,5.498,5.498,5.498,5.498,5.498,5.498,5.498,5.498,5.498,5.5019,5.5566,5.5781,5.5859,5.6387,5.6601,5.6601,5.6601,5.6601,5.6601,5.6601,5.6601,5.6601,5.6601,5.6601,5.6465,5.5742,5.5273,5.498,5.498,5.498,5.4902,5.457,5.4492,5.4394,5.4062,5.373,5.3496,5.3496,5.3418,5.3691,5.4782,5.4665,5.4644,5.5354,5.5196,5.4979,5.4972,0.0,0.0,0.0,0.0,0.0,0.0,5.5156,5.5487,0.0,0.0,0.0,0.0,0.0,0.0,5.6398,5.6418,0.0,5.6418,5.6465,5.6497,5.6497,5.6558,5.6606,5.6606,5.6606,5.6606,5.6626,5.6918,5.7348,5.7836,5.8148,5.878,5.9576,6.0103,6.048,6.0765,6.1311,6.1466,6.139,5.5396,5.604,5.6606,0.0,5.6606,0.0,5.6608,5.6647,5.669,5.6699,5.6738,5.7073,5.7882,5.8,5.7666,5.6857,0.0,0.0,0.0,5.6633,5.6596,5.6599,5.6599,5.6601,5.6601,5.6601,5.6601,5.6601,5.6601,5.6601,5.6601,5.6601,5.6601,5.6601,5.6601,5.6601,5.6601,5.6601,5.6601,5.6601,5.6601,5.6601,5.6601,5.6601,5.6601,5.6601,5.6601,5.6601,5.6601,5.6601,5.6601,5.6601,5.6601,5.6601,5.6601,5.6601,5.6601,5.6601,5.6601,5.6601,5.6406,5.5586,5.539,5.5176,5.4375,5.418,5.418,5.418,5.5469,5.6601,5.66,5.66,5.6599,5.6593,5.6587,5.6579,5.6573,0.0,0.0,0.0,0.0,0.0,0.0,5.6084,5.6084,0.0,0.0,0.0,0.0,0.0,5.6227,5.6104,5.6097,5.6097,5.6097,5.6212,5.6279,5.6284,5.6472,5.6575,5.6575,5.6575,5.6594,5.6692,5.7456,5.7846,5.8022,5.8839,5.9602,6.0263,6.0263,6.0653,6.1206,6.1206,6.1186,6.1192,0.0,0.0,5.6608,5.6596,5.6598,5.66,5.6606,5.7154,5.7585,5.7586,5.8133,5.8584,5.878,5.8862,5.8805,5.8609,5.7984,5.7594,5.7594,5.6971,5.6601,5.6601,5.6601,5.6601,5.6601,5.6601,5.6601,5.6601,5.6601,5.6601,5.6601,5.6601,5.6601,5.6601,5.6601,5.6601,5.6601,5.6601,5.6601,5.6601,5.6601,5.6601,5.6601,5.6601,5.6601,5.6601,5.6601,5.6601,5.6601,5.6601,5.6601,5.6601,5.6601,5.6601,5.6601,5.6601,5.6601,5.6601,5.6601,5.6601,5.6543,5.6348,5.6289,5.623,5.6035,5.5976,5.5976,5.5976,5.6308,5.6601,5.66,5.6601,5.6578,5.6467,5.6442,5.6381,5.6237,5.6189,0.0,0.0,5.6116,5.605,5.597,5.5954,5.5954,0.0,0.0,0.0,0.0,5.5975,5.6035,5.6097,5.6097,5.6097,5.6097,5.6128,5.6146,5.6146,5.6195,5.6225,5.6225,5.6225,5.6575,5.7212,5.7406,5.8243,5.9507,5.9702,6.0248,6.0968,6.0968,6.1065,6.1206,6.1206,6.1132,6.1046,5.66,5.66,5.6602,5.6606,5.6606,5.6725,5.714,5.7608,5.8039,5.8432,5.8862,5.9292,5.9645,5.9627,5.9784,6.0292,5.9218,5.8495,5.8495,5.8047,5.7617,5.7207,5.7187,5.7012,5.6601,5.6601,5.6601,5.6601,5.6601,5.6601,5.6601,5.6601,5.6601,5.6601,5.6601,5.6601,5.6601,5.6601,5.6601,5.6601,5.6601,5.6601,5.6601,5.6601,5.6601,5.6601,5.6601,5.6601,5.6601,5.6601,5.6601,5.6601,5.6601,5.6601,5.6601,5.6601,5.6601,5.6601,5.6601,5.6601,5.6601,5.6601,5.6601,5.6601,5.6601,5.6601,5.6601,5.6601,5.6601,5.6562,5.6475,5.6455,5.6424,5.6336,5.6316,5.6266,5.616,5.607,0.0,5.6013,5.5951,5.5898,5.5808,5.5818,5.5818,5.5818,5.5818,0.0,5.5818,5.5818,5.5835,5.5913,5.5921,5.5921,5.5921,5.5975,5.6049,5.6097,5.6097,5.6097,5.6117,5.6505,5.6945,5.7431,5.8246,5.914,6.0033,6.0402,6.0774,6.1112,6.1112,6.107,6.101,6.101,6.0983,6.0911,5.6592,5.6593,5.6632,5.677,5.6691,5.6906,5.7825,5.8119,5.8471,5.9217,5.9471,5.9843,6.0527,6.039,6.0644,6.1621,6.039,5.957,5.957,5.9258,5.873,5.7988,5.7793,5.7363,5.6621,5.6601,5.6601,5.6601,5.6601,5.6601,5.6601,5.6601,5.6601,5.6601,5.6601,5.6601,5.6601,5.6601,5.6601,5.6601,5.6601,5.6601,5.6601,5.6601,5.6601,5.6601,5.6601,5.6601,5.6601,5.6601,5.6601,5.6601,5.6601,5.6601,5.6601,5.6601,5.6601,5.6601,5.6601,5.6601,5.6601,5.6601,5.6601,5.6601,5.6601,5.6601,5.66,5.6599,5.6559,5.6477,5.6328,5.6282,5.6257,5.6188,5.6161,5.6166,5.613,0.0,5.5872,5.5872,5.5778,5.5703,5.5703,5.5703,5.5703,5.5703,5.5703,5.5703,5.5703,5.5703,5.5703,5.5703,5.5703,5.5703,5.5703,5.5808,5.593,5.6029,5.6029,5.6107,5.6262,5.7,5.7477,5.7807,5.9281,6.0077,6.0368,6.1054,6.1341,6.136,6.136,6.1287,6.1185,6.1185,6.1089,6.0993,5.6593,5.6593,5.6828,5.7575,5.7087,5.697,5.8066,5.9062,5.9726,5.9863,6.0703,6.1367,6.1484,6.1465,6.1504,6.168,6.1465,6.1308,6.1308,5.9512,5.8379,5.8242,5.7324,5.6738,5.6601,5.6601,5.6601,5.6601,5.6601,5.6601,5.6601,5.6601,5.6601,5.6601,5.6601,5.6601,5.6601,5.6601,5.6601,5.6601,5.6601,5.6601,5.6601,5.6601,5.6601,5.6601,5.6601,5.6601,5.6601,5.6601,5.6601,5.6601,5.6601,5.6601,5.6601,5.6601,5.6601,5.6601,5.6601,5.6601,5.6601,5.6601,5.6601,5.6601,5.6603,5.6596,5.6606,5.6595,5.6328,5.6149,5.6274,5.625,5.6188,5.6045,5.6022,5.5967,5.5798,0.0,5.5737,5.5737,5.5705,5.5703,5.5703,5.5703,5.5703,5.5703,5.5703,5.5703,5.5703,5.5703,5.5703,5.5703,5.5703,5.5703,5.5703,5.5726,5.5738,5.5749,5.5749,5.6154,5.6847,5.7002,5.783,5.9188,5.9468,6.0412,6.1781,6.1916,6.2355,6.2945,6.2945,6.2921,6.2916,6.2916,6.2474,6.1908,5.6599,5.66,5.6736,5.7128,5.7636,5.8183,5.8691,5.9238,5.9883,6.0801,6.1367,6.1699,6.1699,6.1699,6.1699,6.1699,6.1699,6.1699,6.1699,6.0723,6.0137,6.0137,5.9629,5.8769,5.7539,5.7832,5.7773,5.7305,5.6836,5.6601,5.6601,5.6601,5.6601,5.6601,5.6601,5.6601,5.6601,5.6601,5.6601,5.6601,5.6601,5.6601,5.6601,5.6601,5.6601,5.6601,5.6601,5.6601,5.6601,5.6601,5.6601,5.6601,5.6601,5.6601,5.6601,5.6601,5.6601,5.6601,5.6601,5.6601,5.6582,5.6555,5.6553,5.6545,5.6497,5.6462,5.6413,5.6301,5.6132,5.6017,5.6078,5.6061,5.6019,5.5915,5.5891,0.0,0.0,5.5703,5.5703,5.5703,5.5703,5.5703,5.5703,5.5703,5.5703,5.5703,5.5703,5.5703,5.5703,5.5703,5.5703,5.5703,5.5703,5.5703,5.5703,5.5703,5.5703,5.5703,5.6646,5.73,5.7742,5.9119,6.0177,6.0916,6.1358,6.2012,6.2743,6.2743,6.2974,6.3288,6.3288,6.3288,6.3288,6.3288,6.2781,6.2101,5.6855,5.6953,5.707,5.7344,5.8398,5.9336,5.9726,5.9785,6.0234,6.1523,6.1699,6.1699,6.1699,6.1699,6.1699,6.1699,6.1699,6.1699,6.1699,6.1699,6.1699,6.1699,6.1699,6.0703,5.8555,5.8965,5.8808,5.7988,5.7324,5.6953,5.6894,5.6894,5.6797,5.6601,5.6601,5.6601,5.6601,5.6816,5.6894,5.6914,5.7129,5.7207,5.7207,5.7207,5.7207,5.7207,5.7207,5.7207,5.7207,5.7207,5.7207,5.7168,5.6973,5.6894,5.6855,5.6639,5.6558,5.6535,5.6535,5.6535,5.6511,5.6463,5.645,5.6436,5.6377,5.6334,5.6252,5.6046,5.6002,5.5983,5.5918,5.5908,5.5896,5.5817,0.0,0.0,0.0,5.5703,5.5703,5.5703,5.5703,5.5703,5.5703,5.5703,5.5703,5.5703,5.5703,5.5703,5.5703,5.5703,5.578,5.5992,5.5799,5.5799,5.5992,5.5992,5.6203,5.6588,5.7934,5.88,5.9242,6.1204,6.2197,6.2397,6.3031,6.3404,6.3608,6.3608,6.3724,6.3897,6.3897,6.3897,6.3897,6.3897,6.3262,6.2377,5.7656,5.8008,5.8515,5.957,5.9433,5.9726,6.1289,6.1523,6.1562,6.168,6.1699,6.1699,6.1699,6.1699,6.1699,6.1699,6.1699,6.1699,6.1699,6.1699,6.1699,6.1699,6.1699,6.0898,5.918,5.918,5.8887,5.8262,5.8203,5.8047,5.7793,5.7793,5.7363,5.6601,5.6601,5.6601,5.664,5.7461,5.7793,5.7871,5.8672,5.9004,5.9004,5.9004,5.9004,5.9004,5.9004,5.9004,5.9004,5.9004,5.9004,5.8867,5.8066,5.7793,5.7636,5.6758,5.6419,5.6328,5.6328,5.6328,5.6328,5.632,5.6301,5.6294,5.6218,5.6272,5.6233,5.604,5.6007,5.5971,5.591,5.5959,5.5942,5.5807,0.0,0.0,5.5714,5.5703,5.5703,5.5703,5.5703,5.5703,5.5703,5.5703,5.5703,5.5703,5.5703,5.5703,5.5703,5.5703,5.6069,5.6887,5.6107,5.6088,5.6907,5.6907,5.7684,5.9223,5.9358,6.0262,6.1831,6.2005,6.2512,6.3224,6.3281,6.3762,6.4493,6.4493,6.4974,6.5705,6.5705,6.5705,6.5705,6.5705,6.4647,6.3224,5.8047,5.8808,5.9707,6.0859,6.0898,6.0976,6.1601,6.1699,6.1699,6.1699,6.1699,6.1699,6.1699,6.1699,6.1699,6.1699,6.1699,6.1699,6.1699,6.1699,6.1699,6.1699,6.1699,6.1406,6.0762,6.0742,6.0644,6.041,5.9707,5.9121,5.8711,5.8711,5.8535,5.8203,5.8203,5.8203,5.8223,5.8574,5.8711,5.873,5.9062,5.9199,5.9199,5.9199,5.9199,5.9199,5.9199,5.9199,5.9199,5.9199,5.9199,5.9121,5.8702,5.8648,5.8514,5.7481,5.7093,5.6852,5.6265,5.6208,5.6294,5.625,5.6228,5.6218,5.6109,5.6091,5.6086,5.6025,5.5959,5.5922,5.5905,5.5885,5.5846,5.5756,0.0,5.5735,5.5695,5.5703,5.5703,5.5703,5.5703,5.5703,5.5703,5.5703,5.5915,5.6483,5.6522,5.6742,5.728,5.7319,5.7453,5.78,5.7492,5.7473,5.78,5.83,5.8877,5.9511,6.1108,6.2204,6.2878,6.3955,6.4609,6.4916,6.4916,6.5109,6.5416,6.5416,6.559,6.5897,6.5897,6.5897,6.582,6.5282,6.4339,6.3243,5.8848,5.9805,6.0781,6.1562,6.1699,6.1699,6.1699,6.1699,6.1699,6.1699,6.1699,6.1699,6.1699,6.1699,6.1699,6.1699,6.1699,6.1699,6.1699,6.1699,6.1699,6.1699,6.1699,6.1699,6.1699,6.1699,6.1699,6.1699,6.0918,6.0215,5.957,5.957,5.9433,5.9199,5.9199,5.9199,5.9219,5.9473,5.957,5.9609,5.9863,5.998,5.998,5.998,5.998,5.998,5.998,5.998,5.998,5.998,5.998,5.9921,5.9529,5.9241,5.89,5.8154,5.7871,5.7629,5.6994,5.6915,5.6885,5.629,5.6146,5.6117,5.6018,5.5995,5.5996,5.5999,5.5903,5.6001,5.6549,5.6413,5.6267,5.6483,5.6511,5.6511,5.6511,5.6511,5.6511,5.6511,5.6511,5.6511,5.6511,5.6511,5.6761,5.7357,5.7407,5.7665,5.828,5.855,5.8684,5.8684,5.9204,5.9492,5.9492,5.9762,6.0319,6.1127,6.2878,6.3858,6.4166,6.5359,6.5897,6.5897,6.5897,6.5897,6.5897,6.5897,6.5897,6.5897,6.5897,6.5897,6.5782,6.4916,6.4051,6.3185,6.0137,6.1094,6.1699,6.1699,6.1699,6.1699,6.1699,6.1699,6.1699,6.1699,6.1699,6.1699,6.1699,6.1699,6.1699,6.1699,6.1699,6.1699,6.1699,6.1699,6.1699,6.1699,6.1699,6.1699,6.1699,6.1699,6.1699,6.1699,6.1699,6.1269,6.041,6.041,5.998,5.9219,5.9219,5.9219,5.9277,6.0078,6.041,6.0488,6.1348,6.1699,6.1699,6.1699,6.1699,6.1699,6.1699,6.1699,6.1699,6.1699,6.1699,6.1542,6.0602,5.959,5.8725,5.8706,5.8661,5.8613,5.8613,5.8613,5.8178,5.6457,5.6031,5.6031,5.6003,5.6007,5.6009,5.6009,5.5856,5.6271,5.7995,5.7646,5.7384,5.8176,5.83,5.83,5.83,5.83,5.83,5.83,5.83,5.83,5.83,5.83,5.83,5.8319,5.8319,5.8319,5.8319,5.9088,5.9511,5.9511,6.1185,6.2101,6.212,6.1262,6.2089,6.4609,6.4609,6.5051,6.5897,6.5897,6.5897,6.5897,6.5897,6.5897,6.5897,6.5897,6.5897,6.5897,6.5897,6.5897,6.5782,6.4916,6.4051,6.3185,6.0312,6.1094,6.1699,6.1699,6.1699,6.1699,6.1699,6.1699,6.1699,6.1699,6.1699,6.1699,6.1699,6.1699,6.1699,6.1699,6.1699,6.1699,6.1699,6.1699,6.1699,6.1699,6.1699,6.1699,6.1699,6.1699,6.1699,6.1699,6.1699,6.1562,6.1308,6.1308,6.1172,6.0957,6.0957,6.0957,6.0976,6.1211,6.1286,6.1273,6.1581,6.1677,6.1626,6.1678,6.1699,6.1699,6.1699,6.1677,6.1623,6.1623,6.1564,6.1446,6.1167,6.076,6.0276,5.9753,5.9561,5.9377,5.8767,5.8613,5.8477,5.7946,5.7811,5.7705,5.7225,5.7129,5.7217,5.7553,5.786,5.8254,5.8759,5.8352,5.8022,5.8261,5.83,5.83,5.83,5.83,5.83,5.83,5.83,5.83,5.83,5.83,5.8531,5.9108,5.9704,6.005,6.005,6.0281,6.0416,6.0416,6.1524,6.2358,6.2935,6.3281,6.3858,6.4609,6.5224,6.5647,6.5897,6.5897,6.5897,6.5897,6.5897,6.5897,6.5897,6.5897,6.5897,6.5897,6.5897,6.5897,6.5724,6.4224,6.3531,6.3108,6.0859,6.1348,6.1699,6.1699,6.1699,6.1699,6.1699,6.1699,6.1699,6.1699,6.1699,6.1699,6.1699,6.1699,6.1699,6.1699,6.1699,6.1699,6.1699,6.1699,6.1699,6.1699,6.1699,6.1699,6.1699,6.1699,6.1699,6.1699,6.1699,6.1699,6.1699,6.1699,6.1699,6.1699,6.1699,6.1698,6.1655,6.1655,6.1645,6.1607,6.1649,6.1652,6.1648,6.1653,6.1655,6.1654,6.1603,6.1562,6.1511,6.1511,6.1454,6.137,6.137,6.1235,6.1001,6.0572,6.0414,6.0267,5.9725,5.959,5.959,5.9572,5.9078,5.8498,5.8047,5.8095,5.8307,5.8601,5.8897,5.9241,5.9699,5.9234,5.8896,5.9223,5.93,5.93,5.93,5.93,5.93,5.93,5.93,5.93,5.93,5.93,5.9492,5.9973,6.0492,6.08,6.08,6.1127,6.13,6.13,6.2474,6.332,6.382,6.4686,6.5109,6.5128,6.5647,6.5897,6.5897,6.5897,6.5897,6.5897,6.5897,6.5897,6.5897,6.5897,6.5897,6.5897,6.5897,6.5686,6.5224,6.382,6.3108,6.2627,6.1543,6.1699,6.1699,6.1699,6.1699,6.1699,6.1699,6.1699,6.1699,6.1699,6.1699,6.1699,6.1699,6.1699,6.1699,6.1699,6.1699,6.1699,6.1699,6.1699,6.1699,6.1699,6.1699,6.1699,6.1699,6.1699,6.1699,6.1699,6.1699,6.1699,6.1699,6.1699,6.1699,6.1699,6.1679,6.1631,6.1579,6.1583,6.1583,6.1579,6.1603,6.1624,6.1677,6.1614,6.1579,6.1571,6.1443,6.1408,6.1398,6.1388,6.133,6.1289,6.1289,6.12,6.1099,6.1099,6.1099,6.1089,6.1089,6.1089,6.107,6.1031,5.9891,5.8789,5.8732,5.906,5.9347,5.9333,5.9298,5.9573,6.0604,6.0139,5.9877,6.0666,6.08,6.08,6.08,6.08,6.08,6.08,6.08,6.08,6.08,6.08,6.08,6.08,6.08,6.0819,6.0916,6.1678,6.2139,6.2197,6.3762,6.4609,6.4609,6.5455,6.5897,6.5897,6.5897,6.5897,6.5897,6.5897,6.5897,6.5897,6.5897,6.5897,6.5897,6.5897,6.5897,6.5897,6.5897,6.5378,6.4493,6.3628,6.2781,6.1985,6.166,6.1699,6.1699,6.1699,6.1699,6.1699,6.1699,6.1699,6.1699,6.1699,6.1699,6.1699,6.1699,6.1699,6.1699,6.1699,6.1699,6.1699,6.1699,6.1699,6.1699,6.1699,6.1699,6.1699,6.1699,6.1699,6.1699,6.1699,6.1699,6.1699,6.1699,6.1649,6.1619,6.1618,6.1517,6.146,6.1448,6.1565,6.154,6.1452,6.1568,6.1546,6.1467,6.1452,6.1443,6.1439,6.1402,6.1376,6.1318,6.1205,6.1159,6.1143,6.1143,6.1116,6.1099,6.1099,6.1051,6.1022,6.1022,6.1021,6.1029,6.0999,6.0729,6.0459,6.0396,6.0451,6.0506,6.045,6.0427,6.0504,6.0754,6.0658,6.0569,6.0762,6.08,6.08,6.08,6.08,6.08,6.08,6.08,6.08,6.08,6.08,6.08,6.08,6.08,6.1089,6.1793,6.2005,6.2377,6.3031,6.4051,6.4609,6.4609,6.5455,6.5897,6.5897,6.5897,6.5897,6.5897,6.5897,6.5897,6.5897,6.5897,6.5897,6.5897,6.5897,6.5897,6.5897,6.5897,6.5378,6.4493,6.3628,6.2781,6.2082,6.1699,6.1699,6.1699,6.1699,6.1699,6.1699,6.1699,6.1699,6.1699,6.1699,6.1699,6.1699,6.1699,6.1699,6.1698,6.1653,6.1652,6.1627,6.1568,6.1624,6.1652,6.1652,6.1679,6.1699,6.1699,6.1699,6.1699,6.1699,6.1699,6.1699,6.1699,6.1656,6.1651,6.1649,6.1573,6.1526,6.1497,6.1501,6.1456,6.1393,6.1441,6.1437,6.1408,6.1356,6.1353,6.1348,6.1279,6.1221,6.1192,6.1116,6.1099,6.1089,6.1051,6.1041,6.1061,6.1051,6.1021,6.1,6.1,6.0999,6.0987,6.0955,6.0955,6.0944,6.0911,6.0911,6.0869,6.0812,6.08,6.08,6.08,6.08,6.08,6.08,6.08,6.08,6.08,6.08,6.08,6.08,6.08,6.08,6.08,6.08,6.0973,6.1389,6.1416,6.1781,6.2627,6.307,6.3493,6.3916,6.4762,6.5224,6.5224,6.5667,6.5897,6.5897,6.5897,6.5897,6.5897,6.5897,6.5897,6.5897,6.5897,6.5897,6.5897,6.5897,6.5897,6.5897,6.5897,6.5378,6.4551,6.4089,6.3397,6.2666,6.1699,6.1699,6.1699,6.1699,6.1699,6.1699,6.1699,6.1699,6.1699,6.1699,6.1699,6.1699,6.1699,6.1699,6.1653,6.1576,6.1601,6.1546,6.1443,6.1549,6.1614,6.1605,6.1656,6.1679,6.1656,6.1679,6.1699,6.1699,6.1699,6.1699,6.1699,6.1658,6.1656,6.1656,6.1608,6.1564,6.1513,6.1417,6.1388,6.1378,6.1318,6.1337,6.1373,6.1304,6.1267,6.1252,6.1134,6.1089,6.1089,6.1089,6.108,6.1061,6.1021,6.1011,6.1001,6.1008,6.0987,6.0976,6.0976,6.0976,6.0955,6.0911,6.088,6.088,6.088,6.088,6.0858,6.0812,6.08,6.08,6.08,6.08,6.08,6.08,6.08,6.08,6.08,6.08,6.08,6.08,6.08,6.08,6.08,6.0935,6.132,6.2062,6.2235,6.2666,6.3493,6.4205,6.4666,6.482,6.5513,6.5897,6.5897,6.5897,6.5897,6.5897,6.5897,6.5897,6.5897,6.5897,6.5897,6.5897,6.5897,6.5897,6.5897,6.5897,6.5897,6.5897,6.5897,6.5378,6.4589,6.4436,6.4012,6.3531,6.1699,6.1699,6.1699,6.1699,6.1699,6.1699,6.1699,6.1699,6.1699,6.1699,6.1699,6.1699,6.1699,6.1651,6.1554,6.1439,6.1537,6.1581,6.1576,6.1631,6.1655,6.1607,6.1656,6.163,6.1432,6.1608,6.1699,6.1699,6.1699,6.1699,6.1699,6.1529,6.1432,6.1424,6.1258,6.1181,6.1164,6.1269,6.1318,6.1318,6.1297,6.1317,6.1297,6.1175,6.1136,6.1116,6.1108,6.1051,6.1012,6.1012,6.1021,6.1018,6.1008,6.1008,6.0997,6.0997,6.0955,6.0903,6.0903,6.0869,6.0823,6.0823,6.0812,6.0812,6.0812,6.0812,6.0812,6.08,6.08,6.08,6.08,6.08,6.08,6.08,6.08,6.08,6.08,6.08,6.08,6.08,6.08,6.08,6.08,6.1485,6.1966,6.2101,6.2743,6.3512,6.4378,6.4551,6.4955,6.5705,6.584,6.5897,6.5897,6.5897,6.5897,6.5897,6.5897,6.5897,6.5897,6.5897,6.5897,6.5897,6.5897,6.5897,6.5897,6.5897,6.5897,6.5897,6.5897,6.5378,6.4512,6.3762,6.3878,6.4416,6.1699,6.1699,6.1699,6.1699,6.1699,6.1699,6.1699,6.1676,6.1649,6.1649,6.1573,6.1534,6.1534,6.1511,6.1459,6.1348,6.1406,6.1392,6.1337,6.1427,6.1463,6.1437,6.1501,6.1488,6.1393,6.1458,6.1484,6.1484,6.1598,6.16,6.1534,6.1432,6.1393,6.1408,6.1304,6.1272,6.1265,6.129,6.1276,6.1247,6.1197,6.1175,6.1122,6.1098,6.1099,6.1089,6.107,6.1022,6.1002,6.1,6.0999,6.0987,6.0955,6.0944,6.0944,6.0911,6.0858,6.0846,6.0846,6.0823,6.08,6.08,6.08,6.08,6.08,6.08,6.08,6.08,6.08,6.08,6.08,6.08,6.08,6.08,6.08,6.08,6.08,6.08,6.08,6.08,6.1223,6.1543,6.1543,6.2281,6.2974,6.3455,6.3839,6.4416,6.5282,6.532,6.5493,6.5878,6.5897,6.5897,6.5897,6.5897,6.5897,6.5897,6.5897,6.5897,6.5897,6.5897,6.5897,6.5897,6.5897,6.5897,6.5897,6.5897,6.5897,6.5897,6.5897,6.5647,6.5282,6.4897,6.4993,6.532]}]]